[[{"header":{"parameterUnit":"m.s-1","parameterCategory":1,"la1":30.6,"la2":28.766,"lo1":-90.7593,"lo2":-88.6598,"dy":0.0162,"dx":0.0183,"nx":116,"ny":114,"refTime":"2023-09-16T18:00:00:Z","depth":0,"parameterNumber":2,"parameterNumberName":"U-component_of_WINDS"},"data":[0.0,0.0,0.0,0.0,0.0,0.0,0.0,0.0,0.0,0.0,0.0,0.0,0.0,0.0,0.0,0.0,0.0,0.0,0.0,0.0,0.0,0.0,0.0,0.0,0.0,0.0,0.0,0.0,0.0,0.0,0.0,0.0,0.0,0.0,0.0,0.0,0.0,0.0,0.0,0.0,0.0,0.0,0.0,0.0,0.0,0.0,0.0,0.0,0.0,0.0,0.0,0.0,0.0,0.0,0.0,0.0,0.0,0.0,0.0,0.0,0.0,0.0,0.0,0.0,0.0,0.0,0.0,0.0,0.0,0.0,0.0,0.0,0.0,0.0,0.0,0.0,0.0,0.0,0.0,0.0,0.0,0.0,0.0,0.0,0.0,0.0,0.0,0.0,0.0,0.0,0.0,0.0,0.0,0.0,0.0,0.0,0.0,0.0,0.0,0.0,0.0,0.0,0.0,0.0,0.0,0.0,0.0,0.0,0.0,0.0,0.0,0.0,0.0,0.0,0.0,0.0,0.0,0.0,0.0,0.0,0.0,0.0,0.0,0.0,0.0,0.0,0.0,0.0,0.0,0.0,0.0,0.0,0.0,0.0,0.0,0.0,0.0,0.0,0.0,0.0,0.0,0.0,0.0,0.0,0.0,0.0,0.0,0.0,0.0,0.0,0.0,0.0,0.0,0.0,0.0,0.0,0.0,0.0,0.0,0.0,0.0,0.0,0.0,0.0,0.0,0.0,0.0,0.0,0.0,0.0,0.0,0.0,0.0,0.0,0.0,0.0,0.0,0.0,0.0,0.0,0.0,0.0,0.0,0.0,0.0,0.0,0.0,0.0,0.0,0.0,0.0,0.0,0.0,0.0,0.0,0.0,0.0,0.0,0.0,0.0,0.0,0.0,0.0,0.0,0.0,0.0,0.0,0.0,0.0,0.0,0.0,0.0,0.0,0.0,0.0,0.0,0.0,0.0,0.0,0.0,0.0,0.0,0.0,0.0,0.0,0.0,0.0,0.0,0.0,0.0,0.0,0.0,0.0,0.0,0.0,0.0,0.0,0.0,0.0,0.0,0.0,0.0,0.0,0.0,0.0,0.0,0.0,0.0,0.0,0.0,0.0,0.0,0.0,0.0,0.0,0.0,0.0,0.0,0.0,0.0,0.0,0.0,0.0,0.0,0.0,0.0,0.0,0.0,0.0,0.0,0.0,0.0,0.0,0.0,0.0,0.0,0.0,0.0,0.0,0.0,0.0,0.0,0.0,0.0,0.0,0.0,0.0,0.0,0.0,0.0,0.0,0.0,0.0,0.0,0.0,0.0,0.0,0.0,0.0,0.0,0.0,0.0,0.0,0.0,0.0,0.0,0.0,0.0,0.0,0.0,0.0,0.0,0.0,0.0,0.0,0.0,0.0,0.0,0.0,0.0,0.0,0.0,0.0,0.0,0.0,0.0,0.0,0.0,0.0,0.0,0.0,0.0,0.0,0.0,0.0,0.0,0.0,0.0,0.0,0.0,0.0,0.0,0.0,0.0,0.0,0.0,0.0,0.0,0.0,0.0,0.0,0.0,0.0,0.0,0.0,0.0,0.0,0.0,0.0,0.0,0.0,0.0,0.0,0.0,0.0,0.0,0.0,0.0,0.0,0.0,0.0,0.0,0.0,0.0,0.0,0.0,0.0,0.0,0.0,0.0,0.0,0.0,0.0,0.0,0.0,0.0,0.0,0.0,0.0,0.0,0.0,0.0,0.0,0.0,0.0,0.0,0.0,0.0,0.0,0.0,0.0,0.0,0.0,0.0,0.0,0.0,0.0,0.0,0.0,0.0,0.0,0.0,0.0,0.0,0.0,0.0,0.0,0.0,0.0,0.0,0.0,0.0,0.0,0.0,0.0,0.0,0.0,0.0,0.0,0.0,0.0,0.0,0.0,0.0,0.0,0.0,0.0,0.0,0.0,0.0,0.0,0.0,0.0,0.0,0.0,0.0,0.0,0.0,0.0,0.0,0.0,0.0,0.0,0.0,0.0,0.0,0.0,0.0,0.0,0.0,0.0,0.0,0.0,0.0,0.0,0.0,0.0,0.0,0.0,0.0,0.0,0.0,0.0,0.0,0.0,0.0,0.0,0.0,0.0,0.0,0.0,0.0,0.0,0.0,0.0,0.0,0.0,0.0,0.0,0.0,0.0,0.0,0.0,0.0,0.0,0.0,0.0,0.0,0.0,0.0,0.0,0.0,0.0,0.0,0.0,0.0,0.0,0.0,0.0,0.0,0.0,0.0,0.0,0.0,0.0,0.0,0.0,0.0,0.0,0.0,0.0,0.0,0.0,0.0,0.0,0.0,0.0,0.0,0.0,0.0,0.0,0.0,0.0,0.0,0.0,0.0,0.0,0.0,0.0,0.0,0.0,0.0,0.0,0.0,0.0,0.0,0.0,0.0,0.0,0.0,0.0,0.0,0.0,0.0,0.0,0.0,0.0,0.0,0.0,0.0,0.0,0.0,0.0,0.0,0.0,0.0,0.0,0.0,0.0,0.0,0.0,0.0,0.0,0.0,0.0,0.0,0.0,0.0,0.0,0.0,0.0,0.0,0.0,0.0,0.0,0.0,0.0,0.0,0.0,0.0,0.0,0.0,0.0,0.0,0.0,0.0,0.0,0.0,0.0,0.0,0.0,0.0,0.0,0.0,0.0,0.0,0.0,0.0,0.0,0.0,0.0,0.0,0.0,0.0,0.0,0.0,0.0,0.0,0.0,0.0,0.0,0.0,0.0,0.0,0.0,0.0,0.0,0.0,0.0,0.0,0.0,0.0,0.0,0.0,0.0,0.0,0.0,0.0,0.0,0.0,0.0,0.0,0.0,0.0,0.0,0.0,0.0,0.0,0.0,0.0,0.0,0.0,0.0,0.0,0.0,0.0,0.0,0.0,0.0,0.0,0.0,0.0,0.0,0.0,0.0,0.0,0.0,0.0,0.0,0.0,0.0,0.0,0.0,0.0,0.0,0.0,0.0,0.0,0.0,0.0,0.0,0.0,0.0,0.0,0.0,0.0,0.0,0.0,0.0,0.0,0.0,0.0,0.0,0.0,0.0,0.0,0.0,0.0,0.0,0.0,0.0,0.0,0.0,0.0,0.0,0.0,0.0,0.0,0.0,0.0,0.0,0.0,0.0,0.0,0.0,0.0,0.0,0.0,0.0,0.0,0.0,0.0,0.0,0.0,0.0,0.0,0.0,0.0,0.0,0.0,0.0,0.0,0.0,0.0,0.0,0.0,0.0,0.0,0.0,0.0,0.0,0.0,0.0,0.0,0.0,0.0,0.0,0.0,0.0,0.0,0.0,0.0,0.0,0.0,0.0,0.0,0.0,0.0,0.0,0.0,0.0,0.0,0.0,0.0,0.0,0.0,0.0,0.0,0.0,0.0,0.0,0.0,0.0,0.0,0.0,0.0,0.0,0.0,0.0,0.0,0.0,0.0,0.0,0.0,0.0,0.0,0.0,0.0,0.0,0.0,0.0,0.0,0.0,0.0,0.0,0.0,0.0,0.0,0.0,0.0,0.0,0.0,0.0,0.0,0.0,0.0,0.0,0.0,0.0,0.0,0.0,0.0,0.0,0.0,0.0,0.0,0.0,0.0,0.0,0.0,0.0,0.0,0.0,0.0,0.0,0.0,0.0,0.0,0.0,0.0,0.0,0.0,0.0,0.0,0.0,0.0,0.0,0.0,0.0,0.0,0.0,0.0,0.0,0.0,0.0,0.0,0.0,0.0,0.0,0.0,0.0,0.0,0.0,0.0,0.0,0.0,0.0,0.0,0.0,0.0,0.0,0.0,0.0,0.0,0.0,0.0,0.0,0.0,0.0,0.0,0.0,0.0,0.0,0.0,0.0,0.0,0.0,0.0,0.0,0.0,0.0,0.0,0.0,0.0,0.0,0.0,0.0,0.0,0.0,0.0,0.0,0.0,0.0,0.0,0.0,0.0,0.0,0.0,0.0,0.0,0.0,0.0,0.0,0.0,0.0,0.0,0.0,0.0,0.0,0.0,0.0,0.0,0.0,0.0,0.0,0.0,0.0,0.0,0.0,0.0,0.0,0.0,0.0,0.0,0.0,0.0,0.0,0.0,0.0,0.0,0.0,0.0,0.0,0.0,0.0,0.0,0.0,0.0,0.0,0.0,0.0,0.0,0.0,0.0,0.0,0.0,0.0,0.0,0.0,0.0,0.0,0.0,0.0,0.0,0.0,0.0,0.0,0.0,0.0,0.0,0.0,0.0,0.0,0.0,0.0,0.0,0.0,0.0,0.0,0.0,0.0,0.0,0.0,0.0,0.0,0.0,0.0,0.0,0.0,0.0,0.0,0.0,0.0,0.0,0.0,0.0,0.0,0.0,0.0,0.0,0.0,0.0,0.0,0.0,0.0,0.0,0.0,0.0,0.0,0.0,0.0,0.0,0.0,0.0,0.0,0.0,0.0,0.0,0.0,0.0,0.0,0.0,0.0,0.0,0.0,0.0,0.0,0.0,0.0,0.0,0.0,0.0,0.0,0.0,0.0,0.0,0.0,0.0,0.0,0.0,0.0,0.0,0.0,0.0,0.0,0.0,0.0,0.0,0.0,0.0,0.0,0.0,0.0,0.0,0.0,0.0,0.0,0.0,0.0,0.0,0.0,0.0,0.0,0.0,0.0,0.0,0.0,0.0,0.0,0.0,0.0,0.0,0.0,0.0,0.0,0.0,0.0,0.0,0.0,0.0,0.0,0.0,0.0,0.0,0.0,0.0,0.0,0.0,0.0,0.0,0.0,0.0,0.0,0.0,0.0,0.0,0.0,0.0,0.0,0.0,0.0,0.0,0.0,0.0,0.0,0.0,0.0,0.0,0.0,0.0,0.0,0.0,0.0,0.0,0.0,0.0,0.0,0.0,0.0,0.0,0.0,0.0,0.0,0.0,0.0,0.0,0.0,0.0,0.0,0.0,0.0,0.0,0.0,0.0,0.0,0.0,0.0,0.0,0.0,0.0,0.0,0.0,0.0,0.0,0.0,0.0,0.0,0.0,0.0,0.0,0.0,0.0,0.0,0.0,0.0,0.0,0.0,0.0,0.0,0.0,0.0,0.0,0.0,0.0,0.0,0.0,0.0,0.0,0.0,0.0,0.0,0.0,0.0,0.0,0.0,0.0,0.0,0.0,0.0,0.0,0.0,0.0,0.0,0.0,0.0,0.0,0.0,0.0,0.0,0.0,0.0,0.0,0.0,0.0,0.0,0.0,0.0,0.0,0.0,0.0,0.0,0.0,0.0,0.0,0.0,0.0,0.0,0.0,0.0,0.0,0.0,0.0,0.0,0.0,0.0,0.0,0.0,0.0,0.0,0.0,0.0,0.0,0.0,0.0,0.0,0.0,0.0,0.0,0.0,0.0,0.0,0.0,0.0,0.0,0.0,0.0,0.0,0.0,0.0,0.0,0.0,0.0,0.0,0.0,0.0,0.0,0.0,0.0,0.0,0.0,0.0,0.0,0.0,0.0,0.0,0.0,0.0,0.0,0.0,0.0,0.0,0.0,0.0,0.0,0.0,0.0,0.0,0.0,0.0,0.0,0.0,0.0,0.0,0.0,0.0,0.0,0.0,0.0,0.0,0.0,0.0,0.0,0.0,0.0,0.0,0.0,0.0,0.0,0.0,0.0,0.0,0.0,0.0,0.0,0.0,0.0,0.0,0.0,0.0,0.0,0.0,0.0,0.0,0.0,0.0,0.0,0.0,0.0,0.0,0.0,0.0,0.0,0.0,0.0,0.0,0.0,0.0,0.0,0.0,0.0,0.0,0.0,0.0,0.0,0.0,0.0,0.0,0.0,0.0,0.0,0.0,0.0,0.0,0.0,0.0,0.0,0.0,0.0,0.0,0.0,0.0,0.0,0.0,0.0,0.0,0.0,0.0,0.0,0.0,0.0,0.0,0.0,0.0,0.0,0.0,0.0,0.0,0.0,0.0,0.0,0.0,0.0,0.0,0.0,0.0,0.0,0.0,0.0,0.0,0.0,0.0,0.0,0.0,0.0,0.0,0.0,0.0,0.0,0.0,0.0,0.0,0.0,0.0,0.0,0.0,0.0,0.0,0.0,0.0,0.0,-0.2977,-0.1962,0.0,0.0,0.0,0.0,0.0,0.0,0.0,0.0,0.0,0.0,0.0,0.0,0.0,0.0,0.0,0.0,0.0,0.0,0.0,0.0,0.0,0.0,0.0,0.0,0.0,0.0,0.0,0.0,0.0,0.0,0.0,0.0,0.0,0.0,0.0,0.0,0.0,0.0,-0.5813,-0.6197,-0.6904,-0.5737,-0.4821,-0.4143,0.0,0.0,0.0,0.0,0.0,0.0,0.0,0.0,0.0,0.0,0.0,0.0,0.0,0.0,0.0,0.0,0.0,0.0,0.0,0.0,0.0,0.0,0.0,0.0,0.0,0.0,0.0,0.0,0.0,0.0,0.0,0.0,0.0,0.0,0.0,0.0,0.0,0.0,0.0,0.0,0.0,0.0,0.0,0.0,0.0,0.0,0.0,0.0,0.0,0.0,0.0,0.0,0.0,0.0,0.0,0.0,0.0,0.0,0.0,0.0,0.0,0.0,0.0,0.0,0.0,0.0,0.0,0.0,0.0,0.0,-0.4064,-0.2675,0.0,0.0,0.0,0.0,0.0,0.0,0.0,0.0,0.0,0.0,0.0,0.0,0.0,0.0,0.0,0.0,0.0,0.0,0.0,0.0,0.0,0.0,0.0,0.0,-0.6807,-0.7082,-0.6561,-0.6199,0.0,0.0,0.0,0.0,0.0,0.0,0.0,-0.627,-0.6371,-0.6579,-0.7227,-0.7789,-0.8282,-0.8282,-0.7521,-0.6086,-0.494,0.0,0.0,0.0,0.0,0.0,0.0,0.0,0.0,0.0,0.0,0.0,0.0,0.0,0.0,0.0,0.0,0.0,0.0,0.0,0.0,0.0,0.0,0.0,0.0,0.0,0.0,0.0,0.0,0.0,0.0,0.0,0.0,0.0,0.0,0.0,0.0,0.0,0.0,0.0,0.0,0.0,0.0,0.0,0.0,0.0,0.0,0.0,0.0,0.0,0.0,0.0,0.0,0.0,0.0,0.0,0.0,0.0,0.0,0.0,0.0,0.0,0.0,0.0,-0.5905,-0.6067,-0.6263,-0.6263,-0.6532,-0.691,-0.5094,-0.3596,-0.2477,-0.2481,0.0,0.0,0.0,0.0,0.0,0.0,0.0,0.0,0.0,0.0,0.0,0.0,0.0,0.0,0.0,0.0,0.0,0.0,0.0,0.0,0.0,-0.7799,-0.7429,-0.7124,-0.7376,-0.738,0.0,0.0,0.0,0.0,0.0,0.0,-0.6546,-0.6553,-0.7062,-0.8107,-0.9668,-1.0481,-1.0561,-1.0561,-1.0181,-0.9382,-0.7096,-0.5563,-0.4628,0.0,0.0,0.0,0.0,0.0,0.0,0.0,0.0,0.0,0.0,0.0,0.0,0.0,0.0,0.0,0.0,0.0,0.0,0.0,0.0,0.0,0.0,0.0,0.0,0.0,0.0,0.0,0.0,0.0,0.0,0.0,0.0,0.0,0.0,0.0,0.0,0.0,0.0,0.0,0.0,0.0,-0.8049,-0.8082,0.0,0.0,0.0,0.0,0.0,0.0,0.0,0.0,0.0,0.0,0.0,0.0,0.0,-0.5745,-0.5902,-0.6329,-0.66,-0.6714,-0.7149,-0.7356,-0.7394,-0.7394,-0.7434,-0.7506,-0.7181,0.0,-0.527,-0.5265,0.0,0.0,0.0,0.0,0.0,0.0,0.0,0.0,0.0,0.0,0.0,0.0,0.0,0.0,0.0,0.0,0.0,0.0,0.0,0.0,0.0,-0.8579,-0.8689,-0.852,-0.918,-0.9306,-0.8602,-0.8461,0.0,0.0,0.0,-0.7516,-0.7343,-0.7802,-0.8647,-0.9846,-1.0615,-1.1243,-1.173,-1.173,-1.1288,-1.045,-0.9524,-0.8157,-0.6545,-0.5768,0.0,0.0,0.0,0.0,0.0,0.0,0.0,0.0,0.0,0.0,0.0,0.0,0.0,0.0,0.0,0.0,0.0,0.0,0.0,0.0,0.0,0.0,0.0,0.0,0.0,0.0,0.0,0.0,0.0,0.0,0.0,0.0,0.0,0.0,0.0,0.0,0.0,0.0,0.0,-0.7374,-0.8184,-0.8095,-0.832,-0.8346,0.0,0.0,0.0,0.0,0.0,0.0,0.0,0.0,0.0,-0.8392,-0.7822,-0.766,-0.7947,-0.745,-0.7241,-0.7309,-0.7506,-0.7641,-0.7719,-0.7719,-0.7814,-0.7977,-0.7977,-0.7713,-0.7228,-0.6209,-0.4725,-0.3142,0.0,0.0,0.0,0.0,-0.0642,0.0,0.0,0.0,0.0,0.0,0.0,0.0,0.0,0.0,0.0,0.0,0.0,0.0,-0.8929,-0.9627,-1.0108,-1.0108,-1.0841,-1.0947,-1.0069,-0.9888,0.0,0.0,-0.8788,-0.8712,-0.8408,-0.9246,-1.0109,-1.0995,-1.1323,-1.1777,-1.2418,-1.2498,-1.2149,-1.1424,-1.1638,-1.0471,-0.8308,-0.7521,-0.7021,-0.6649,0.0,0.0,0.0,0.0,0.0,0.0,0.0,0.0,0.0,0.0,0.0,0.0,0.0,0.0,0.0,0.0,0.0,0.0,0.0,0.0,0.0,0.0,0.0,0.0,0.0,0.0,0.0,0.0,0.0,0.0,0.0,0.0,0.0,0.0,0.0,0.0,0.0,-0.8433,-0.9074,-0.8807,-0.9581,-0.9907,0.0,0.0,0.0,0.0,0.0,0.0,-1.0803,-1.1026,-1.1029,-1.0684,-0.9975,-0.9762,-1.0173,-0.8883,-0.8269,-0.8397,-0.8014,-0.7879,-0.7984,-0.7984,-0.8109,-0.8378,-0.8378,-0.8384,-0.8376,-0.703,-0.5744,-0.4647,-0.4634,-0.3839,-0.2626,-0.2624,-0.199,-0.1111,0.0,0.0,0.0,0.0,0.0,0.0,0.0,0.0,0.0,0.0,0.0,-1.0599,-1.0571,-1.1124,-1.1508,-1.1508,-1.1892,-1.1772,-1.0896,-1.0776,-1.0522,-1.0041,-0.9534,-0.9423,-0.9787,-1.0589,-1.0998,-1.0995,-1.2147,-1.2717,-1.277,-1.3026,-1.3127,-1.3087,-1.3101,-1.1814,-0.9594,-0.9427,-0.9324,-0.9211,-0.7859,0.0,0.0,0.0,0.0,0.0,0.0,0.0,0.0,0.0,0.0,0.0,0.0,0.0,0.0,0.0,0.0,0.0,0.0,0.0,0.0,0.0,0.0,0.0,0.0,0.0,0.0,0.0,0.0,0.0,0.0,0.0,0.0,0.0,0.0,0.0,0.0,0.0,0.0,-1.1762,-1.2231,0.0,0.0,0.0,0.0,-1.1792,-1.2078,-1.2119,-1.1852,-1.2093,-1.1993,-1.1465,-1.1395,-1.1579,-1.205,-1.06,-1.0096,-1.0535,-0.9105,-0.8442,-0.8448,-0.8448,-0.8459,-0.8472,-0.8472,-0.8476,-0.8479,-0.8379,-0.7598,-0.6361,-0.6395,-0.5577,-0.4359,-0.4375,-0.4324,-0.4069,0.0,0.0,0.0,0.0,0.0,0.0,0.0,0.0,-0.9604,-0.9583,-1.0648,-1.1149,-1.0457,-1.2677,-1.3856,-1.2909,-1.4139,-1.4514,-1.3488,-1.2855,-1.2354,-1.191,-1.1179,-1.1204,-1.2131,-1.29,-1.354,-1.4081,-1.4096,-1.4091,-1.406,-1.35,-1.3213,-1.322,-1.3367,-1.2977,-1.216,-1.1278,-1.0726,-1.0372,-0.923,-0.8214,0.0,0.0,0.0,0.0,0.0,0.0,0.0,0.0,0.0,0.0,0.0,0.0,0.0,0.0,0.0,0.0,0.0,0.0,0.0,0.0,0.0,0.0,0.0,0.0,0.0,0.0,0.0,0.0,0.0,0.0,0.0,0.0,0.0,0.0,0.0,0.0,0.0,-1.1657,-1.2308,0.0,-1.2184,-1.2405,-1.2772,-1.326,-1.3741,-1.3979,-1.3891,-1.4295,-1.4444,-1.4266,-1.3829,-1.3686,-1.3868,-1.2521,-1.1892,-1.2037,-1.0595,-0.9924,-0.9871,-0.8947,-0.8537,-0.8628,-0.8628,-0.8682,-0.8781,-0.8876,-0.8485,-0.7776,-0.7776,-0.6972,-0.5771,-0.5777,-0.5318,-0.4403,0.0,0.0,0.0,0.0,0.0,0.0,0.0,0.0,-1.0096,-1.0147,-1.1507,-1.2338,-1.1993,-1.4369,-1.5592,-1.4592,-1.5642,-1.5798,-1.4459,-1.3955,-1.3398,-1.2686,-1.251,-1.301,-1.4225,-1.4731,-1.53,-1.6021,-1.5672,-1.5498,-1.5498,-1.45,-1.4051,-1.4058,-1.3865,-1.3753,-1.3698,-1.2874,-1.2316,-1.1942,-1.1007,-1.0002,-0.9032,0.0,0.0,0.0,0.0,0.0,0.0,0.0,0.0,0.0,0.0,0.0,0.0,0.0,0.0,0.0,0.0,0.0,0.0,0.0,0.0,0.0,0.0,0.0,0.0,0.0,0.0,0.0,0.0,0.0,0.0,0.0,0.0,0.0,0.0,-1.147,-1.2271,-1.1742,-1.2679,-1.3266,-1.2933,-1.3447,-1.4048,-1.4629,-1.5037,-1.5344,-1.5538,-1.5919,-1.6077,-1.6077,-1.5687,-1.5512,-1.5605,-1.4293,-1.3753,-1.3834,-1.2476,-1.187,-1.1817,-1.0861,-1.0128,-0.9754,-0.9754,-0.9488,-0.9093,-0.9191,-0.9108,-0.8784,-0.8784,-0.8236,-0.7479,-0.7479,-0.696,-0.6054,0.0,0.0,0.0,0.0,0.0,0.0,0.0,-1.0384,-1.0677,-1.1522,-1.2914,-1.4252,-1.5317,-1.6133,-1.6578,-1.6521,-1.6306,-1.5438,-1.3672,-1.3909,-1.3568,-1.232,-1.3519,-1.4753,-1.5927,-1.6017,-1.6175,-1.6501,-1.684,-1.6985,-1.6954,-1.6151,-1.5737,-1.5696,-1.4615,-1.413,-1.413,-1.413,-1.4088,-1.4015,-1.3179,-1.2636,-1.2052,0.0,0.0,0.0,0.0,0.0,0.0,0.0,0.0,0.0,0.0,0.0,0.0,0.0,0.0,0.0,0.0,0.0,0.0,0.0,0.0,0.0,0.0,0.0,0.0,0.0,0.0,0.0,0.0,0.0,0.0,0.0,0.0,0.0,-1.1223,-1.21,-1.2737,-1.2418,-1.3667,-1.4442,-1.4168,-1.4707,-1.5244,-1.5764,-1.5804,-1.6057,-1.6673,-1.6727,-1.6734,-1.6734,-1.6754,-1.6901,-1.7239,-1.607,-1.5677,-1.5986,-1.4775,-1.4148,-1.4148,-1.4143,-1.325,-1.1782,-1.1782,-1.087,-0.9381,-0.9388,-0.9388,-0.9388,-0.9384,-0.9381,-0.9381,-0.9381,-0.9384,-0.9094,0.0,0.0,0.0,0.0,0.0,0.0,0.0,-1.0185,-1.0554,-1.1992,-1.3586,-1.4963,-1.5948,-1.7754,-1.8259,-1.6652,-1.7219,-1.6893,-1.4988,-1.4707,-1.4307,-1.3617,-1.5459,-1.6641,-1.6982,-1.8168,-1.8841,-1.8958,-1.8587,-1.8422,-1.8391,-1.7365,-1.6846,-1.6805,-1.5745,-1.5255,-1.522,-1.4454,-1.4088,-1.4068,-1.3862,-1.332,-1.261,0.0,0.0,0.0,0.0,0.0,0.0,0.0,0.0,0.0,0.0,0.0,0.0,0.0,0.0,0.0,0.0,0.0,0.0,0.0,0.0,0.0,0.0,0.0,0.0,0.0,0.0,0.0,0.0,0.0,0.0,0.0,-1.2291,-1.2966,-1.2645,-1.3427,-1.4082,-1.4258,-1.4776,-1.5204,-1.5337,-1.5691,-1.6066,-1.6433,-1.6466,-1.6533,-1.67,-1.7108,-1.7341,-1.7341,-1.7769,-1.8043,-1.8123,-1.7808,-1.7715,-1.7793,-1.6386,-1.5676,-1.5676,-1.46,-1.325,-1.1782,-1.1782,-1.087,-0.9391,-0.95,-0.9547,-0.9537,-0.9425,-0.9381,-0.9381,-0.9381,-0.8679,-0.7703,0.0,0.0,0.0,0.0,0.0,0.0,0.0,-1.0135,-1.0838,-1.2851,-1.4155,-1.5558,-1.7253,-1.8582,-1.8821,-1.7523,-1.7762,-1.721,-1.5414,-1.4804,-1.4727,-1.5176,-1.6611,-1.767,-1.8164,-1.9316,-2.0,-2.0185,-1.9838,-1.9678,-1.9638,-1.855,-1.802,-1.7948,-1.6846,-1.6108,-1.5662,-1.5012,-1.4489,-1.4088,-1.4088,-1.3816,-1.3306,-1.2931,-1.2462,-1.1868,-1.0974,-1.0646,-1.0465,-0.9352,0.0,0.0,0.0,0.0,0.0,0.0,0.0,0.0,0.0,0.0,0.0,0.0,0.0,0.0,0.0,0.0,0.0,0.0,0.0,0.0,0.0,0.0,0.0,0.0,-1.346,-1.4168,-1.4289,-1.4643,-1.4997,-1.5291,-1.5585,-1.5879,-1.6166,-1.6353,-1.6627,-1.7041,-1.7074,-1.7181,-1.7442,-1.7776,-1.7963,-1.7963,-1.8303,-1.849,-1.849,-1.8611,-1.8671,-1.8671,-1.7918,-1.7622,-1.7559,-1.6693,-1.5478,-1.3978,-1.3978,-1.2705,-1.0565,-1.0662,-1.0289,-0.969,0.0,0.0,0.0,0.0,-0.9016,-0.8248,0.0,0.0,0.0,0.0,0.0,0.0,0.0,-1.0147,-1.1261,-1.3849,-1.4601,-1.5977,-1.8782,-1.8934,-1.8818,-1.8798,-1.8077,-1.6966,-1.5447,-1.475,-1.5089,-1.6629,-1.7295,-1.8125,-1.9268,-1.9746,-2.0176,-2.0605,-2.0605,-2.0605,-2.0566,-1.9638,-1.9195,-1.9116,-1.7989,-1.6887,-1.5861,-1.5737,-1.5095,-1.4088,-1.4088,-1.4088,-1.4001,-1.3239,-1.2938,-1.2837,-1.2004,-1.1688,-1.1635,-1.1316,0.0,0.0,0.0,0.0,0.0,0.0,0.0,0.0,0.0,0.0,0.0,0.0,0.0,0.0,0.0,0.0,0.0,0.0,0.0,0.0,0.0,0.0,0.0,0.0,-1.4696,-1.5558,-1.5879,-1.5732,-1.5678,-1.5905,-1.6192,-1.6473,-1.6734,-1.682,-1.7074,-1.7595,-1.7662,-1.7923,-1.8464,-1.8524,0.0,0.0,0.0,-1.8591,-1.8591,-1.8844,-1.8978,-1.8978,-1.9239,-1.9424,-1.9424,-1.9424,-1.8525,-1.7026,-1.7026,-1.5306,-1.2453,-1.2273,-1.1257,-0.9822,-0.9822,-0.9822,-0.9822,-0.9822,-0.9822,-0.9822,0.0,0.0,0.0,0.0,0.0,0.0,0.0,-0.9957,-1.1134,-1.4324,-1.484,-1.6116,-1.9309,-1.9607,-1.9556,-1.9443,-1.8787,-1.7745,-1.6269,-1.6188,-1.6346,-1.6687,-1.8135,-1.9033,-1.9277,-2.0087,-2.0517,-2.0605,-2.0605,-2.0605,-2.0605,-2.0401,-2.0284,-2.0245,-1.9155,-1.8069,-1.6927,-1.6067,-1.5095,-1.4088,-1.4088,-1.4088,-1.4068,-1.3895,-1.3869,-1.3801,-1.3634,-1.3574,-1.3454,-1.271,-1.2442,-1.2268,-1.1263,-1.0795,0.0,0.0,0.0,0.0,0.0,0.0,0.0,0.0,0.0,0.0,0.0,0.0,0.0,0.0,0.0,0.0,0.0,0.0,0.0,-1.4206,-1.5092,-1.5932,-1.646,-1.6693,-1.679,-1.6553,-1.68,-1.7052,-1.7112,-1.7502,-1.7782,-1.7896,-1.8176,-1.837,-1.8484,-1.8718,-1.8838,-1.8838,-1.9072,-1.9256,-1.9256,-1.9252,-1.9279,-1.9279,-1.9339,0.0,-1.9424,-1.9424,-1.8525,-1.7026,-1.7026,-1.5902,-1.4063,-1.2753,-1.1257,-0.9822,-0.9822,-0.9822,-0.9822,-0.9822,-0.9822,-0.9822,0.0,0.0,0.0,0.0,0.0,0.0,0.0,-0.9905,-1.0797,-1.3308,-1.3885,-1.499,-1.7476,-1.799,-1.8124,-1.8044,-1.7988,-1.7647,-1.6901,-1.7151,-1.745,-1.7656,-1.8711,-1.9385,-1.96,-2.0273,-2.0605,-2.0605,-2.0605,-2.0605,-2.0605,-2.0605,-2.0605,-2.0566,-2.004,-1.9195,-1.8069,-1.6968,-1.5869,-1.4852,-1.4328,-1.4088,-1.4088,-1.4088,-1.4088,-1.4088,-1.4088,-1.4088,-1.4015,-1.3608,-1.3454,-1.3353,-1.2726,-1.2231,-1.1792,0.0,0.0,0.0,0.0,0.0,0.0,0.0,0.0,0.0,0.0,0.0,0.0,0.0,0.0,-1.2616,-1.3507,0.0,-1.4589,-1.5471,-1.6106,-1.6593,-1.6887,-1.7315,-1.7428,-1.6981,-1.7328,-1.7595,-1.7595,-1.8003,-1.833,-1.8422,-1.8624,-1.8771,-1.8925,-1.9065,-1.9145,-1.9145,-1.9292,-1.9424,-1.9424,-1.9424,-1.9424,-1.9424,-1.9424,-1.9424,-1.9424,-1.9424,-1.8946,-1.8221,-1.8221,-1.7273,-1.5607,-1.3228,-1.1257,-0.9822,-0.9822,-0.9822,-0.9822,-0.9822,-0.9822,-0.9822,0.0,0.0,0.0,0.0,0.0,0.0,0.0,-0.9905,-1.0508,-1.2174,-1.2877,-1.3842,-1.5517,-1.6183,-1.65,-1.65,-1.7241,-1.7597,-1.7302,-1.7897,-1.8356,-1.8584,-1.9053,-1.9482,-1.9902,-2.038,-2.0605,-2.0605,-2.0605,-2.0605,-2.0605,-2.0605,-2.0605,-2.0605,-2.0605,-2.0001,-1.8917,-1.7779,-1.6683,-1.5621,-1.4531,-1.4088,-1.4088,-1.4088,-1.4088,-1.4088,-1.4088,-1.4088,-1.4088,-1.4088,-1.4088,-1.4088,-1.4088,-1.3635,-1.2904,-1.2194,-1.1784,0.0,0.0,0.0,0.0,0.0,0.0,0.0,0.0,-1.163,-1.1844,-1.3058,-1.3347,-1.3769,-1.5028,-1.531,-1.5631,-1.6633,-1.7045,-1.7239,-1.736,-1.7742,-1.7836,-1.7514,-1.7836,-1.8075,-1.8075,-1.8404,-1.8671,-1.8905,-1.8978,-1.9118,-1.9417,-1.9424,-1.9424,-1.9424,-1.9424,-1.9424,-1.9424,-1.9424,-1.9424,-1.9424,-1.9424,-1.9424,-1.9424,-1.9424,-1.9424,-1.9424,-1.9424,-1.8286,-1.6315,-1.376,-1.1559,-0.9822,-0.9822,-0.9822,-0.9822,-0.9822,-0.9822,-0.9822,0.0,0.0,0.0,0.0,0.0,0.0,0.0,0.0,-1.0508,-1.2174,-1.2877,-1.3842,-1.5517,-1.6183,-1.65,-1.65,-1.8124,-1.8619,-1.7368,-1.8475,-1.898,-1.8613,-1.9053,-1.9482,-1.9902,-2.038,-2.0605,-2.0605,-2.0605,-2.0605,-2.0605,-2.0605,-2.0605,-2.0605,-2.0605,-2.0001,-1.8917,-1.7779,-1.6683,-1.5621,-1.4531,-1.4088,-1.4088,-1.4088,-1.4088,-1.4088,-1.4088,-1.4088,-1.4088,-1.4088,-1.4088,-1.4088,-1.4088,-1.4015,-1.3714,-1.2585,-1.2231,-1.1951,-1.0814,-1.078,-1.1216,-1.1931,-1.1917,-1.2254,0.0,-1.3908,-1.364,-1.4856,-1.5304,-1.5618,-1.6046,-1.6339,-1.664,-1.7085,-1.7179,-1.7387,-1.7816,-1.7949,-1.8069,-1.8317,-1.8397,-1.8444,-1.8444,-1.8704,-1.8885,-1.8918,-1.9165,-1.9332,-1.9424,-1.9424,-1.9424,-1.9424,-1.9424,-1.9424,-1.9424,-1.9424,-1.9424,-1.9424,-1.9424,-1.9424,-1.9424,-1.9424,-1.9424,-1.9424,-1.9424,-1.7695,-1.4842,-1.4485,-1.2513,-0.9822,-0.9822,-0.9822,-0.9822,-0.9822,-0.9822,-0.9822,0.0,0.0,0.0,0.0,0.0,0.0,0.0,0.0,0.0,0.0,-1.141,-1.2149,-1.3195,-1.4068,-1.472,-1.5072,-1.6846,-1.7606,-1.683,-1.836,-1.9083,-1.8613,-1.9053,-1.9482,-1.9902,-2.038,-2.0605,-2.0605,-2.0605,-2.0605,-2.0605,-2.0605,-2.0605,-2.0605,-2.0605,-2.0362,-1.9805,-1.806,-1.705,-1.6478,-1.4776,-1.4088,-1.4088,-1.4088,-1.4088,-1.4041,-1.3701,-1.3574,0.0,-1.3574,-1.3574,-1.3641,-1.3975,-1.3854,-1.3407,-1.2552,-1.2305,-1.2311,-1.2345,-1.2184,-1.2261,-1.312,-1.3247,-1.3434,-1.4469,-1.4549,-1.4696,-1.5698,-1.6139,-1.6433,-1.6777,-1.6931,-1.7112,-1.7407,-1.7454,-1.7555,-1.7935,-1.8196,-1.8417,-1.8704,-1.8898,-1.8931,-1.8758,-1.9011,-1.9185,-1.9185,-1.9299,-1.9424,-1.9424,-1.9424,-1.9424,-1.9424,-1.9424,-1.9424,-1.9424,-1.9424,-1.9424,-1.9424,-1.9424,-1.9424,-1.9424,-1.9424,-1.9424,-1.9424,-1.9424,-1.811,-1.602,-1.602,-1.4118,-1.1197,-1.1197,-1.06,-0.9822,-0.9822,-0.9822,-0.9822,0.0,0.0,0.0,0.0,0.0,0.0,0.0,0.0,0.0,0.0,-1.0369,-1.0996,-1.1738,-1.2513,-1.3213,-1.384,-1.5538,-1.647,-1.6213,-1.7952,-1.887,-1.8603,-1.9053,-1.9482,-1.9902,-2.038,-2.0605,-2.0605,-2.0605,-2.0605,-2.0605,-2.0605,-2.0605,-2.0605,-2.0605,-2.0605,-2.044,-1.8221,-1.7302,-1.7098,-1.4943,-1.4088,-1.4088,-1.4088,-1.3988,-1.3788,-1.3367,-1.3213,-1.3186,-1.3019,-1.2959,-1.3033,-1.346,-1.33,-1.2859,-1.2338,-1.2124,-1.2238,-1.3014,-1.308,-1.3125,-1.3981,-1.4329,-1.4543,-1.4917,-1.517,-1.5571,-1.6246,-1.6627,-1.6894,-1.7159,-1.7266,-1.7387,-1.7549,-1.7655,-1.7816,-1.8123,-1.8424,-1.8718,-1.9011,-1.9239,-1.9279,-1.9065,-1.9239,-1.9424,-1.9424,-1.9424,-1.9424,-1.9424,-1.9424,-1.9424,-1.9424,-1.9424,-1.9424,-1.9424,-1.9424,-1.9424,-1.9424,-1.9424,-1.9424,-1.9424,-1.9424,-1.9424,-1.9424,-1.9424,-1.8467,-1.7026,-1.7026,-1.5123,-1.2213,-1.2213,-1.1201,-0.9822,-0.9822,-0.9822,-0.9822,0.0,0.0,0.0,0.0,0.0,0.0,0.0,0.0,0.0,0.0,0.0,0.0,0.0,-1.24,-1.2683,-1.3273,-1.4794,-1.5721,-1.5704,-1.7251,-1.8267,-1.8599,-1.9053,-1.9482,-1.9902,-2.038,-2.0605,-2.0605,-2.0605,-2.0605,-2.0605,-2.0605,-2.0605,-2.0605,-2.0605,-2.0605,-2.044,-1.8221,-1.7302,-1.7098,-1.4943,-1.4088,-1.4088,-1.4088,-1.3734,-1.3233,-1.322,0.0,-1.312,-1.2525,-1.2331,-1.2331,-1.2351,-1.2345,-1.2271,-1.2007,-1.1677,-1.1549,-1.2178,-1.2759,-1.3407,-1.4289,-1.4937,-1.5511,-1.6086,-1.6274,-1.6319,-1.6627,-1.6927,-1.7192,-1.7199,-1.7434,-1.7569,-1.7582,-1.7836,-1.8082,-1.8437,-1.8731,-1.9018,-1.9377,-1.9366,-1.9424,-1.9417,-1.9366,-1.9424,-1.9424,-1.9424,-1.9424,-1.9424,-1.9424,-1.9424,-1.9424,-1.9424,-1.9424,-1.9424,-1.9424,-1.9424,-1.9424,-1.9424,-1.9424,-1.9424,-1.9424,-1.9424,-1.9424,-1.9424,-1.8467,-1.7026,-1.7026,-1.5123,-1.2213,-1.2213,-1.1201,-0.9822,-0.9822,-0.9822,-0.9822,0.0,0.0,0.0,0.0,0.0,0.0,0.0,0.0,0.0,0.0,0.0,0.0,0.0,0.0,0.0,0.0,-1.3411,-1.3999,-1.435,-1.5887,-1.6819,-1.6936,-1.8447,-1.9355,-1.9492,-2.0233,-2.0605,-2.0605,-2.0605,-2.0605,-2.0605,-2.0605,-2.0605,-2.0605,-2.0605,-2.0605,-2.044,-1.8221,-1.7302,-1.7098,-1.4943,-1.4088,-1.4021,-1.3467,-1.3112,-1.2837,0.0,-1.1864,-1.1955,-1.1755,-1.185,-1.2084,-1.2509,-1.2496,-1.2204,-1.1717,-1.1784,-1.2178,-1.2934,-1.3586,-1.4289,-1.5125,-1.5685,-1.6025,-1.6226,-1.6623,-1.6931,-1.7032,-1.6817,-1.6677,-1.682,-1.678,-1.678,-1.6967,-1.7415,-1.7916,-1.8424,-1.8577,-1.8818,-1.937,-1.9424,-1.9424,-1.9424,-1.9424,-1.9424,-1.9424,-1.9424,-1.9424,-1.9424,-1.9424,-1.9424,-1.9424,-1.9424,-1.9424,-1.9424,-1.9424,-1.9424,-1.9424,-1.9424,-1.9424,-1.9424,-1.9424,-1.9424,-1.9424,-1.9424,-1.9068,-1.8583,-1.8583,-1.7331,-1.5365,-1.5365,-1.3756,-1.1378,-1.1378,-1.0721,-0.9822,0.0,0.0,0.0,0.0,0.0,0.0,0.0,0.0,0.0,0.0,0.0,0.0,0.0,0.0,0.0,0.0,0.0,-1.2654,-1.3108,-1.4292,-1.5107,-1.5381,-1.6887,-1.7676,-1.7676,-1.8369,-1.8834,-1.8991,-1.946,-1.9727,-1.9893,-2.039,-2.0605,-2.0605,-2.0605,-2.0605,-2.044,-1.8221,-1.7111,-1.663,-1.4512,-1.342,-1.3073,-1.2492,-1.2181,0.0,-1.1229,-1.0975,-1.0942,-1.1082,-1.1316,-1.1658,-1.2033,-1.2167,-1.2111,-1.1944,-1.2245,-1.2846,-1.3841,-1.4469,-1.5017,-1.5792,-1.6206,-1.6453,-1.661,-1.6931,-1.7233,-1.7333,-1.6834,-1.6486,-1.6667,-1.6553,-1.642,-1.6393,-1.6974,-1.7655,-1.8096,-1.8263,-1.8591,-1.9285,-1.9424,-1.9424,-1.9424,-1.9424,-1.9424,-1.9424,-1.9424,-1.9424,-1.9424,-1.9424,-1.9424,-1.9424,-1.9424,-1.9424,-1.9424,-1.9424,-1.9424,-1.9424,-1.9424,-1.9424,-1.9424,-1.9424,-1.9424,-1.9424,-1.9424,-1.9424,-1.9424,-1.9424,-1.8467,-1.7026,-1.7026,-1.5365,-1.2988,-1.2393,-1.1599,-1.0619,0.0,0.0,0.0,0.0,0.0,0.0,0.0,0.0,0.0,0.0,0.0,0.0,0.0,0.0,0.0,0.0,0.0,0.0,-1.1994,-1.2605,-1.326,-1.3984,-1.4521,-1.4813,-1.4813,-1.5195,-1.5615,-1.6056,-1.7266,-1.8052,-1.8461,-1.9746,-2.037,-2.037,-2.04,-2.041,-2.0246,-1.8087,-1.6682,-1.5718,-1.3633,-1.2251,-1.1389,-1.1342,-1.1022,-1.0626,-1.0835,-1.0575,-1.016,-1.0492,-1.0814,-1.1069,-1.1116,-1.1558,-1.2127,-1.269,-1.3085,-1.3547,-1.472,-1.5211,-1.5578,-1.6152,-1.6513,-1.68,-1.7139,-1.7213,-1.7293,-1.7488,-1.7054,-1.6633,-1.662,-1.6627,-1.6466,-1.5891,-1.6607,-1.7353,-1.7609,-1.7903,-1.8355,-1.9265,-1.9424,-1.9424,-1.9424,-1.9424,-1.9424,-1.9424,-1.9424,-1.9424,-1.9424,-1.9424,-1.9424,-1.9424,-1.9424,-1.9424,-1.9424,-1.9424,-1.9424,-1.9424,-1.9424,-1.9424,-1.9424,-1.9424,-1.9424,-1.9424,-1.9424,-1.9424,-1.9424,-1.9424,-1.8519,-1.7144,-1.7144,-1.6149,-1.456,-1.2946,-1.2348,-1.218,0.0,0.0,0.0,0.0,0.0,0.0,0.0,0.0,0.0,0.0,0.0,0.0,0.0,0.0,0.0,0.0,0.0,0.0,-1.0811,-1.1822,-1.248,-1.2681,-1.4043,-1.4813,-1.4813,-1.5195,-1.5469,-1.5576,-1.5908,-1.6133,-1.6219,-1.6904,-1.7249,-1.7259,-1.7559,-1.7672,-1.7605,-1.6237,-1.5232,-1.4461,-1.3132,-1.2103,-1.1322,-1.0669,-1.0494,-1.0546,-1.0177,-1.006,-1.016,-1.0492,-1.1223,-1.2084,-1.2721,-1.322,-1.3554,-1.3701,-1.4151,-1.4629,-1.5144,-1.5658,-1.6139,-1.6506,-1.682,-1.7105,-1.7186,-1.7367,-1.7368,-1.7007,-1.6293,-1.5665,-1.5491,-1.5585,-1.5825,-1.6112,-1.7094,-1.7996,-1.851,-1.8651,-1.8865,-1.9319,-1.9424,-1.9424,-1.9424,-1.9424,-1.9424,-1.9424,-1.9424,-1.9424,-1.9424,-1.9424,-1.9424,-1.9424,-1.9424,-1.9424,-1.9424,-1.9424,-1.9424,-1.9424,-1.9424,-1.9424,-1.9424,-1.9424,-1.9424,-1.9424,-1.9424,-1.9424,-1.9424,-1.9424,-1.9185,-1.8765,-1.8765,-1.7929,-1.6466,-1.4776,-1.3576,-1.2511,0.0,0.0,0.0,0.0,0.0,0.0,0.0,0.0,0.0,0.0,0.0,0.0,0.0,0.0,0.0,0.0,0.0,0.0,0.0,-1.0675,-1.1151,-1.1367,-1.2295,-1.2837,-1.2837,-1.3037,-1.3252,-1.3437,-1.4014,-1.4394,-1.459,-1.54,-1.5781,-1.5791,-1.624,-1.6436,-1.6342,-1.5006,-1.4013,0.0,0.0,-1.0677,-1.0033,-0.9539,-0.9613,-0.9953,-0.9753,-1.012,-1.0723,-1.1182,-1.1937,-1.2812,-1.3407,-1.3848,-1.4135,-1.4439,-1.4747,-1.5129,-1.5631,-1.6112,-1.6506,-1.6667,-1.7027,-1.7293,-1.6904,-1.6987,-1.7027,-1.644,-1.5725,-1.5157,-1.5035,-1.5457,-1.5805,-1.5872,-1.6987,-1.8003,-1.8464,-1.8524,-1.8731,-1.9299,-1.9424,-1.9424,-1.9424,-1.9424,-1.9424,-1.9424,-1.9424,-1.9424,-1.9424,-1.9424,-1.9424,-1.9424,-1.9424,-1.9424,-1.9424,-1.9424,-1.9424,-1.9424,-1.9424,-1.9424,-1.9424,-1.9424,-1.9424,-1.9424,-1.9424,-1.9424,-1.9424,-1.9424,-1.9446,-1.9559,-1.9559,-1.9187,-1.8318,-1.5921,-1.4591,-1.3712,0.0,0.0,0.0,0.0,0.0,0.0,0.0,0.0,0.0,0.0,0.0,0.0,0.0,0.0,0.0,0.0,0.0,0.0,0.0,0.0,0.0,-1.0186,-1.0273,-1.0303,-1.0303,-1.0303,-1.0479,-1.082,-1.1995,-1.2725,-1.3105,-1.4268,-1.4814,-1.4834,-1.5302,-1.5488,-1.54,-1.3881,-1.273,-1.1795,-0.9908,-0.8863,-0.8402,0.0,0.0,-0.9257,-0.9619,-1.0468,-1.1482,-1.2104,-1.2759,-1.3387,-1.3673,-1.4048,-1.4416,-1.493,-1.5122,-1.531,-1.6147,-1.6486,-1.6673,-1.6794,-1.7174,-1.7367,-1.6563,-1.6526,-1.6513,-1.5852,-1.5311,-1.4981,-1.4908,-1.5578,-1.6033,-1.5631,-1.67,-1.7729,-1.8136,-1.8196,-1.8484,-1.9272,-1.9424,-1.9424,-1.9424,-1.9424,-1.9424,-1.9424,-1.9424,-1.9424,-1.9424,-1.9424,-1.9424,-1.9424,-1.9424,-1.9424,-1.9424,-1.9424,-1.9424,-1.9424,-1.9424,-1.9424,-1.9424,-1.9424,-1.9424,-1.9424,-1.9424,-1.9424,-1.943,-1.947,-1.9573,-1.9806,-1.9846,-2.0034,-1.9855,-1.6544,-1.5438,-1.5057,0.0,0.0,0.0,0.0,0.0,0.0,0.0,0.0,0.0,0.0,0.0,0.0,0.0,0.0,0.0,0.0,0.0,0.0,0.0,0.0,0.0,0.0,-1.0088,-1.0303,-1.0303,-1.0303,-1.0332,-1.041,-1.0645,-1.0792,-1.087,-1.1426,-1.1689,-1.1709,-1.2171,-1.239,-1.2344,-1.1595,-1.0844,-1.0088,-0.9279,-0.8739,-0.8402,0.0,0.0,0.0,-0.9817,-1.0603,-1.1482,-1.2104,-1.3033,-1.4028,-1.4606,-1.5097,-1.5545,-1.5651,-1.5678,-1.5818,-1.646,-1.6493,-1.652,-1.7248,-1.738,-1.7172,-1.672,-1.6667,-1.6406,-1.5331,-1.5075,-1.4861,-1.4329,-1.4807,-1.5517,-1.6339,-1.7101,-1.7943,-1.8985,-1.9132,-1.9192,-1.941,-1.9424,-1.9424,-1.9424,-1.9424,-1.9424,-1.9424,-1.9424,-1.9424,-1.9424,-1.9424,-1.9424,-1.9424,-1.9424,-1.9424,-1.9424,-1.9424,-1.9424,-1.9424,-1.9424,-1.9424,-1.9424,-1.9424,-1.9424,-1.9424,-1.9424,-1.9424,-1.9444,-1.9626,-1.9753,-1.9826,-2.006,-2.0341,-2.0217,-1.6732,-1.5607,-1.5341,0.0,0.0,0.0,0.0,0.0,0.0,0.0,0.0,0.0,0.0,0.0,0.0,0.0,0.0,0.0,0.0,0.0,0.0,0.0,0.0,0.0,0.0,0.0,0.0,-1.0293,-1.0303,-1.0303,-1.0303,0.0,-1.0303,-1.0303,-1.0508,-1.0586,-1.0605,-1.1035,-1.1072,-1.0785,-1.0257,-0.9731,-0.9228,-0.8465,-0.8258,0.0,0.0,0.0,0.0,0.0,-1.0649,-1.1435,-1.1715,-1.2846,-1.4188,-1.4821,-1.5357,-1.5784,-1.5784,-1.5784,-1.5878,-1.6359,-1.638,-1.6413,-1.6981,-1.7192,-1.7005,-1.6199,-1.6139,-1.5919,-1.4794,-1.4553,-1.4422,-1.4135,-1.4689,-1.5371,-1.5932,-1.7034,-1.8016,-1.8584,-1.9072,-1.9424,-1.9424,-1.9424,-1.9424,-1.9424,-1.9424,-1.9424,-1.9424,-1.9424,-1.9424,-1.9424,-1.9424,-1.9424,-1.9424,-1.9424,-1.9424,-1.9424,-1.9424,-1.9424,-1.9424,-1.9424,-1.9424,-1.9424,-1.9424,-1.9424,-1.9424,-1.9424,-1.9452,-1.9599,-1.974,-1.998,-2.0274,-2.0408,-2.0071,-1.9222,-1.6658,-1.5247,-1.4166,0.0,0.0,0.0,0.0,0.0,0.0,0.0,0.0,-0.6856,-0.6548,-0.6503,-0.6745,-0.7368,-0.7451,0.0,0.0,0.0,0.0,0.0,0.0,0.0,0.0,0.0,0.0,0.0,0.0,0.0,-0.9983,-0.9962,0.0,0.0,0.0,0.0,0.0,-1.0293,-1.0187,-0.9771,-0.9224,-0.8917,0.0,0.0,-0.7852,0.0,0.0,0.0,0.0,0.0,-1.0508,-1.1142,-1.1329,-1.2438,-1.3808,-1.4402,-1.507,-1.5645,-1.5645,-1.5645,-1.5738,-1.6159,-1.6321,-1.6359,-1.6714,-1.7025,-1.6911,-1.5745,-1.5665,-1.5498,-1.4329,-1.4088,-1.4088,-1.4088,-1.4649,-1.5177,-1.5364,-1.662,-1.7622,-1.7983,-1.8691,-1.9283,-1.9352,-1.9424,-1.9424,-1.9424,-1.9424,-1.9424,-1.9424,-1.9424,-1.9424,-1.9424,-1.9424,-1.9424,-1.9424,-1.9424,-1.9424,-1.9424,-1.9424,-1.9424,-1.9424,-1.9424,-1.9424,-1.9424,-1.9424,-1.9424,-1.943,-1.9432,-1.9593,-1.9813,-1.9933,-2.0261,-2.0681,-2.0742,-1.9877,-1.8314,-1.6565,-1.4814,-1.3062,0.0,0.0,0.0,0.0,0.0,0.0,0.0,0.0,-0.6548,-0.6503,-0.6503,-0.6533,-0.6609,-0.6609,0.0,0.0,0.0,0.0,0.0,0.0,0.0,0.0,0.0,0.0,0.0,0.0,0.0,-0.8937,-0.8867,0.0,0.0,0.0,0.0,0.0,0.0,-0.8867,-0.8786,-0.826,0.0,0.0,0.0,0.0,0.0,0.0,0.0,0.0,0.0,-0.9947,-1.033,-1.1122,-1.1855,-1.2572,-1.318,-1.4142,-1.5089,-1.5089,-1.5089,-1.5269,-1.6094,-1.6321,-1.6455,-1.7018,-1.7186,-1.6965,-1.5999,-1.5764,-1.5498,-1.4329,-1.4088,-1.4088,-1.4088,-1.4155,-1.4469,-1.5264,-1.5752,-1.6457,-1.7802,-1.835,-1.8771,-1.9305,-1.9424,-1.9424,-1.9424,-1.9424,-1.9424,-1.9424,-1.9424,-1.9424,-1.9424,-1.9424,-1.9424,-1.9424,-1.9424,-1.9424,-1.9424,-1.9424,-1.9424,-1.9424,-1.9424,-1.9424,-1.9424,-1.9424,-1.9424,-1.9379,-1.9646,-1.9773,-1.984,-2.0374,-2.0628,-2.0702,-2.0962,-1.9979,-1.8314,-1.6565,-1.4814,-1.3062,0.0,0.0,0.0,0.0,0.0,0.0,0.0,-0.6137,-0.6052,-0.5812,-0.5781,-0.5874,-0.6106,-0.5913,0.0,0.0,0.0,0.0,0.0,0.0,0.0,0.0,0.0,0.0,0.0,0.0,-0.819,-0.819,-0.8343,0.0,0.0,0.0,0.0,0.0,0.0,-0.8521,-0.8201,-0.7995,0.0,0.0,0.0,0.0,0.0,0.0,0.0,0.0,0.0,0.0,-1.0221,-1.0929,-1.167,-1.2311,-1.2385,-1.31,-1.4048,-1.48,-1.5008,-1.5162,-1.5818,-1.6139,-1.6422,-1.678,-1.6797,-1.6536,-1.5952,-1.5558,-1.5077,-1.4255,-1.4088,-1.4088,-1.4088,-1.4088,-1.4255,-1.4783,-1.5411,-1.6099,-1.6867,-1.7856,-1.8577,-1.8811,-1.9152,-1.9424,-1.9424,-1.9424,-1.9424,-1.9424,-1.9424,-1.9424,-1.9424,-1.9424,-1.9424,-1.9424,-1.9424,-1.9424,-1.9424,-1.9424,-1.9424,-1.9424,-1.9424,-1.9424,-1.9424,-1.9424,-1.9424,-1.9379,-1.9673,-1.99,-2.0094,-2.0508,-2.0782,-2.0949,-2.1062,-1.9413,-1.6818,-1.6172,-1.4101,-1.1633,0.0,0.0,0.0,0.0,0.0,0.0,-0.5765,-0.5719,-0.5617,-0.534,-0.5293,-0.5404,-0.5688,-0.5467,-0.5522,-0.6098,0.0,0.0,0.0,0.0,0.0,0.0,0.0,0.0,0.0,0.0,-0.7554,-0.7624,-0.7763,-0.7851,0.0,0.0,-0.8206,-0.8206,0.0,0.0,0.0,0.0,0.0,0.0,0.0,0.0,0.0,0.0,0.0,0.0,0.0,0.0,0.0,0.0,0.0,-1.1693,-1.1832,-1.2365,-1.314,-1.4148,-1.4569,-1.4874,-1.5411,-1.5979,-1.6446,-1.6653,-1.6553,-1.6299,-1.5871,-1.5384,-1.4841,-1.4208,-1.4088,-1.4088,-1.4088,-1.4088,-1.4182,-1.4476,-1.5117,-1.5738,-1.6206,-1.7248,-1.8029,-1.8196,-1.8591,-1.8911,-1.9149,-1.9323,-1.9424,-1.9424,-1.9424,-1.9424,-1.9424,-1.9424,-1.9424,-1.9424,-1.9424,-1.9424,-1.9424,-1.9424,-1.9424,-1.9424,-1.9424,-1.9424,-1.9424,-1.9424,-1.9412,-1.9512,-1.9806,-2.0094,-2.0388,-2.0681,-2.0922,-2.1109,-2.1109,-1.896,-1.5913,-1.5913,-1.3709,-1.0721,0.0,0.0,0.0,0.0,0.0,0.0,0.0,-0.5316,-0.5316,-0.5293,-0.5293,-0.5293,-0.5316,-0.5293,-0.5293,-0.5309,0.0,0.0,0.0,0.0,0.0,0.0,0.0,0.0,0.0,0.0,-0.6952,-0.7204,-0.7073,-0.7014,-0.7014,-0.7021,-0.7021,-0.7021,0.0,0.0,0.0,0.0,0.0,0.0,0.0,0.0,0.0,0.0,0.0,0.0,0.0,0.0,0.0,0.0,0.0,0.0,0.0,-1.2107,-1.2432,-1.3046,-1.3641,-1.4229,-1.4861,-1.5818,-1.67,-1.6707,-1.67,-1.6547,-1.5959,-1.5384,-1.4841,-1.4208,-1.4088,-1.4088,-1.4088,-1.4088,-1.4182,-1.4476,-1.4776,-1.5323,-1.6201,-1.6533,-1.6941,-1.7522,-1.7595,-1.7836,-1.8437,-1.9025,-1.9424,-1.9424,-1.9424,-1.9424,-1.9424,-1.9424,-1.9424,-1.9424,-1.9424,-1.9424,-1.9424,-1.9424,-1.9424,-1.9424,-1.9424,-1.9424,-1.9424,-1.9424,-1.9519,-1.9813,-2.01,-2.0394,-2.0695,-2.0989,-2.1109,-2.1109,-2.1109,-1.896,-1.5913,-1.5913,-1.3709,-1.0721,0.0,0.0,0.0,0.0,0.0,0.0,0.0,0.0,-0.5293,-0.5293,-0.5293,-0.5293,-0.5293,-0.5293,-0.5293,-0.5293,0.0,0.0,0.0,0.0,0.0,0.0,0.0,0.0,0.0,0.0,-0.6433,-0.6511,-0.6659,-0.6727,-0.6727,-0.6906,-0.7,-0.7,-0.7,-0.7,0.0,0.0,0.0,0.0,0.0,0.0,-0.7237,0.0,0.0,0.0,0.0,0.0,0.0,0.0,0.0,0.0,0.0,0.0,0.0,-1.2532,-1.3153,-1.3873,-1.4502,-1.5224,-1.5812,-1.5812,-1.5665,-1.5471,-1.5284,-1.4783,-1.4315,-1.4128,-1.4088,-1.4088,-1.4088,-1.4088,-1.4249,-1.4743,-1.4948,-1.5197,-1.5879,-1.674,-1.7375,-1.7562,-1.8303,-1.8934,-1.9072,-1.9316,-1.9424,-1.9424,-1.9424,-1.9424,-1.9424,-1.9424,-1.9424,-1.9424,-1.9424,-1.9424,-1.9424,-1.9424,-1.9424,-1.9424,-1.9424,-1.9424,-1.9424,-1.9424,-1.9526,-1.9813,-2.0107,-2.0401,-2.0702,-2.0989,-2.0392,-1.9349,-1.9349,-1.7211,-1.4101,-1.4101,-1.2672,-1.0721,0.0,0.0,0.0,0.0,0.0,0.0,0.0,0.0,-0.5293,-0.5293,-0.5293,-0.5293,-0.5293,-0.5135,-0.5039,-0.5039,0.0,0.0,0.0,0.0,0.0,0.0,0.0,0.0,0.0,-0.5717,-0.5771,-0.5868,-0.6032,-0.611,-0.6116,-0.628,-0.6359,-0.6359,-0.6359,-0.6359,0.0,0.0,0.0,0.0,0.0,0.0,-0.6445,0.0,0.0,0.0,0.0,0.0,0.0,0.0,0.0,0.0,0.0,0.0,0.0,0.0,-1.2031,-1.2486,-1.3795,-1.4776,-1.5398,-1.5398,-1.5177,-1.5008,-1.5008,-1.4509,-1.4088,-1.4088,-1.4088,-1.4088,-1.4088,-1.4088,-1.4282,-1.4914,-1.5008,-1.529,-1.6046,-1.6787,-1.7335,-1.7555,-1.8444,-1.9038,-1.9038,-1.9296,-1.9424,-1.9424,-1.9424,-1.9424,-1.9424,-1.9424,-1.9424,-1.9424,-1.9424,-1.9424,-1.9424,-1.9424,-1.9424,-1.9424,-1.9424,-1.9424,-1.943,-1.9479,-1.9686,-1.998,-2.0274,-2.0568,0.0,-2.1036,-2.0068,-1.8506,-1.8506,-1.6366,-1.3325,-1.3325,-1.2219,-1.0721,0.0,0.0,0.0,0.0,0.0,0.0,0.0,0.0,0.0,0.0,0.0,-0.5246,-0.5246,-0.4842,0.0,0.0,0.0,0.0,0.0,0.0,0.0,0.0,0.0,0.0,0.0,-0.4923,-0.5059,-0.5303,-0.5303,-0.5303,-0.5303,-0.5303,-0.5303,-0.5303,-0.5303,-0.5303,0.0,0.0,0.0,0.0,0.0,0.0,0.0,0.0,0.0,0.0,0.0,0.0,0.0,0.0,0.0,0.0,0.0,0.0,0.0,0.0,0.0,0.0,0.0,-1.4319,-1.5206,-1.5304,-1.5097,-1.4948,-1.4948,-1.4519,0.0,-1.4088,-1.4088,-1.4088,-1.4088,-1.4108,-1.4302,-1.4914,-1.5028,-1.5444,-1.6547,-1.678,-1.7041,-1.7609,-1.8196,-1.8544,-1.8524,-1.9038,-1.9424,-1.9424,-1.9424,-1.9424,-1.9424,-1.9424,-1.9424,-1.9424,-1.9424,-1.9424,-1.9424,-1.9424,-1.9424,-1.9424,-1.9424,-1.9424,-1.9437,-1.9666,-1.996,-2.0247,-2.0548,-2.0842,-2.1109,-2.1109,-2.0005,-1.8314,-1.8314,-1.6172,-1.3128,-1.3128,-1.2088,-1.0721,0.0,0.0,0.0,0.0,0.0,0.0,0.0,0.0,0.0,0.0,0.0,-0.4762,-0.4762,-0.4393,0.0,0.0,0.0,0.0,0.0,0.0,0.0,0.0,0.0,0.0,0.0,-0.5206,-0.5231,-0.5303,-0.5303,-0.5303,-0.5303,-0.5303,-0.5303,-0.5303,-0.5303,-0.5303,-0.5265,0.0,0.0,0.0,0.0,0.0,0.0,0.0,0.0,0.0,-0.6865,-0.6374,0.0,0.0,0.0,0.0,0.0,0.0,0.0,0.0,-1.0013,-1.046,-1.1893,0.0,-1.3268,-1.4166,-1.4342,-1.4289,0.0,-1.4188,-1.4088,-1.4088,-1.4088,-1.4088,-1.4088,-1.4269,-1.4536,-1.4948,-1.515,-1.5625,-1.6573,-1.7495,-1.8203,-1.8564,-1.8938,-1.9072,-1.8844,-1.9152,-1.9424,-1.9424,-1.9424,-1.9424,-1.9424,-1.9424,-1.9424,-1.9424,-1.9424,-1.9424,-1.9424,-1.9424,-1.9424,-1.9424,-1.9424,-1.9424,-1.9437,-1.9666,-1.996,-2.0247,-2.0548,-2.0842,-2.1109,-2.1109,-1.9285,-1.6501,-1.6501,-1.4362,-1.1306,-1.1306,-1.1045,-1.0721,0.0,0.0,0.0,0.0,0.0,0.0,0.0,0.0,0.0,0.0,0.0,0.0,0.0,0.0,0.0,0.0,0.0,0.0,0.0,0.0,0.0,0.0,0.0,0.0,-0.4508,-0.4508,-0.4508,-0.4508,-0.4508,-0.4508,-0.4508,-0.4508,-0.4508,-0.4508,-0.4508,-0.4508,-0.4495,-0.4241,-0.4115,0.0,-0.4306,0.0,0.0,0.0,0.0,0.0,-0.5877,-0.5732,0.0,-0.6049,-0.6495,-0.671,0.0,0.0,0.0,0.0,-0.8805,-0.897,-1.0795,-1.1798,-1.2589,-1.3779,-1.4088,-1.4088,-1.4088,-1.4088,-1.4088,-1.4088,-1.4195,-1.4282,-1.4282,-1.4743,-1.513,-1.5157,-1.5792,-1.6413,-1.7021,-1.7662,-1.8237,-1.8677,-1.8865,-1.9005,-1.9118,-1.9272,-1.9424,-1.9424,-1.9424,-1.9424,-1.9424,-1.9424,-1.9424,-1.9424,-1.9424,-1.9424,-1.9424,-1.9424,-1.9424,-1.9424,-1.9424,-1.9424,-1.9379,-1.9806,-2.0087,-2.0261,-2.0688,-2.0962,-2.1046,-2.0259,-1.8314,-1.5848,-1.5009,-1.3062,-1.0721,-1.0721,-1.0721,-1.0721,0.0,0.0,0.0,0.0,0.0,0.0,0.0,0.0,0.0,0.0,0.0,0.0,0.0,0.0,0.0,0.0,0.0,0.0,0.0,0.0,0.0,0.0,0.0,-0.3604,-0.3604,-0.3604,-0.3604,-0.3604,-0.3604,-0.3604,-0.3604,-0.3604,-0.3614,-0.3634,-0.3658,-0.3668,-0.3679,-0.3775,-0.3826,-0.3839,-0.3967,0.0,0.0,0.0,0.0,0.0,0.0,0.0,0.0,-0.5562,-0.5803,-0.5996,-0.602,0.0,0.0,0.0,0.0,0.0,-0.969,-1.1219,-1.2428,-1.3538,-1.3955,-1.4088,-1.4088,-1.4088,-1.4095,-1.4142,-1.4349,-1.4563,-1.4652,-1.5291,-1.5712,-1.5558,-1.6529,-1.7387,-1.7675,-1.7796,-1.8029,-1.8504,-1.8597,-1.8804,-1.9259,-1.9339,-1.9424,-1.9424,-1.9424,-1.9424,-1.9424,-1.9424,-1.9424,-1.9424,-1.9424,-1.9424,-1.9424,-1.9424,-1.9424,-1.9424,-1.9424,-1.945,-1.9511,-1.9987,-2.0261,-2.0334,-2.0875,-2.1109,-2.0976,-1.9221,-1.7468,-1.5724,-1.397,-1.2219,-1.0721,-1.0721,-1.0721,-1.0721,0.0,0.0,0.0,0.0,0.0,0.0,0.0,0.0,0.0,0.0,0.0,0.0,0.0,0.0,0.0,0.0,0.0,0.0,0.0,0.0,0.0,0.0,-0.3604,-0.3604,-0.3604,-0.3604,-0.3604,-0.3604,-0.3604,-0.3604,-0.3604,-0.3604,-0.3665,-0.3765,-0.3894,-0.3927,-0.3927,-0.395,-0.396,-0.3974,-0.4126,0.0,0.0,0.0,0.0,0.0,0.0,0.0,0.0,-0.5677,-0.5884,-0.6016,-0.6183,0.0,0.0,0.0,0.0,0.0,-0.8744,-1.0356,-1.1801,-1.2439,-1.3336,-1.4088,-1.4088,-1.4088,-1.4155,-1.4402,-1.4489,-1.4743,-1.5445,-1.5538,-1.5611,-1.6114,-1.6965,-1.7709,-1.827,-1.8778,-1.9032,-1.8878,-1.9078,-1.9172,-1.9011,-1.9219,-1.9424,-1.9424,-1.9424,-1.9424,-1.9424,-1.9424,-1.9424,-1.9424,-1.9424,-1.9424,-1.9424,-1.9424,-1.9424,-1.9424,-1.9424,-1.9499,-1.9746,-2.008,-2.0368,-2.0628,-2.0962,-2.1109,-2.0976,-1.9221,-1.7468,-1.5724,-1.397,-1.2219,-1.0721,-1.0721,-1.0721,-1.0721,0.0,0.0,0.0,0.0,0.0,0.0,0.0,0.0,0.0,0.0,0.0,0.0,0.0,0.0,0.0,0.0,0.0,0.0,0.0,0.0,0.0,-0.3604,-0.3604,-0.3604,-0.3604,-0.3604,-0.3604,-0.3604,-0.3604,-0.3641,-0.372,-0.3778,-0.3853,-0.3917,-0.3964,-0.3994,-0.4001,-0.4082,-0.4115,-0.4132,0.0,0.0,0.0,0.0,0.0,0.0,0.0,0.0,0.0,0.0,-0.5901,-0.602,-0.6252,0.0,0.0,0.0,0.0,0.0,-0.7627,-0.8937,-1.0389,-1.1577,-1.346,-1.503,-1.503,-1.503,-1.5023,-1.4997,-1.5117,-1.5398,-1.5965,-1.6346,-1.6881,-1.7796,-1.7742,-1.7796,-1.8404,-1.8444,-1.847,-1.8664,-1.8811,-1.8965,-1.9145,-1.9285,-1.9424,-1.9424,-1.9424,-1.9424,-1.9424,-1.9424,-1.9424,-1.9424,-1.9424,-1.9424,-1.9424,-1.9424,-1.9424,-1.9424,-1.9424,-1.9519,-1.9813,-2.01,-2.0394,-2.0688,-2.0982,-2.1109,-2.0912,-1.818,-1.663,-1.5654,-1.2935,-1.1439,-1.0721,-1.0721,-1.0721,-1.0721,0.0,0.0,0.0,0.0,0.0,0.0,0.0,0.0,0.0,0.0,0.0,0.0,0.0,0.0,0.0,0.0,0.0,0.0,0.0,0.0,-0.3534,-0.3398,-0.3534,-0.3604,-0.3604,-0.3604,-0.3617,-0.3651,-0.3651,-0.3726,-0.3846,-0.3977,-0.4048,-0.4048,-0.4107,-0.4124,-0.4131,-0.4223,-0.4271,-0.4281,0.0,0.0,0.0,0.0,0.0,0.0,0.0,0.0,0.0,0.0,0.0,0.0,0.0,0.0,0.0,-0.647,-0.658,-0.6732,-0.6846,-0.7996,-0.9486,-1.1096,-1.3268,-1.5106,-1.567,-1.5724,-1.5725,-1.5705,-1.5932,-1.6233,-1.6576,-1.7128,-1.7883,-1.8854,-1.8297,-1.8009,-1.8611,-1.8297,-1.817,-1.8644,-1.8698,-1.8871,-1.9383,-1.9424,-1.9424,-1.9424,-1.9424,-1.9424,-1.9424,-1.9424,-1.9424,-1.9424,-1.9424,-1.9424,-1.9424,-1.9424,-1.9424,-1.9424,-1.9432,-1.9619,-1.9913,-2.0201,-2.0494,-2.0795,-2.1009,-2.1109,-2.0849,-1.7339,-1.5913,-1.5524,-1.2088,-1.0721,-1.0721,-1.0721,-1.0721,-1.0721,0.0,0.0,0.0,0.0,0.0,0.0,0.0,0.0,0.0,0.0,0.0,0.0,0.0,0.0,0.0,0.0,0.0,0.0,0.0,0.0,-0.335,-0.2785,-0.3306,-0.3604,-0.3604,-0.3604,-0.3668,-0.3775,-0.3775,-0.3853,-0.3984,-0.4136,-0.418,-0.4184,-0.4372,-0.4457,-0.4457,-0.447,-0.4474,-0.4474,-0.4487,0.0,0.0,0.0,0.0,0.0,0.0,0.0,0.0,0.0,0.0,0.0,0.0,0.0,-0.6327,-0.647,-0.658,-0.6732,-0.6846,-0.8298,-1.0002,-1.1217,-1.201,-1.3136,-1.5291,-1.5618,-1.5651,-1.6446,-1.6847,-1.7192,-1.7435,-1.7542,-1.7609,-1.7695,-1.8116,-1.8631,-1.9219,-1.9323,-1.931,-1.9357,-1.9363,-1.9377,-1.9424,-1.9424,-1.9424,-1.9424,-1.9424,-1.9424,-1.9424,-1.9424,-1.9424,-1.9424,-1.9424,-1.9424,-1.9424,-1.9424,-1.9424,-1.943,-1.9639,-1.992,-2.0153,-2.0508,-2.0802,-2.1082,-2.1096,-2.1109,-2.0849,-1.7339,-1.5913,-1.5524,-1.2088,-1.0721,-1.0721,-1.0721,-1.0721,-1.0721,0.0,0.0,0.0,0.0,0.0,0.0,0.0,0.0,0.0,0.0,0.0,0.0,0.0,0.0,0.0,0.0,0.0,0.0,0.0,0.0,-0.2943,-0.2719,-0.2566,-0.2485,-0.2481,-0.2853,-0.2871,-0.256,-0.2639,-0.295,-0.3436,-0.3583,-0.396,-0.4524,-0.4579,-0.4657,-0.4748,-0.4748,-0.4748,-0.4748,-0.4748,-0.4779,0.0,0.0,0.0,0.0,0.0,0.0,0.0,0.0,-0.5942,-0.6135,-0.6269,-0.63,-0.631,-0.6364,-0.6512,-0.6712,-0.677,-0.7579,-0.8936,-1.0997,-1.1654,-1.2577,-1.5648,-1.6433,-1.6526,-1.6673,-1.7241,-1.7682,-1.7595,-1.819,-1.8571,-1.821,-1.8651,-1.9112,-1.939,-1.9424,-1.9424,-1.9424,-1.9424,-1.9424,-1.9424,-1.9424,-1.9424,-1.9424,-1.9424,-1.9424,-1.9424,-1.9424,-1.9424,-1.9424,-1.9424,-1.9424,-1.9424,-1.9424,-1.9459,-1.9639,-1.9746,-1.9953,-2.018,-2.0541,-2.0835,-2.1109,-2.1109,-2.1109,-2.0849,-1.7339,-1.5913,-1.5524,-1.2088,-1.0721,-1.0721,-1.0721,-1.0721,-1.0721,0.0,0.0,0.0,0.0,0.0,0.0,0.0,0.0,0.0,0.0,0.0,0.0,0.0,0.0,0.0,0.0,0.0,0.0,0.0,-0.2655,-0.2339,-0.214,-0.192,-0.1615,-0.1235,-0.1824,-0.2043,-0.1871,-0.1993,-0.2333,-0.2825,-0.3223,-0.3749,-0.4372,-0.4644,-0.4819,-0.4887,-0.4887,-0.4887,-0.4887,-0.4887,-0.4914,0.0,0.0,0.0,0.0,0.0,0.0,0.0,0.0,-0.5976,-0.6122,-0.6265,-0.63,-0.631,-0.6354,-0.6569,-0.6851,-0.6898,-0.7593,-0.8847,-1.1091,-1.1921,-1.2995,-1.6158,-1.7052,-1.7226,-1.7255,-1.7762,-1.8123,-1.7909,-1.8537,-1.8958,-1.8557,-1.8985,-1.9424,-1.9424,-1.9424,-1.9424,-1.9424,-1.9424,-1.9424,-1.9424,-1.9424,-1.9424,-1.9424,-1.9424,-1.9424,-1.9424,-1.9424,-1.9424,-1.9424,-1.9424,-1.9424,-1.9424,-1.9459,-1.9606,-1.9806,-1.9987,-2.018,-2.0381,-2.0675,-2.0922,-2.1109,-2.1109,-2.1109,-2.0849,-1.7339,-1.5265,-1.4036,-1.1633,-1.0721,-1.0721,-1.0721,-1.0721,-1.0721,0.0,0.0,0.0,0.0,0.0,0.0,0.0,0.0,0.0,0.0,0.0,0.0,0.0,0.0,0.0,0.0,0.0,0.0,0.0,-0.1786,-0.1518,-0.0918,-0.1465,-0.1212,-0.0024,-0.0591,-0.1251,-0.1994,-0.2115,-0.2186,-0.2198,-0.3137,-0.3609,-0.3625,-0.4519,-0.4891,-0.4891,-0.4891,-0.4891,-0.4891,-0.4891,-0.4975,-0.51,0.0,0.0,0.0,0.0,0.0,0.0,0.0,-0.6132,-0.63,-0.63,-0.63,-0.6327,-0.647,-0.6787,-0.7125,-0.7326,-0.8555,-1.014,-1.1545,-1.2793,-1.432,-1.6678,-1.7206,-1.746,-1.8317,-1.8497,-1.849,-1.849,-1.8497,-1.8497,-1.849,-1.8985,-1.9424,-1.9424,-1.9424,-1.9424,-1.9424,-1.9424,-1.9424,-1.9424,-1.9424,-1.9424,-1.9424,-1.9424,-1.9424,-1.9424,-1.9424,-1.9424,-1.9424,-1.9424,-1.9424,-1.9424,-1.9659,-1.98,-1.9813,-2.0394,-2.0675,-2.0688,-2.0975,-2.1109,-2.1109,-2.1109,-2.1109,-2.0849,-1.7339,-1.384,-1.0721,-1.0721,-1.0721,-1.0721,-1.0721,-1.0721,-1.0721,0.0,0.0,0.0,0.0,0.0,0.0,0.0,0.0,0.0,0.0,0.0,0.0,0.0,0.0,0.0,0.0,0.0,0.0,0.0,-0.1407,-0.1088,-0.091,-0.0663,-0.0367,0.0,-0.0162,-0.0387,-0.0607,-0.0628,-0.0931,-0.1438,-0.24,-0.314,-0.3765,-0.4653,-0.5128,-0.5262,-0.5262,-0.5262,-0.5262,-0.5262,-0.5286,-0.5324,0.0,0.0,0.0,0.0,0.0,0.0,0.0,0.0,0.0,-0.63,-0.63,-0.6327,-0.647,-0.6644,-0.6865,-0.7017,-0.8555,-1.0338,-1.1343,-1.3132,-1.5077,-1.6805,-1.736,-1.7822,-1.8878,-1.8778,-1.849,-1.849,-1.8831,-1.8971,-1.8557,-1.8985,-1.9424,-1.9424,-1.9424,-1.9424,-1.9424,-1.9424,-1.9424,-1.9424,-1.9424,-1.9424,-1.9424,-1.9424,-1.9424,-1.9424,-1.9424,-1.9424,-1.9424,-1.9424,-1.9424,-1.9424,-1.9659,-1.99,-2.0107,-2.0494,-2.0675,-2.0688,-2.0975,-2.1109,-2.1109,-2.1109,-2.1109,-2.0849,-1.7339,-1.384,-1.0721,-1.0721,-1.0721,-1.0721,-1.0721,-1.0721,-1.0721,0.0,0.0,0.0,0.0,0.0,0.0,0.0,0.0,0.0,0.0,0.0,0.0,0.0,0.0,0.0,0.0,0.0,0.0,0.0,0.0,-0.0538,-0.0536,-0.0198,0.0,0.0,0.0,0.0,0.0,0.0,-0.0238,-0.0672,-0.1583,-0.251,-0.3389,-0.4272,-0.4941,-0.5395,-0.5395,-0.5395,-0.5399,-0.5463,-0.5487,-0.5491,0.0,0.0,0.0,0.0,0.0,0.0,0.0,0.0,0.0,-0.63,-0.6337,-0.6436,-0.6661,-0.6848,-0.7051,-0.7441,-0.926,-1.1283,-1.2017,-1.4077,-1.6179,-1.7437,-1.7903,-1.835,-1.9199,-1.9085,-1.8838,-1.8838,-1.9132,-1.931,-1.8898,-1.9138,-1.9424,-1.9424,-1.9424,-1.9424,-1.9424,-1.9424,-1.9424,-1.9424,-1.9424,-1.9424,-1.9424,-1.9424,-1.9424,-1.9424,-1.9424,-1.9424,-1.9424,-1.9424,-1.9419,-1.9539,-1.9826,-2.012,-2.0414,-2.0708,-2.0848,-2.0855,-2.1029,-2.1109,-2.1109,-2.1109,-2.0329,-1.8896,-1.6759,-1.384,-1.0721,-1.0721,-1.0721,-1.0721,-1.0721,-1.0721,-1.0721,0.0,0.0,0.0,0.0,0.0,0.0,0.0,0.0,0.0,0.0,0.0,0.0,0.0,0.0,0.0,0.0,0.0,0.0,0.0,0.0,0.0,0.0,0.0,0.0,0.0,0.0,0.0,0.0,0.0,0.0,-0.0032,-0.0969,-0.19,-0.2755,-0.3727,-0.4612,-0.5436,-0.5436,-0.5436,-0.5446,-0.5552,-0.561,-0.5623,-0.5752,0.0,0.0,0.0,0.0,0.0,0.0,0.0,0.0,-0.632,-0.6419,-0.6576,-0.6953,-0.7241,-0.7569,-0.8414,-1.0476,-1.2608,-1.327,-1.5411,-1.7548,-1.8337,-1.8758,-1.9038,-1.9312,-1.9424,-1.9424,-1.9424,-1.9424,-1.9424,-1.9424,-1.9424,-1.9424,-1.9424,-1.9424,-1.9424,-1.9424,-1.9424,-1.9424,-1.9424,-1.9424,-1.9424,-1.9424,-1.9424,-1.9424,-1.9424,-1.9424,-1.9424,-1.9424,-1.9424,-1.9506,-1.98,-2.0087,-2.0381,-2.0681,-2.0969,-2.1109,-2.1109,-2.1109,-2.1109,-2.1109,-2.1109,-1.9094,-1.5913,-1.5913,-1.384,-1.0721,-1.0721,-1.0721,-1.0721,-1.0721,-1.0721,-1.0721,0.0,0.0,0.0,0.0,0.0,0.0,0.0,0.0,0.0,0.0,0.0,0.0,0.0,0.0,0.0,0.0,0.0,0.0,0.0,0.0,0.0,0.0,0.0,0.0,0.0,0.0,0.0,0.0,0.0,0.0,-0.0032,-0.1644,-0.256,-0.294,-0.4531,-0.5426,-0.5705,-0.5705,-0.5705,-0.5708,-0.5742,-0.5755,-0.5759,-0.5789,-0.5874,0.0,0.0,0.0,0.0,0.0,0.0,0.0,-0.6467,-0.6529,-0.6695,-0.6869,-0.7163,-0.7703,-0.9119,-1.1058,-1.3032,-1.4316,-1.6421,-1.831,-1.8738,-1.9058,-1.9292,-1.941,-1.9424,-1.9424,-1.9424,-1.9424,-1.9424,-1.9424,-1.9424,-1.9424,-1.9424,-1.9424,-1.9424,-1.9424,-1.9424,-1.9424,-1.9424,-1.9424,-1.9424,-1.9424,-1.9424,-1.9424,-1.9424,-1.9424,-1.9424,-1.9424,-1.9424,-1.9506,-1.98,-2.0087,-2.0381,-2.0681,-2.0969,-2.1109,-2.1109,-2.1109,-2.1109,-2.1109,-2.1109,-1.9094,-1.5913,-1.5913,-1.384,-1.0721,-1.0721,-1.0721,-1.0721,-1.0721,-1.0721,-1.0721,0.0,0.0,0.0,0.0,0.0,0.0,0.0,0.0,0.0,0.0,0.0,0.0,0.0,0.0,0.0,0.0,0.0,0.0,0.0,0.0,0.0,0.0,0.0,0.0,0.0,0.0,0.0,0.0,-0.0425,-0.0625,-0.0658,-0.1688,-0.2651,-0.3561,-0.4593,-0.5335,-0.58,-0.58,-0.58,-0.581,-0.5881,-0.5911,-0.5918,-0.5993,-0.6071,-0.6149,-0.6217,0.0,0.0,0.0,0.0,0.0,0.0,0.0,-0.6854,-0.7075,-0.7197,-0.7552,-0.884,-1.0861,-1.3222,-1.5799,-1.7486,-1.8564,-1.8858,-1.9152,-1.9424,-1.9424,-1.9424,-1.9424,-1.9424,-1.9424,-1.9424,-1.9424,-1.9424,-1.9424,-1.9424,-1.9424,-1.9424,-1.9424,-1.9424,-1.9424,-1.9424,-1.9424,-1.9424,-1.9424,-1.9424,-1.9424,-1.9424,-1.9424,-1.9424,-1.9424,-1.9499,-1.9713,-2.0007,-2.0301,-2.0595,-2.0882,-2.1036,-2.1109,-2.1109,-2.1109,-2.1109,-2.1109,-2.1109,-1.961,-1.7082,-1.6237,-1.4362,-1.1828,-1.1045,-1.0721,-1.0721,-1.0721,-1.0721,-1.0721,0.0,0.0,0.0,0.0,0.0,0.0,0.0,0.0,0.0,0.0,0.0,0.0,0.0,0.0,0.0,0.0,0.0,0.0,0.0,0.0,0.0,0.0,0.0,0.0,0.0,0.0,-0.0065,-0.0227,-0.0967,-0.1518,-0.1789,-0.197,-0.284,-0.4282,-0.4626,-0.5192,-0.5881,-0.5881,-0.5881,-0.5891,-0.6017,-0.6084,-0.6118,-0.6286,-0.6354,-0.6392,-0.6511,-0.6552,-0.6569,-0.6658,0.0,0.0,0.0,0.0,-0.697,-0.7258,-0.7278,-0.7426,-0.8424,-1.0792,-1.3762,-1.7229,-1.8343,-1.8644,-1.8931,-1.9192,-1.9424,-1.9424,-1.9424,-1.9424,-1.9424,-1.9424,-1.9424,-1.9424,-1.9424,-1.9424,-1.9424,-1.9424,-1.9424,-1.9424,-1.9424,-1.9424,-1.9424,-1.9424,-1.9424,-1.9424,-1.9424,-1.9424,-1.9424,-1.9424,-1.9424,-1.9424,-1.9646,-1.994,-2.0227,-2.0528,-2.0822,-2.1109,-2.1109,-2.1109,-2.1109,-2.1109,-2.1109,-2.1109,-2.1109,-2.0132,-1.8378,-1.663,-1.4879,-1.3128,-1.1372,-1.0721,-1.0721,-1.0721,-1.0721,-1.0721,0.0,0.0,0.0,0.0,0.0,0.0,0.0,0.0,0.0,0.0,0.0,0.0,0.0,0.0,0.0,0.0,0.0,0.0,0.0,0.0,0.0,0.0,0.0,0.0,0.0,0.0,-0.0368,-0.1133,-0.1406,-0.2326,-0.3818,-0.383,-0.4146,-0.4662,-0.5464,-0.5958,-0.6238,-0.6238,-0.6238,-0.6238,-0.6259,-0.634,-0.6457,-0.6477,0.0,-0.6644,-0.6664,-0.6671,-0.6671,-0.6695,-0.679,0.0,0.0,0.0,-0.7075,-0.7115,-0.7346,-0.784,-0.9224,-1.226,-1.5563,-1.7849,-1.8651,-1.8945,-1.9239,-1.9397,-1.9424,-1.9424,-1.9424,-1.9424,-1.9424,-1.9424,-1.9424,-1.9424,-1.9424,-1.9424,-1.9424,-1.9424,-1.9424,-1.9424,-1.9424,-1.9424,-1.9424,-1.9424,-1.9424,-1.9424,-1.9424,-1.9424,-1.9424,-1.9424,-1.9424,-1.9424,-1.9646,-1.994,-2.0227,-2.0528,-2.0822,-2.1109,-2.1109,-2.1109,-2.1109,-2.1109,-2.1109,-2.1109,-2.1109,-2.0132,-1.8378,-1.663,-1.4879,-1.3128,-1.1372,-1.0721,-1.0721,-1.0721,-1.0721,-1.0721,0.0,0.0,0.0,0.0,0.0,0.0,0.0,0.0,0.0,0.0,0.0,0.0,0.0,0.0,0.0,0.0,0.0,0.0,0.0,0.0,0.0,0.0,0.0,0.0,0.0,0.0,-0.0482,-0.1475,-0.2044,-0.2769,-0.361,-0.4703,-0.5274,-0.5464,-0.5967,0.0,0.0,-0.63,-0.6344,-0.6419,-0.6419,-0.6519,0.0,0.0,0.0,0.0,0.0,0.0,-0.6841,-0.6919,-0.695,-0.7004,-0.7004,0.0,0.0,0.0,-0.7189,-0.7731,-0.9543,-1.1427,-1.3572,-1.6508,-1.7428,-1.7881,-1.9118,-1.9424,-1.9424,-1.9424,-1.9424,-1.9424,-1.9424,-1.9424,-1.9424,-1.9424,-1.9424,-1.9424,-1.9424,-1.9424,-1.9424,-1.9424,-1.9424,-1.9424,-1.9424,-1.9424,-1.9424,-1.9424,-1.9424,-1.9424,-1.9424,-1.9424,-1.9424,-1.9424,-1.9806,-2.01,-2.0173,-2.0688,-2.0982,-2.1109,-2.1109,-2.1109,-2.1109,-2.1109,-2.1109,-2.1109,-2.1109,-2.0652,-1.9807,-1.8052,-1.6302,-1.4553,-1.2869,-1.1567,-1.0721,-1.0721,-1.0721,-1.0721,0.0,0.0,0.0,0.0,0.0,0.0,0.0,0.0,0.0,0.0,0.0,0.0,0.0,0.0,0.0,0.0,0.0,0.0,0.0,0.0,0.0,0.0,0.0,0.0,0.0,0.0,-0.0637,-0.194,-0.2354,-0.2999,-0.3847,-0.5115,-0.5873,-0.6146,-0.63,-0.6354,0.0,-0.6395,-0.6474,-0.6573,0.0,0.0,0.0,0.0,0.0,0.0,0.0,-0.7041,-0.7051,-0.7075,-0.7095,-0.7095,-0.7095,-0.7095,0.0,0.0,0.0,-0.7527,-0.9583,-1.0457,-1.1556,-1.4806,-1.6055,-1.6918,-1.8442,-1.9127,-1.9424,-1.9424,-1.9424,-1.9424,-1.9424,-1.9424,-1.9424,-1.9424,-1.9424,-1.9424,-1.9424,-1.9424,-1.9424,-1.9424,-1.9424,-1.9424,-1.9424,-1.9424,-1.9424,-1.9424,-1.9424,-1.9424,-1.9424,-1.9424,-1.9424,-1.9424,-1.9927,-2.0173,-2.0173,-2.0815,-2.1109,-2.1109,-2.1109,-2.1109,-2.1109,-2.1109,-2.1109,-2.1109,-2.1109,-2.1109,-2.0976,-1.9221,-1.7468,-1.5724,-1.397,-1.2219,-1.0721,-1.0721,-1.0721,-1.0721,0.0,0.0,0.0,0.0,0.0,0.0,0.0,0.0,0.0,0.0,0.0,0.0,0.0,0.0,0.0,0.0,0.0,0.0,0.0,0.0,0.0,0.0,0.0,0.0,0.0,0.0,-0.0944,-0.2827,-0.2047,-0.3086,-0.5847,-0.5255,-0.5485,-0.6487,-0.6497,-0.6501,-0.6511,0.0,0.0,0.0,0.0,0.0,0.0,0.0,0.0,0.0,0.0,-0.7395,-0.7326,-0.7142,-0.7095,-0.7095,-0.7095,-0.7095,-0.7095,0.0,0.0,0.0,-0.9472,-1.0215,-1.0961,-1.3286,-1.5183,-1.6639,-1.7031,-1.8286,-1.9424,-1.9424,-1.9424,-1.9424,-1.9424,-1.9424,-1.9424,-1.9424,-1.9424,-1.9424,-1.9424,-1.9424,-1.9424,-1.9424,-1.9424,-1.9424,-1.9424,-1.9424,-1.9424,-1.9424,-1.9424,-1.9424,-1.9424,-1.9424,-1.9424,-1.9424,-1.9927,-2.0173,-2.0173,-2.0815,-2.1109,-2.1109,-2.1109,-2.1109,-2.1109,-2.1109,-2.1109,-2.1109,-2.1109,-2.1109,-2.0976,-1.9221,-1.7468,-1.5724,-1.397,-1.2219,-1.0721,-1.0721,-1.0721,-1.0721,0.0,0.0,0.0,0.0,0.0,0.0,0.0,0.0,0.0,0.0,0.0,0.0,0.0,0.0,0.0,0.0,0.0,0.0,0.0,0.0,0.0,0.0,0.0,0.0,0.0,0.0,-0.0671,-0.2048,-0.1747,-0.253,-0.4263,-0.4689,-0.5172,-0.5621,-0.6327,-0.6617,-0.662,-0.6678,-0.6756,-0.6861,-0.6964,0.0,0.0,0.0,-0.7584,-0.7848,-0.7604,-0.7516,-0.7509,-0.7455,-0.726,-0.7095,-0.7095,-0.7095,-0.7095,-0.7095,-0.7095,-0.7324,-0.8295,-0.8743,-0.9369,-1.1491,-1.3497,-1.527,-1.6433,-1.809,-1.9424,-1.9424,-1.9424,-1.9424,-1.9424,-1.9424,-1.9424,-1.9424,-1.9424,-1.9424,-1.9424,-1.9424,-1.9424,-1.9424,-1.9424,-1.9424,-1.9424,-1.9424,-1.9424,-1.9424,-1.9424,-1.9424,-1.9424,-1.9424,-1.9424,-1.9424,-1.9927,-2.0414,-2.0788,-2.1002,-2.1109,-2.1109,-2.1109,-2.1109,-2.1109,-2.1109,-2.1109,-2.1109,-2.1109,-2.1109,-2.0976,-1.9221,-1.7468,-1.5724,-1.397,-1.2219,-1.0721,-1.0721,-1.0721,-1.0721,0.0,0.0,0.0,0.0,0.0,0.0,0.0,0.0,0.0,0.0,0.0,0.0,0.0,0.0,0.0,0.0,0.0,0.0,0.0,0.0,0.0,0.0,0.0,0.0,0.0,0.0,-0.0545,-0.1606,-0.1657,-0.2419,-0.385,-0.4694,-0.5291,-0.5759,-0.6577,-0.6871,-0.678,-0.6827,-0.6936,-0.7088,-0.7234,-0.7444,-0.7665,-0.7614,-0.778,-0.7965,-0.7818,-0.7746,-0.7746,-0.7746,-0.7564,-0.7378,-0.728,-0.7179,-0.7095,-0.7095,-0.7095,-0.7183,-0.7631,-0.7814,-0.8255,-0.9807,-1.1652,-1.3537,-1.5289,-1.7167,-1.8648,-1.9287,-1.9424,-1.9424,-1.9424,-1.9424,-1.9424,-1.9424,-1.9424,-1.9424,-1.9424,-1.9424,-1.9424,-1.9424,-1.9424,-1.9424,-1.9424,-1.9424,-1.9424,-1.9424,-1.9424,-1.9424,-1.9424,-1.9424,-1.9459,-1.9653,-2.0034,-2.0514,-2.1102,-2.1109,-2.1109,-2.1109,-2.1109,-2.1109,-2.1109,-2.1109,-2.1109,-2.1109,-2.1109,-2.1109,-2.0976,-1.9871,-1.7988,-1.5784,-1.4619,-1.2738,-1.0721,-1.0721,-1.0721,-1.0721,0.0,0.0,0.0,0.0,0.0,0.0,0.0,0.0,0.0,0.0,0.0,0.0,0.0,0.0,0.0,0.0,0.0,0.0,0.0,0.0,0.0,0.0,0.0,0.0,0.0,0.0,-0.0535,-0.1593,-0.172,-0.2851,-0.491,-0.5232,-0.5938,-0.6913,-0.7248,-0.7217,-0.6913,-0.7051,-0.7241,-0.7439,-0.755,-0.7695,-0.7834,-0.7938,-0.8002,-0.8008,-0.8005,-0.8002,-0.7995,-0.8002,-0.7992,-0.7928,-0.7689,0.0,0.0,0.0,0.0,-0.7176,0.0,0.0,0.0,-0.8326,-0.9795,-1.1617,-1.3577,-1.5392,-1.7225,-1.8932,-1.9359,-1.9424,-1.9424,-1.9424,-1.9424,-1.9424,-1.9424,-1.9424,-1.9424,-1.9424,-1.9424,-1.9424,-1.9424,-1.9424,-1.9424,-1.9424,-1.9424,-1.9424,-1.9424,-1.9424,-1.9424,-1.9424,-1.9633,-2.0201,-2.0227,-2.0508,-2.1089,-2.1109,-2.1109,-2.1109,-2.1109,-2.1109,-2.1109,-2.1109,-2.1046,-2.1046,-2.1046,-2.0982,-2.0976,-2.0976,-1.8896,-1.5848,-1.5789,-1.3713,-1.0721,-1.0721,-1.0721,-1.0721,0.0,0.0,0.0,0.0,0.0,0.0,0.0,0.0,0.0,0.0,0.0,0.0,0.0,0.0,0.0,0.0,0.0,0.0,0.0,0.0,0.0,0.0,0.0,0.0,0.0,0.0,-0.0585,-0.176,0.0,0.0,0.0,0.0,0.0,0.0,-0.7451,-0.7492,-0.7417,-0.7458,-0.7499,-0.756,-0.7814,-0.7891,-0.7944,-0.8147,-0.834,-0.8509,-0.8397,-0.8292,-0.8221,-0.8323,-0.8075,-0.7706,-0.7628,0.0,0.0,0.0,0.0,0.0,-0.7577,0.0,0.0,0.0,0.0,0.0,-1.1778,-1.442,-1.6821,-1.7365,-1.8494,-1.9424,-1.9424,-1.9424,-1.9424,-1.9424,-1.9424,-1.9424,-1.9424,-1.9424,-1.9424,-1.9424,-1.9424,-1.9424,-1.9424,-1.9424,-1.9424,-1.9424,-1.9424,-1.9424,-1.9424,-1.9424,-1.9539,-1.9907,-2.0127,-2.0414,-2.0795,-2.1002,-2.1109,-2.1109,-2.1109,-2.1109,-2.1109,-2.1109,-2.0392,-1.9221,-1.9221,-1.8506,-1.7339,-1.7339,-1.6048,-1.3905,-1.2606,-1.1567,-1.0721,-1.0721,-1.0721,-1.0721,0.0,0.0,0.0,0.0,0.0,0.0,0.0,0.0,0.0,0.0,0.0,0.0,0.0,0.0,0.0,0.0,0.0,0.0,0.0,0.0,0.0,0.0,0.0,0.0,0.0,0.0,0.0,0.0,0.0,0.0,0.0,0.0,0.0,0.0,0.0,0.0,-0.7692,-0.7756,-0.7746,-0.7709,-0.7894,-0.8029,-0.815,-0.8303,-0.8465,-0.8611,-0.8584,-0.8523,-0.8476,-0.8621,-0.8319,-0.7882,-0.7882,-0.7753,0.0,0.0,0.0,0.0,0.0,0.0,0.0,-0.7951,0.0,0.0,-1.1014,-1.3003,-1.486,-1.5638,-1.7217,-1.8169,-1.7519,-1.8473,-1.9185,-1.8525,-1.8946,-1.9424,-1.9424,-1.9424,-1.9424,-1.9424,-1.9424,-1.9424,-1.9424,-1.9424,-1.9424,-1.9424,-1.9424,-1.9424,-1.9424,-1.9424,-1.9499,-1.9786,-2.008,-2.0374,-2.0675,-2.0962,-2.1109,-2.1109,-2.1109,-2.1109,-2.1109,-2.1109,-2.0132,-1.8506,-1.8506,-1.7082,-1.4814,-1.4814,-1.4232,-1.3193,-1.2153,-1.1372,-1.0721,-1.0721,-1.0721,-1.0721,0.0,0.0,0.0,0.0,0.0,0.0,0.0,0.0,0.0,0.0,0.0,0.0,0.0,0.0,0.0,0.0,0.0,0.0,0.0,0.0,0.0,0.0,0.0,0.0,0.0,0.0,0.0,0.0,0.0,0.0,0.0,0.0,0.0,0.0,0.0,0.0,-0.7845,-0.7951,-0.7987,-0.7875,-0.7978,-0.817,-0.8364,-0.8472,-0.8533,-0.855,-0.8686,-0.8723,-0.8726,-0.8849,-0.8635,-0.8316,-0.8333,-0.8018,-0.7712,-0.7662,-0.7685,0.0,0.0,0.0,0.0,-0.7961,-0.8262,0.0,-1.0584,-1.1402,-1.2245,-1.3883,-1.5568,-1.6289,-1.5001,-1.7131,-1.8667,-1.7358,-1.8397,-1.939,-1.9366,-1.9424,-1.9424,-1.9424,-1.9424,-1.9424,-1.9424,-1.9424,-1.9424,-1.9424,-1.9424,-1.9424,-1.9424,-1.9424,-1.9486,-1.974,-2.0034,-2.0327,-2.0621,-2.0915,-2.1076,-2.1109,-2.1109,-2.0982,-2.0786,-2.0786,-1.9737,-1.7923,-1.7923,-1.6043,-1.2997,-1.2997,-1.2997,-1.2997,-1.2997,-1.2088,-1.0721,-1.0721,-1.0721,-1.0721,0.0,0.0,0.0,0.0,0.0,0.0,0.0,0.0,0.0,0.0,0.0,0.0,0.0,0.0,0.0,0.0,0.0,0.0,0.0,0.0,0.0,0.0,0.0,0.0,0.0,0.0,0.0,0.0,0.0,0.0,0.0,0.0,0.0,0.0,0.0,0.0,-0.7955,-0.816,-0.8208,-0.8194,-0.8336,-0.8414,-0.8472,-0.8747,-0.8849,-0.8797,-0.8828,-0.8815,-0.8696,-0.8604,-0.8594,-0.8584,-0.8347,-0.8374,-0.8421,-0.8008,-0.8208,-0.8421,-0.8035,-0.8085,-0.816,-0.8012,-0.8262,0.0,-0.8973,-1.0358,-1.1681,-1.2033,-1.3477,-1.4909,-1.5824,-1.6458,-1.7203,-1.8084,-1.8625,-1.9092,-1.9332,-1.9424,-1.9424,-1.9424,-1.9424,-1.9424,-1.9424,-1.9424,-1.9424,-1.9424,-1.9424,-1.9424,-1.9424,-1.9424,-1.9392,-1.9511,-1.9733,-2.0027,-2.0314,-2.0615,-2.0882,-2.1109,-2.1109,-2.0392,-1.9024,-1.9024,-1.7275,-1.4297,-1.4297,-1.3128,-1.124,-1.124,-1.124,-1.124,-1.124,-1.0979,-1.0721,-1.0721,-1.0721,-1.0721,0.0,0.0,0.0,0.0,0.0,0.0,0.0,0.0,0.0,0.0,0.0,0.0,0.0,0.0,0.0,0.0,0.0,0.0,0.0,0.0,-0.1806,0.0,0.0,0.0,0.0,0.0,0.0,0.0,0.0,0.0,0.0,0.0,0.0,0.0,0.0,0.0,-0.8265,-0.8343,-0.8377,-0.8387,-0.8537,-0.8598,-0.8621,-0.8797,-0.8885,-0.8885,-0.8885,-0.8834,-0.8811,-0.8733,-0.871,-0.8699,-0.8625,-0.8652,-0.8665,-0.8442,-0.8533,-0.8645,-0.8343,-0.8316,-0.834,-0.8191,-0.8377,0.0,0.0,-0.9534,-1.0348,-1.0436,-1.1762,-1.2908,-1.2847,-1.4117,-1.5277,-1.5905,-1.6968,-1.7897,-1.8442,-1.8991,-1.9424,-1.9424,-1.9424,-1.9424,-1.9424,-1.9424,-1.9424,-1.9424,-1.9424,-1.9424,-1.9424,-1.9424,-1.9424,-1.9424,-1.9646,-1.994,-2.0227,-2.0528,-2.0822,-2.1109,-2.0195,-1.9349,-1.8442,-1.7597,-1.5784,-1.3325,-1.3325,-1.2285,-1.0721,-1.0721,-1.0721,-1.0721,-1.0721,-1.0721,-1.0721,-1.0721,-1.0721,-1.0721,-0.0534,0.0,0.0,0.0,0.0,0.0,0.0,0.0,0.0,0.0,0.0,0.0,0.0,0.0,0.0,0.0,0.0,0.0,0.0,-0.3673,-0.3659,-0.3659,0.0,-0.3824,0.0,0.0,0.0,0.0,0.0,0.0,0.0,0.0,0.0,-0.8323,0.0,0.0,-0.8482,-0.8513,-0.8526,-0.854,-0.8693,-0.8737,-0.8726,-0.8824,-0.8885,-0.8888,-0.8971,-0.8981,-0.8981,-0.8981,-0.8896,-0.8808,-0.8872,-0.8869,-0.8825,-0.8737,-0.8771,-0.8794,-0.8581,-0.8526,-0.8489,-0.8347,-0.8513,-0.871,0.0,0.0,0.0,-0.9225,-1.03,-1.0835,-0.9827,-1.1655,-1.3302,-1.3356,-1.4982,-1.646,-1.7099,-1.8298,-1.9112,-1.9105,-1.9259,-1.9345,-1.9285,-1.9279,-1.9305,-1.9424,-1.9319,-1.9305,-1.9424,-1.9424,-1.9424,-1.9424,-1.9593,-1.986,-2.0147,-2.0441,-2.0735,-2.1029,-1.9324,-1.8314,-1.7923,-1.6172,-1.4423,-1.2804,-1.2804,-1.2022,-1.0721,-1.0721,-1.0721,-1.0721,-1.0721,-1.0721,-1.0721,-1.0721,-1.0721,-1.0721,-0.2412,-0.1936,0.0,0.0,0.0,0.0,0.0,0.0,0.0,0.0,0.0,-0.3377,-0.3377,-0.3467,-0.3602,0.0,-0.3762,-0.3807,-0.3948,-0.3955,0.0,0.0,-0.396,-0.4483,-0.5529,0.0,0.0,0.0,0.0,0.0,0.0,0.0,0.0,-0.8323,-0.8323,-0.835,-0.8489,-0.8625,-0.8682,-0.8699,-0.8797,-0.8832,-0.8726,-0.8824,-0.8885,-0.8898,-0.9083,-0.9183,-0.9183,-0.9183,-0.9173,-0.9115,-0.8811,-0.8998,-0.9225,-0.8828,-0.8994,-0.9215,-0.8798,-0.8682,-0.8648,-0.8496,-0.8584,-0.871,-0.871,0.0,-0.8764,-0.8784,0.0,-0.9213,-1.0355,0.0,0.0,-1.2667,-1.4277,-1.5458,-1.5784,-1.7169,-1.8135,-1.817,-1.8878,-1.9265,-1.8998,-1.8978,-1.9085,-1.941,-1.9125,-1.9092,-1.9352,-1.9424,-1.9424,-1.9424,-1.9457,-1.9553,-1.9846,-2.0134,-2.0434,-2.0728,-1.9239,-1.7667,-1.6113,-1.4362,-1.2606,-1.0979,-1.0979,-1.085,-1.0721,-1.0721,-1.0721,-1.0721,-1.0721,-1.0721,-1.0721,-1.0721,-1.0721,-1.0721,-0.1377,-0.1419,0.0,0.0,0.0,0.0,0.0,0.0,0.0,-0.3553,-0.371,-0.3787,-0.3787,-0.3934,-0.4264,-0.4966,-0.5049,-0.536,-0.6028,-0.6075,0.0,0.0,-0.6075,-0.6345,-0.6942,0.0,0.0,0.0,-0.7958,0.0,0.0,0.0,0.0,-0.8526,-0.8526,-0.8608,-0.875,-0.8815,-0.8889,-0.8964,-0.8947,-0.9001,-0.9089,-0.8981,-0.8991,-0.9083,-0.9232,-0.9344,-0.9344,-0.9344,-0.9282,-0.9217,-0.9215,-0.9239,-0.9286,-0.913,-0.9171,-0.9188,-0.8916,-0.8903,-0.891,-0.8672,-0.8791,-0.8923,-0.875,-0.8777,-0.8818,-0.8726,0.0,0.0,0.0,0.0,0.0,0.0,-1.2114,-1.2941,-1.3523,-1.4707,-1.6199,-1.8079,-1.8624,-1.8878,-1.8918,-1.9078,-1.9232,-1.9417,-1.9252,-1.9232,-1.9417,-1.9424,-1.9424,-1.9424,-1.9424,-1.9506,-1.98,-2.0087,-1.9878,-1.915,-1.7676,-1.6108,-1.4358,-1.2606,-1.1372,-1.0721,-1.0721,-1.0721,-1.0721,-1.0721,-1.0721,-1.0721,-1.0721,-1.0721,-1.0721,-1.0721,-1.0721,-1.0721,-0.1275,0.0,0.0,0.0,0.0,0.0,0.0,0.0,-0.4284,-0.4638,-0.4792,-0.4897,-0.4897,-0.5007,-0.5446,-0.6311,-0.6407,-0.6795,-0.7671,-0.7723,-0.774,-0.778,-0.7784,-0.7851,-0.7991,-0.7994,0.0,0.0,0.0,0.0,0.0,0.0,0.0,0.0,-0.871,-0.8794,-0.8885,-0.8885,-0.9022,-0.92,-0.9039,-0.915,-0.9357,-0.9144,-0.9127,-0.9292,-0.9388,-0.9445,-0.9445,-0.9445,-0.9371,-0.931,-0.949,-0.9422,-0.935,-0.9361,-0.9334,-0.9235,-0.9049,-0.9076,-0.9146,-0.8838,-0.8933,-0.9039,-0.8821,-0.8825,-0.8845,-0.8733,-0.8676,0.0,0.0,0.0,-0.8656,-0.9641,0.0,-1.0932,-1.1592,-1.2637,-1.4369,-1.7162,-1.7991,-1.8484,-1.8778,-1.8998,-1.9158,-1.9239,-1.9245,-1.9105,-1.8758,-1.9185,-1.9185,-1.8765,-1.9185,-1.9466,-1.9679,-1.9967,-1.9389,-1.7962,-1.6488,-1.4887,-1.3259,-1.1501,-1.0721,-1.0721,-1.0721,-1.0721,-1.0721,-1.0721,-1.0721,-1.0721,-1.0721,-1.0721,-1.0721,-1.0721,-1.0721,-1.0721,-0.3509,-0.4119,0.0,0.0,-0.4936,-0.5168,-0.5486,-0.5526,-0.6017,-0.7296,-0.76,-0.7691,-0.7691,-0.7782,-0.7875,-0.7925,-0.7925,-0.7925,-0.7975,-0.7975,-0.8092,-0.8292,-0.8299,-0.8316,-0.8459,-0.8462,-0.8462,0.0,0.0,0.0,0.0,0.0,0.0,0.0,-0.871,-0.8794,-0.8885,-0.8885,-0.9022,-0.921,-0.9204,-0.9299,-0.9381,-0.9371,-0.9371,-0.9395,-0.9547,-0.9602,-0.9602,-0.9602,-0.9598,-0.9571,-0.9432,-0.9483,-0.9568,-0.9422,-0.9483,-0.953,-0.9286,-0.9207,-0.9173,-0.8971,-0.8885,-0.8888,-0.8878,-0.8821,-0.8716,-0.8713,-0.8594,-0.8486,-0.8482,-0.8479,0.0,0.0,0.0,0.0,0.0,-1.1592,-1.305,-1.4716,-1.6772,-1.8176,-1.8477,-1.851,-1.8637,-1.8918,-1.8938,-1.8352,-1.7132,-1.8525,-1.8706,-1.7144,-1.8583,-1.943,-1.9379,-1.9673,-1.9095,-1.7632,-1.6186,-1.475,-1.3259,-1.1501,-1.0721,-1.0721,-1.0721,-1.0721,-1.0721,-1.0721,-1.0721,-1.0721,-1.0721,-1.0721,-1.0721,-1.0721,-1.0721,-1.0721,0.0,0.0,0.0,-0.5177,-0.5733,-0.6383,-0.6751,-0.6874,-0.7108,-0.754,-0.7723,-0.7848,-0.7901,-0.8099,-0.8228,-0.8323,-0.8333,-0.8333,-0.8333,-0.8333,-0.8357,-0.8408,-0.8411,-0.8431,-0.8479,-0.8482,-0.8482,-0.8482,-0.8482,0.0,0.0,0.0,0.0,0.0,-0.8807,-0.8834,-0.8888,-0.9042,-0.9167,-0.932,-0.9517,-0.9571,-0.9534,-0.9534,-0.9534,-0.9551,-0.9696,-0.9747,-0.9747,-0.9747,-0.9686,-0.9615,-0.9659,-0.9574,-0.9469,-0.9517,-0.9496,-0.9435,-0.9334,-0.9378,-0.9395,-0.9144,-0.9157,-0.9181,-0.8929,-0.8844,-0.8832,-0.873,-0.8669,-0.8601,-0.8503,-0.8482,0.0,0.0,0.0,0.0,0.0,-1.0347,-1.1494,-1.2018,-1.4656,-1.6103,-1.5414,-1.6426,-1.684,-1.6,-1.6982,-1.6996,-1.5483,-1.6915,-1.7091,-1.5488,-1.5967,-1.6208,-1.6208,-1.6509,-1.5833,-1.4323,-1.4025,-1.3078,-1.1567,-1.0982,-1.0721,-1.0721,-1.0721,-1.0721,-1.0721,-1.0721,-1.0721,-1.0721,-1.0721,-1.0721,-1.0721,-1.0721,-1.0721,-1.0721,-0.6848,-0.698,-0.6816,-0.5974,-0.6542,-0.7248,-0.7492,-0.7611,-0.7695,-0.775,-0.7882,-0.8011,-0.8109,-0.8255,-0.8384,-0.8472,-0.8482,-0.8482,-0.8482,-0.8482,-0.8506,-0.856,-0.8564,-0.8587,-0.8645,-0.8645,-0.8645,-0.8645,-0.8645,-0.8696,0.0,0.0,0.0,0.0,-0.8885,-0.8967,-0.9022,-0.9169,-0.933,-0.9483,-0.9724,-0.9768,-0.9686,-0.9686,-0.9686,-0.9696,-0.9788,-0.9822,-0.9822,-0.9822,-0.9761,-0.97,-0.9791,-0.969,-0.9557,-0.9656,-0.9615,-0.9527,-0.9476,-0.9534,-0.9551,-0.9354,-0.9306,-0.9317,-0.9069,-0.9015,-0.8988,-0.8886,-0.8828,-0.8794,-0.8801,-0.8716,0.0,0.0,0.0,0.0,0.0,-0.9306,-0.9947,-0.9959,-1.283,-1.4499,-1.3683,-1.5261,-1.575,-1.4419,-1.5856,-1.5926,-1.3885,-1.5252,-1.5424,-1.3825,-1.4302,-1.4604,-1.4604,-1.4741,-1.407,-1.2611,-1.2855,-1.2149,-1.0639,-1.0697,-1.0721,-1.0721,-1.0721,-1.0721,-1.0721,-1.0721,-1.0721,-1.0721,-1.0721,-1.0721,-1.0721,-1.0721,-1.0721,-1.0721,-0.7082,-0.7282,-0.7346,-0.7152,-0.7417,-0.7655,-0.779,-0.7824,-0.7885,-0.7982,-0.8184,-0.8337,-0.8344,-0.8414,-0.8496,-0.8503,-0.8506,-0.8506,-0.8506,-0.8506,-0.857,-0.8716,-0.872,-0.8791,-0.8878,-0.8885,-0.8885,-0.8885,-0.8885,-0.8885,0.0,0.0,0.0,0.0,-0.8892,-0.9025,-0.921,-0.9224,-0.9347,-0.9632,-0.9768,-0.9822,-0.9822,-0.9822,-0.9822,-0.9822,-0.9822,-0.9822,-0.9822,-0.9822,-0.9822,-0.9822,-0.9822,-0.9822,-0.9822,-0.9822,-0.9822,-0.9791,-0.9656,-0.9618,-0.9585,-0.9432,-0.9391,-0.9354,-0.9255,-0.9221,-0.9221,-0.9221,-0.9055,-0.9045,-0.932,-0.914,-0.8892,0.0,0.0,0.0,-0.8503,-0.8489,-0.8547,-0.8693,-1.132,-1.3143,-1.3236,-1.4707,-1.5183,-1.4031,-1.5465,-1.5115,-1.2264,-1.3696,-1.3815,-1.2153,-1.3586,-1.4366,-1.4366,-1.4366,-1.3634,-1.2254,-1.2495,-1.1857,-1.0497,-1.0649,-1.0721,-1.0721,-1.0721,-1.0721,-1.0721,-1.0721,-1.0721,-1.0721,-1.0721,-1.0721,-1.0721,-1.0721,-1.0721,-1.0721,-0.7305,-0.7519,-0.7685,-0.7645,-0.7702,-0.777,-0.7804,-0.8004,-0.8167,-0.8208,-0.8336,-0.8472,-0.8584,-0.8628,-0.8699,-0.8811,-0.8821,-0.8821,-0.8821,-0.8821,-0.8838,-0.8824,-0.8824,-0.8844,-0.8885,-0.8885,-0.8885,-0.8885,-0.8885,-0.8885,-0.8885,0.0,0.0,0.0,-0.9052,-0.9176,-0.9224,-0.9395,-0.9598,-0.9771,-0.9805,-0.9822,-0.9822,-0.9822,-0.9822,-0.9822,-0.9822,-0.9822,-0.9822,-0.9822,-0.9822,-0.9822,-0.9822,-0.9822,-0.9822,-0.9822,-0.9822,-0.9812,-0.9778,-0.9768,-0.973,-0.9588,-0.9551,-0.951,-0.9357,-0.9323,-0.9323,-0.9323,-0.9293,-0.9256,-0.9275,-0.9207,-0.9062,0.0,0.0,0.0,-0.8503,-0.8581,-0.8665,-0.8706,-0.9647,-1.0229,-1.0097,-1.1647,-1.2074,-1.0751,-1.324,-1.3532,-1.0593,-1.2903,-1.3126,-1.0475,-1.0842,-1.102,-1.102,-1.102,-1.0863,-1.0605,-1.0825,-1.0795,-1.0497,-1.0649,-1.0721,-1.0721,-1.0721,-1.0721,-1.0721,-1.0721,-1.0721,-1.0721,-1.0721,-1.0721,-1.0721,-1.0721,-1.0721,-1.0721,-0.755,-0.775,-0.7913,-0.7913,-0.7967,-0.8011,-0.8011,-0.816,-0.8344,-0.8357,-0.855,-0.8713,-0.8801,-0.8927,-0.9039,-0.9123,-0.913,-0.913,-0.913,-0.9069,-0.9032,-0.9032,-0.8974,-0.8885,-0.8885,-0.8885,-0.8885,-0.8885,-0.8885,-0.8885,-0.8885,0.0,0.0,0.0,-0.9173,-0.9282,-0.9367,-0.9602,-0.9747,-0.9822,-0.9822,-0.9822,0.0,-0.9822,-0.9822,-0.9822,-0.9822,-0.9822,-0.9822,-0.9822,-0.9822,-0.9822,-0.9822,-0.9822,-0.9822,-0.9822,-0.9822,-0.9822,-0.9822,-0.9822,-0.9802,-0.9724,-0.97,-0.9663,-0.9513,-0.9483,-0.9483,-0.9483,-0.9429,-0.9395,-0.9439,-0.9344,-0.9106,-0.8905,-0.8811,-0.8781,-0.8696,-0.8757,-0.8811,-0.8811,-0.8957,-0.9028,-0.8892,-1.0488,-1.0916,-0.9494,-1.2267,-1.27,-0.9837,-1.1875,-1.2137,-0.9876,-0.9822,-0.9822,-0.9822,-0.9822,-0.9866,-0.9889,-1.0175,-1.0324,-1.0409,-1.0622,-1.0721,-1.0721,-1.0721,-1.0721,-1.0721,-1.0721,-1.0721,-1.0721,-1.0721,-1.0721,-1.0721,-1.0721,-1.0721,-1.0721,-0.7814,-0.7897,-0.7995,-0.8015,-0.818,-0.834,-0.835,-0.836,-0.8401,-0.8526,-0.8808,-0.8942,-0.8942,-0.9228,-0.9381,-0.9381,-0.9381,-0.9381,-0.9381,-0.9313,-0.9241,-0.9241,-0.9045,-0.8912,-0.8912,-0.8892,-0.8885,-0.8885,-0.8885,-0.8885,0.0,0.0,0.0,0.0,-0.9251,-0.9371,-0.9646,-0.9768,-0.9822,-0.9822,-0.9822,-0.9822,-0.9822,-0.9822,-0.9822,-0.9822,-0.9822,-0.9822,-0.9822,-0.9822,-0.9822,-0.9822,-0.9822,-0.9822,-0.9822,-0.9822,-0.9822,-0.9822,-0.9822,-0.9822,-0.9822,-0.9822,-0.9822,-0.9788,-0.9666,-0.9639,-0.9639,-0.9639,-0.953,-0.951,-0.9747,-0.9459,-0.919,-0.8991,-0.8929,-0.8942,-0.8942,-0.8942,-0.8935,-0.8912,-0.8929,0.0,-0.8888,-1.0303,-1.0766,-0.9748,-1.1955,-1.2334,-1.001,-1.1102,-1.1177,-0.9815,-0.9822,-0.9822,-0.9822,-0.9822,-0.9822,-0.9825,-1.0134,-1.028,-1.029,-1.0585,-1.0721,-1.0721,-1.0721,-1.0721,-1.0721,-1.0721,-1.0721,-1.0721,-1.0721,-1.0721,-1.0721,-1.0721,-1.0721,-1.0721,-0.7921,-0.7971,-0.8029,-0.8208,-0.8252,-0.8394,-0.8764,-0.8821,-0.8828,-0.8801,-0.9117,-0.9303,-0.9303,-0.9351,-0.9381,-0.9381,-0.9381,-0.9381,-0.9381,-0.9357,-0.934,-0.934,-0.9255,-0.9173,-0.9173,-0.8998,-0.8885,-0.8885,-0.8885,-0.8885,0.0,0.0,0.0,-0.9221,-0.9415,-0.9625,-0.9785,-0.9812,-0.9822,-0.9822,-0.9822,-0.9822,-0.9822,-0.9822,-0.9822,-0.9822,-0.9822,-0.9822,-0.9822,-0.9822,-0.9822,-0.9822,-0.9822,-0.9822,-0.9822,-0.9822,-0.9822,-0.9822,-0.9822,-0.9822,-0.9822,-0.9822,-0.9822,-0.9815,-0.9788,-0.9785,-0.9785,-0.9785,-0.9764,-0.9724,-0.9659,-0.9479,-0.9293,-0.9197,-0.9222,-0.9303,-0.9303,-0.9303,-0.9259,-0.9187,-0.9225,-0.9208,-0.8905,-0.9314,-0.9971,-1.092,-1.1418,-1.1627,-1.1459,-1.1504,-1.0989,-0.9812,-0.9822,-0.9822,-0.9822,-0.9822,-0.9822,-0.9825,-1.0134,-1.028,-1.029,-1.0585,-1.0721,-1.0721,-1.0721,-1.0721,-1.0721,-1.0721,-1.0721,-1.0721,-1.0721,-1.0721,-1.0721,-1.0721,-1.0721,-1.0721,-0.8143,-0.8218,-0.8316,-0.8472,-0.8564,-0.8716,-0.9005,-0.9184,-0.9259,-0.9178,-0.9361,-0.95,-0.95,-0.9564,-0.9608,-0.9608,-0.9608,-0.9608,-0.9608,-0.954,-0.95,-0.95,-0.9354,-0.9292,-0.921,-0.9086,-0.9049,-0.9049,-0.9049,-0.9089,0.0,-0.9239,-0.9313,-0.9398,-0.9622,-0.9758,-0.9822,-0.9822,-0.9822,-0.9822,-0.9822,-0.9822,-0.9822,-0.9822,-0.9822,-0.9822,-0.9822,-0.9822,-0.9822,-0.9822,-0.9822,-0.9822,-0.9822,-0.9822,-0.9822,-0.9822,-0.9822,-0.9822,-0.9822,-0.9822,-0.9822,-0.9822,-0.9822,-0.9822,-0.9822,-0.9822,-0.9822,-0.9822,-0.9822,-0.9778,-0.9635,-0.9551,-0.9449,-0.9354,-0.9334,-0.9381,-0.9381,-0.9381,-0.9354,-0.9337,-0.9323,-0.9208,-0.9062,-0.9169,-0.9486,-1.0152,-1.096,-1.1187,-1.0705,-1.1278,-1.1114,-0.9812,-0.9822,-0.9822,-0.9822,-0.9822,-0.9822,-0.9825,-1.0134,-1.028,-1.029,-1.0585,-1.0721,-1.0721,-1.0721,-1.0721,-1.0721,-1.0721,-1.0721,-1.0721,-1.0721,-1.0721,-1.0721,-1.0721,-1.0721,-1.0721,-0.8357,-0.8455,-0.8591,-0.8774,-0.8903,-0.9042,-0.9279,-0.9456,-0.9564,-0.9445,-0.9561,-0.9656,-0.9656,-0.9754,-0.9822,-0.9822,-0.9822,-0.9822,-0.9822,-0.9717,-0.9656,-0.9656,-0.951,-0.9371,-0.9309,-0.9275,-0.9258,-0.9258,-0.9258,-0.932,-0.9381,-0.9415,-0.951,-0.9659,-0.9771,-0.9822,-0.9822,-0.9822,-0.9822,-0.9822,-0.9822,-0.9822,-0.9822,-0.9822,-0.9822,-0.9822,-0.9822,-0.9822,-0.9822,-0.9822,-0.9822,-0.9822,-0.9822,-0.9822,-0.9822,-0.9822,-0.9822,-0.9822,-0.9822,-0.9822,-0.9822,-0.9822,-0.9822,-0.9822,-0.9822,-0.9822,-0.9822,-0.9822,-0.9822,-0.9778,-0.9635,-0.9635,-0.9605,-0.9456,-0.9456,-0.9476,-0.9476,-0.9476,-0.9462,-0.9435,-0.9323,-0.9296,-0.9262,-0.9258,-0.9272,-0.9306,-1.0406,-1.0767,-1.0125,-1.0894,-1.0848,-0.9815,-0.9822,-0.9822,-0.9822,-0.9822,-0.9822,-0.9825,-1.0134,-1.028,-1.029,-1.0585,-1.0721,-1.0721,-1.0721,-1.0721,-1.0721,-1.0721,-1.0721,-1.0721,-1.0721,-1.0721,-1.0721,-1.0721,-1.0721,-1.0721,-0.8642,-0.8679,-0.8777,-0.9118,-0.918,-0.9232,-0.952,-0.9591,-0.9605,-0.9591,-0.971,-0.9802,-0.9802,-0.9812,-0.9822,-0.9822,-0.9822,-0.9822,-0.9822,-0.9808,-0.9802,-0.9802,-0.9663,-0.9581,-0.9568,-0.9432,-0.9361,-0.9361,-0.9361,-0.9367,-0.9384,-0.9523,-0.9663,-0.9802,-0.9815,-0.9822,-0.9822,-0.9822,-0.9822,-0.9822,-0.9822,-0.9822,-0.9822,-0.9822,-0.9822,-0.9822,-0.9822,-0.9822,-0.9822,-0.9822,-0.9822,-0.9822,-0.9822,-0.9822,-0.9822,-0.9822,-0.9822,-0.9822,-0.9822,-0.9822,-0.9822,-0.9822,-0.9822,-0.9822,-0.9822,-0.9822,-0.9822,-0.9822,-0.9822,-0.9778,-0.9635,-0.9713,-0.9754,-0.9612,-0.9696,-0.9781,-0.9781,-0.9781,-0.9734,-0.9602,-0.9578,-0.9513,-0.9371,-0.9361,-0.9418,-0.9557,-0.9566,-1.0193,-1.1526,-1.0487,-0.9792,-0.9815,-0.9822,-0.9822,-0.9822,-0.9822,-0.9822,-0.9825,-1.0134,-1.028,-1.029,-1.0585,-1.0721,-1.0721,-1.0721,-1.0721,-1.0721,-1.0721,-1.0721,-1.0721,-1.0721,-1.0721,-1.0721,-1.0721,-1.0721,-1.0721,-0.8964,-0.9824,-1.063,-1.0813,-1.0852,-1.0934,-1.1125,-1.0332,-0.9737,-0.9737,-0.9785,-0.9822,-0.9822,-0.9822,-0.9822,-0.9822,-0.9822,-0.9822,-0.9822,-0.9822,-0.9822,-0.9822,-0.9768,-0.9696,-0.9612,-0.9551,-0.9517,-0.9517,-0.9517,-0.9561,-0.9646,-0.9707,-0.9768,-0.9822,-0.9822,-0.9822,-0.9822,-0.9822,-0.9822,-0.9822,-0.9822,-0.9822,-0.9822,-0.9822,-0.9822,-0.9822,-0.9822,-0.9822,-0.9822,-0.9822,-0.9822,-0.9822,-0.9822,-0.9822,-0.9822,-0.9822,-0.9822,-0.9822,-0.9822,-0.9822,-0.9822,-0.9822,-0.9822,-0.9822,-0.9822,-0.9822,-0.9822,-0.9822,-0.9822,-0.9802,-0.9747,-0.9781,-0.9802,-0.9744,-0.9785,-0.9822,-0.9822,-0.9822,-0.9798,-0.9744,-0.9659,-0.9585,-0.9523,-0.9517,-0.9544,-0.9605,-0.9554,-0.9815,-1.0554,-1.0031,-0.9764,-0.9819,-0.9822,-0.9822,-0.9822,-0.9822,-0.9822,-0.9825,-1.0134,-1.028,-1.029,-1.0585,-1.0721,-1.0721,-1.0721,-1.0721,-1.0721,-1.0721,-1.0721,-1.0721,-1.0721,-1.0721,-1.0721,-1.0721,-1.0721,-1.0721,-1.0744,-1.1368,-1.1919,-1.2043,-1.2073,-1.1942,-1.1535,-1.1318,-1.102,-1.0539,-1.0539,-1.0301,-0.9883,-0.9822,-0.9822,-0.9822,-0.9822,-0.9822,-0.9822,-0.9822,-0.9822,-0.9822,-0.9822,-0.9774,-0.9676,-0.9673,-0.9673,-0.9673,-0.9673,-0.9724,-0.9822,-0.9822,-0.9822,-0.9822,-0.9822,-0.9822,-0.9822,-0.9822,-0.9822,-0.9822,-0.9822,-0.9822,-0.9822,-0.9822,-0.9822,-0.9822,-0.9822,-0.9822,-0.9822,-0.9822,-0.9822,-0.9822,-0.9822,-0.9822,-0.9822,-0.9822,-0.9822,-0.9822,-0.9822,-0.9822,-0.9822,-0.9822,-0.9822,-0.9822,-0.9822,-0.9822,-0.9822,-0.9822,-0.9822,-0.9822,-0.9822,-0.9822,-0.9822,-0.9822,-0.9822,-0.9822,-0.9822,-0.9822,-0.9822,-0.9822,-0.9734,-0.9673,-0.9673,-0.9673,-0.9673,-0.9673,-0.9673,-0.9717,-0.9815,-0.9822,-0.9822,-0.9822,-0.9822,-0.9822,-0.9822,-0.9822,-0.9822,-0.9825,-1.0134,-1.028,-1.029,-1.0585,-1.0721,-1.0721,-1.0721,-1.0721,-1.0721,-1.0721,-1.0721,-1.0721,-1.0721,-1.0721,-1.0721,-1.0721,-1.0721,-1.0721,-1.433,-1.3091,-1.2048,-1.2179,-1.2209,-1.1675,-1.0061,-1.2513,-1.3949,-1.2393,-1.2157,-1.1559,-1.0001,-0.9822,-0.9822,-0.9822,-0.9822,-0.9822,-0.9822,-0.9822,-0.9822,-0.9822,-0.9822,-0.9822,-0.9819,-0.9819,-0.9819,-0.9819,-0.9819,-0.9819,-0.9822,-0.9822,-0.9822,-0.9822,-0.9822,-0.9822,-0.9822,-0.9822,-0.9822,-0.9822,-0.9822,-0.9822,-0.9822,-0.9822,-0.9822,-0.9822,-0.9822,-0.9822,-0.9822,-0.9822,-0.9822,-0.9822,-0.9822,-0.9822,-0.9822,-0.9822,-0.9822,-0.9822,-0.9822,-0.9822,-0.9822,-0.9822,-0.9822,-0.9822,-0.9822,-0.9822,-0.9822,-0.9822,-0.9822,-0.9822,-0.9822,-0.9822,-0.9822,-0.9822,-0.9822,-0.9822,-0.9822,-0.9822,-0.9822,-0.9822,-0.9819,-0.9819,-0.9819,-0.9819,-0.9819,-0.9819,-0.9819,-0.9819,-0.9822,-0.9822,-0.9822,-0.9822,-0.9822,-0.9822,-0.9822,-0.9822,-0.9822,-0.9825,-1.0134,-1.028,-1.029,-1.0585,-1.0721,-1.0721,-1.0721,-1.0721,-1.0721,-1.0721,-1.0721,-1.0721,-1.0721,-1.0721,-1.0721,-1.0721,-1.0721,-1.0721,-1.4537,-1.5018,-1.5392,-1.5467,-1.5478,-1.53,-1.4767,-1.4653,-1.4426,-1.3885,-1.3825,-1.3646,-1.3112,-1.1137,-0.9822,-0.9822,-0.9822,-0.9822,-0.9822,-0.9822,-0.9822,-0.9822,-0.9822,-0.9822,-0.9822,-0.9822,-0.9822,-0.9822,-0.9822,-0.9822,-0.9822,-0.9822,-0.9822,-0.9822,-0.9822,-0.9822,-0.9822,-0.9822,-0.9822,-0.9822,-0.9822,-0.9822,-0.9822,-0.9822,-0.9822,-0.9822,-0.9822,-0.9822,-0.9822,-0.9822,-0.9822,-0.9822,-0.9822,-0.9822,-0.9822,-0.9822,-0.9822,-0.9822,-0.9822,-0.9822,-0.9822,-0.9822,-0.9822,-0.9822,-0.9822,-0.9822,-0.9822,-0.9822,-0.9822,-0.9822,-0.9822,-0.9822,-0.9822,-0.9822,-0.9822,-0.9822,-0.9822,-0.9822,-0.9822,-0.9822,-0.9822,-0.9822,-0.9822,-0.9822,-0.9822,-0.9822,-0.9822,-0.9822,-0.9822,-0.9822,-0.9822,-0.9822,-0.9822,-0.9822,-0.9822,-0.9822,-0.9822,-0.9825,-1.0134,-1.0385,-1.0582,-1.0677,-1.0721,-1.0721,-1.0721,-1.0721,-1.0721,-1.0721,-1.0721,-1.0721,-1.0721,-1.0721,-1.0721,-1.0721,-1.0721,-1.0721,-1.6385,-1.6738,-1.7026,-1.7026,-1.7026,-1.6791,-1.6197,-1.6262,-1.6208,-1.5607,-1.5488,-1.5252,-1.4663,-1.2273,-1.0717,-1.0717,-1.1257,-1.108,-0.9879,-1.0361,-1.0418,-0.9819,-0.9822,-0.9822,-0.9822,-0.9822,-0.9822,-0.9822,-0.9822,-0.9822,-0.9822,-0.9822,-0.9822,-0.9822,-0.9822,-0.9822,-0.9822,-0.9822,-0.9822,-0.9822,-0.9822,-0.9822,-0.9822,-0.9822,-0.9822,-0.9822,-0.9822,-0.9822,-0.9822,-0.9822,-0.9822,-0.9822,-0.9822,-0.9822,-0.9822,-0.9822,-0.9822,-0.9822,-0.9822,-0.9822,-0.9822,-0.9822,-0.9822,-0.9822,-0.9822,-0.9822,-0.9822,-0.9822,-0.9822,-0.9822,-0.9822,-0.9822,-0.9822,-0.9822,-0.9822,-0.9822,-0.9822,-0.9822,-0.9822,-0.9822,-0.9822,-0.9822,-0.9822,-0.9822,-0.9822,-0.9822,-0.9822,-0.9822,-0.9822,-0.9822,-0.9822,-0.9822,-0.9822,-0.9822,-0.9822,-0.9822,-0.9849,-0.9849,-1.0215,-1.0487,-1.0721,-1.0721,-1.0721,-1.0721,-1.0721,-1.0721,-1.0721,-1.0721,-1.0721,-1.0721,-1.0721,-1.0721,-1.0721,-1.0721,-1.0721,-1.0721,-1.9424,-1.8163,-1.7144,-1.7144,-1.7144,-1.6674,-1.5133,-1.7396,-1.8706,-1.7202,-1.6909,-1.6256,-1.4777,-1.3287,-1.2333,-1.2217,-1.3467,-1.3053,-1.0179,-1.1257,-1.1378,-0.9879,-0.9822,-0.9822,-0.9822,-0.9822,-0.9822,-0.9822,-0.9822,-0.9822,-0.9822,-0.9822,-0.9822,-0.9822,-0.9822,-0.9822,-0.9822,-0.9822,-0.9822,-0.9822,-0.9822,-0.9822,-0.9822,-0.9822,-0.9822,-0.9822,-0.9822,-0.9822,-0.9822,-0.9822,-0.9822,-0.9822,-0.9822,-0.9822,-0.9822,-0.9822,-0.9822,-0.9822,-0.9822,-0.9822,-0.9822,-0.9822,-0.9822,-0.9822,-0.9822,-0.9822,-0.9822,-0.9822,-0.9822,-0.9822,-0.9822,-0.9822,-0.9822,-0.9822,-0.9822,-0.9822,-0.9822,-0.9822,-0.9822,-0.9822,-0.9822,-0.9822,-0.9822,-0.9822,-0.9822,-0.9822,-0.9822,-0.9822,-0.9822,-0.9822,-0.9822,-0.9822,-0.9822,-0.9822,-0.9822,-0.9822,-0.9903,-1.0007,-1.0354,-1.0571,-1.0721,-1.0721,-1.0721,-1.0721,-1.0721,-1.0721,-1.0721,-1.0721,-1.0721,-1.0721,-1.0721,-1.0721,-1.0721,-1.0721,-1.0721,-1.0721,-1.9424,-1.9068,-1.8823,-1.8823,-1.8823,-1.8706,-1.8292,-1.7864,-1.7443,-1.7026,-1.5902,-1.502,-1.4663,-1.4242,-1.3531,-1.2333,-1.1438,-1.114,-1.1615,-1.0838,-1.0179,-0.9822,-0.9822,-0.9822,-0.9822,-0.9822,-0.9822,-0.9822,-0.9822,-0.9822,-0.9822,-0.9822,-0.9822,-0.9822,-0.9822,-0.9822,-0.9822,-0.9822,-0.9822,-0.9822,-0.9822,-0.9822,-0.9822,-0.9822,-0.9822,-0.9822,-0.9822,-0.9822,-0.9822,-0.9822,-0.9822,-0.9822,-0.9822,-0.9822,-0.9822,-0.9822,-0.9822,-0.9822,-0.9822,-0.9822,-0.9822,-0.9822,-0.9822,-0.9822,-0.9822,-0.9822,-0.9822,-0.9822,-0.9822,-0.9822,-0.9822,-0.9822,-0.9822,-0.9822,-0.9822,-0.9822,-0.9822,-0.9822,-0.9822,-0.9822,-0.9822,-0.9822,-0.9822,-0.9822,-0.9822,-0.9822,-0.9822,-0.9822,-0.9822,-0.9822,-0.9822,-0.9822,-0.9822,-0.9822,-0.9822,-0.9822,-0.9958,-1.0226,-1.0405,-1.0571,-1.0721,-1.0721,-1.0721,-1.0721,-1.0721,-1.0721,-1.0721,-1.0721,-1.0721,-1.0721,-1.0721,-1.0721,-1.0721,-1.0721,-1.0721,-1.0721,-1.9424,-1.9424,-1.9424,-1.9424,-1.9424,-1.9424,-1.9424,-1.8046,-1.7026,-1.7026,-1.5607,-1.4307,-1.3586,-1.3526,-1.3168,-1.2273,-1.2097,-1.1736,-1.1137,-1.0959,-1.0539,-0.9819,-0.9822,-0.9822,-0.9822,-0.9822,-0.9822,-0.9822,-0.9822,-0.9822,-0.9822,-0.9822,-0.9822,-0.9822,-0.9822,-0.9822,-0.9822,-0.9822,-0.9822,-0.9822,-0.9822,-0.9822,-0.9822,-0.9822,-0.9822,-0.9822,-0.9822,-0.9822,-0.9822,-0.9822,-0.9822,-0.9822,-0.9822,-0.9822,-0.9822,-0.9822,-0.9822,-0.9822,-0.9822,-0.9822,-0.9822,-0.9822,-0.9822,-0.9822,-0.9822,-0.9822,-0.9822,-0.9822,-0.9822,-0.9822,-0.9822,-0.9822,-0.9822,-0.9822,-0.988,-0.9839,-0.9832,-0.988,-0.9839,-0.9829,-0.9822,-0.9822,-0.9822,-0.9822,-0.9822,-0.9822,-0.9822,-0.9822,-0.9822,-0.9822,-0.9822,-0.9822,-0.9822,-0.9822,-0.9822,-0.9961,-1.0114,-1.0283,-1.0493,-1.0639,-1.0721,-1.0721,-1.0721,-1.0721,-1.0721,-1.0721,-1.0721,-1.0721,-1.0721,-1.0721,-1.0721,-1.0721,-1.0721,-1.0721,-1.0721,-1.0721,-1.9424,-1.9424,-1.9424,-1.9424,-1.9424,-1.9307,-1.9062,-1.7689,-1.655,-1.6315,-1.4891,-1.3347,-1.1976,-1.1856,-1.1856,-1.1856,-1.3112,-1.2813,-1.0301,-1.1197,-1.1257,-0.9883,-0.9822,-0.9822,-0.9822,-0.9822,-0.9822,-0.9822,-0.9822,-0.9822,-0.9822,-0.9822,-0.9822,-0.9822,-0.9822,-0.9822,-0.9822,-0.9822,-0.9822,-0.9822,-0.9822,-0.9822,-0.9822,-0.9822,-0.9822,-0.9822,-0.9822,-0.9822,-0.9822,-0.9822,-0.9822,-0.9822,-0.9822,-0.9822,-0.9822,-0.9822,-0.9822,-0.9822,-0.9822,-0.9822,-0.9822,-0.9822,-0.9822,-0.9822,-0.9822,-0.9822,-0.9822,-0.9822,-0.9822,-0.9822,-0.9822,-0.9822,-0.9829,-0.9849,-0.9883,-0.9916,-0.9869,-0.9886,-0.9906,-0.9836,-0.9822,-0.9822,-0.9822,-0.9822,-0.9822,-0.9822,-0.9822,-0.9822,-0.9822,-0.9822,-0.9822,-0.9822,-0.9822,-0.9832,-0.9852,-1.0137,-1.029,-1.0317,-1.0588,-1.0721,-1.0721,-1.0721,-1.0721,-1.0721,-1.0721,-1.0721,-1.0721,-1.0721,-1.0721,-1.0721,-1.0721,-1.0721,-1.0721,-1.0721,-1.0721,-1.0721,-1.9424,-1.9424,-1.9424,-1.9424,-1.9424,-1.8946,-1.7566,-1.6026,-1.448,-1.3108,-1.1555,-1.0422,-1.0179,-1.0179,-1.0179,-1.0179,-1.0422,-1.0899,-1.1796,-1.0778,-1.0058,-0.9822,-0.9822,-0.9822,-0.9822,-0.9822,-0.9822,-0.9822,-0.9822,-0.9822,-0.9822,-0.9822,-0.9822,-0.9822,-0.9822,-0.9822,-0.9822,-0.9822,-0.9822,-0.9822,-0.9822,-0.9822,-0.9822,-0.9822,-0.9822,-0.9822,-0.9822,-0.9822,-0.9822,-0.9822,-0.9822,-0.9822,-0.9822,-0.9822,-0.9822,-0.9822,-0.9822,-0.9822,-0.9822,-0.9822,-0.9822,-0.9822,-0.9822,-0.9822,-0.9822,-0.9822,-0.9822,-0.9822,-0.9822,-0.9822,-0.9822,-0.9822,-0.9863,-0.993,-0.9862,-0.9893,-0.9936,-0.9862,-0.9846,-0.9825,-0.9822,-0.9822,-0.9822,-0.9822,-0.9822,-0.9822,-0.9822,-0.9822,-0.9822,-0.9822,-0.9822,-0.9822,-0.9822,-0.9883,-0.995,-1.0192,-1.0341,-1.0463,-1.0636,-1.0721,-1.0721,-1.0721,-1.0721,-1.0721,-1.0721,-1.0721,-1.0721,-1.0721,-1.0721,-1.0721,-1.0721,-1.0721,-1.0721,-1.0721,-1.0721,-1.0721,-1.6979,-1.7513,-1.7806,-1.6979,-1.6803,-1.6562,-1.5843,-1.4356,-1.3053,-1.2277,-1.0778,-0.9822,-0.9822,-0.9822,-0.9822,-0.9822,-0.9822,-1.0119,-1.0838,-1.0179,-0.9822,-0.9822,-0.9822,-0.9822,-0.9822,-0.9822,-0.9822,-0.9822,-0.9822,-0.9822,-0.9822,-0.9822,-0.9822,-0.9822,-0.9822,-0.9822,-0.9822,-0.9822,-0.9822,-0.9822,-0.9822,-0.9822,-0.9822,-0.9822,-0.9822,-0.9822,-0.9822,-0.9822,-0.9822,-0.9822,-0.9822,-0.9822,-0.9822,-0.9822,-0.9822,-0.9822,-0.9822,-0.9822,-0.9822,-0.9822,-0.9822,-0.9822,-0.9822,-0.9822,-0.9822,-0.9822,-0.9822,-0.9822,-0.9822,-0.9822,-0.9822,-0.9822,-0.9842,-0.9852,-0.9876,-0.9879,-0.9866,-0.9876,-0.9852,-0.9832,-0.9822,-0.9822,-0.9822,-0.9822,-0.9822,-0.9822,-0.9822,-0.9822,-0.9822,-0.9822,-0.9822,-0.9822,-0.9839,-0.9916,-0.9987,-1.0276,-1.0426,-1.0493,-1.0646,-1.0721,-1.0721,-1.0721,-1.0721,-1.0721,-1.0721,-1.0721,-1.0721,-1.0721,-1.0721,-1.0721,-1.0721,-1.0721,-1.0721,-1.0721,-1.0721,-1.0721,-1.4842,-1.5607,-1.602,-1.4842,-1.4604,-1.4485,-1.4128,-1.2988,-1.2097,-1.1675,-1.0539,-0.9822,-0.9822,-0.9822,-0.9822,-0.9822,-0.9822,-0.9822,-0.9822,-0.9822,-0.9822,-0.9822,-0.9822,-0.9822,-0.9822,-0.9822,-0.9822,-0.9822,-0.9822,-0.9822,-0.9822,-0.9822,-0.9822,-0.9822,-0.9822,-0.9822,-0.9822,-0.9822,-0.9822,-0.9822,-0.9822,-0.9822,-0.9822,-0.9822,-0.9822,-0.9822,-0.9822,-0.9822,-0.9822,-0.9822,-0.9822,-0.9822,-0.9822,-0.9822,-0.9822,-0.9822,-0.9822,-0.9822,-0.9822,-0.9822,-0.9822,-0.9822,-0.9822,-0.9822,-0.9822,-0.9822,-0.9822,-0.9822,-0.9822,-0.9822,-0.9822,-0.9822,-0.9832,-0.9869,-0.9879,-0.9906,-0.9886,-0.9883,-0.9889,-0.9836,-0.9822,-0.9822,-0.9822,-0.9822,-0.9822,-0.9822,-0.9822,-0.9822,-0.9822,-0.9822,-0.9836,-0.9873,-0.9926,-1.0004,-1.0041,-1.0361,-1.051,-1.0548,-1.0663,-1.0721,-1.0721,-1.0721,-1.0721,-1.0721,-1.0721,-1.0721,-1.0721,-1.0721,-1.0721,-1.0721,-1.0721,-1.0721,-1.0721,-1.0721,-1.0721,-1.0721,-1.4604,-1.4723,-1.4723,-1.4604,-1.4604,-1.4128,-1.2573,-1.2273,-1.1675,-1.0179,-0.9879,-0.9822,-0.9822,-0.9822,-0.9822,-0.9822,-0.9822,-0.9822,-0.9822,-0.9822,-0.9822,-0.9822,-0.9822,-0.9822,-0.9822,-0.9822,-0.9822,-0.9822,-0.9822,-0.9822,-0.9822,-0.9822,-0.9822,-0.9822,-0.9822,-0.9822,-0.9822,-0.9822,-0.9822,-0.9822,-0.9822,-0.9822,-0.9822,-0.9822,-0.9822,-0.9822,-0.9822,-0.9822,-0.9822,-0.9822,-0.9822,-0.9822,-0.9822,-0.9822,-0.9822,-0.9822,-0.9822,-0.9822,-0.9822,-0.9822,-0.9822,-0.9822,-0.9822,-0.9822,-0.9822,-0.9822,-0.9822,-0.9822,-0.9822,-0.9822,-0.9822,-0.9822,-0.9866,-0.9947,-0.9862,-0.9883,-0.9953,-0.9859,-0.9832,-0.9822,-0.9822,-0.9822,-0.9822,-0.9822,-0.9822,-0.9822,-0.9822,-0.9822,-0.9822,-0.9822,-0.9886,-0.9967,-0.998,-1.0117,-1.0263,-1.0415,-1.0565,-1.0704,-1.0714,-1.0721,-1.0721,-1.0721,-1.0721,-1.0721,-1.0721,-1.0721,-1.0721,-1.0721,-1.0721,-1.0721,-1.0721,-1.0721,-1.0721,-1.0721,-1.0721,-1.0721,-1.1796,-1.2453,-1.2813,-1.1796,-1.1615,-1.1438,-1.0778,-1.0721,-1.0479,-0.9879,-0.9822,-0.9822,-0.9822,-0.9822,-0.9822,-0.9822,-0.9822,-0.9822,-0.9822,-0.9822,-0.9822,-0.9822,-0.9822,-0.9822,-0.9822,-0.9822,-0.9822,-0.9822,-0.9822,-0.9822,-0.9822,-0.9822,-0.9822,-0.9822,-0.9822,-0.9822,-0.9822,-0.9822,-0.9822,-0.9822,-0.9822,-0.9822,-0.9822,-0.9822,-0.9822,-0.9822,-0.9822,-0.9822,-0.9822,-0.9822,-0.9822,-0.9822,-0.9822,-0.9822,-0.9822,-0.9822,-0.9822,-0.9822,-0.9822,-0.9822,-0.9822,-0.9822,-0.9822,-0.9822,-0.9822,-0.9822,-0.9822,-0.9822,-0.9822,-0.9822,-0.9822,-0.9822,-0.9839,-0.9897,-0.9859,-0.9842,-0.9839,-0.9859,-0.9822,-0.9822,-0.9822,-0.9822,-0.9822,-0.9822,-0.9822,-0.9822,-0.9822,-0.9822,-0.9822,-0.9822,-0.989,-0.998,-1.0141,-1.0263,-1.0412,-1.0558,-1.0663,-1.0721,-1.0721,-1.0721,-1.0721,-1.0721,-1.0721,-1.0721,-1.0721,-1.0721,-1.0721,-1.0721,-1.0721,-1.0721,-1.0721,-1.0721,-1.0721,-1.0721,-1.0721,-1.0721,-1.0001,-1.066,-1.108,-1.0001,-0.9822,-0.9822,-0.9822,-0.9822,-0.9822,-0.9822,-0.9822,-0.9822,-0.9822,-0.9822,-0.9822,-0.9822,-0.9822,-0.9822,-0.9822,-0.9822,-0.9822,-0.9822,-0.9822,-0.9822,-0.9822,-0.9822,-0.9822,-0.9822,-0.9822,-0.9822,-0.9822,-0.9822,-0.9822,-0.9822,-0.9822,-0.9822,-0.9822,-0.9822,-0.9822,-0.9822,-0.9822,-0.9822,-0.9822,-0.9822,-0.9822,-0.9822,-0.9822,-0.9822,-0.9822,-0.9822,-0.9822,-0.9822,-0.9822,-0.9822,-0.9822,-0.9822,-0.9822,-0.9822,-0.9822,-0.9822,-0.9822,-0.9822,-0.9822,-0.9822,-0.9822,-0.9822,-0.9822,-0.9822,-0.9822,-0.9822,-0.9822,-0.9822,-0.9822,-0.9822,-0.9822,-0.9822,-0.9822,-0.9822,-0.9822,-0.9822,-0.9822,-0.9822,-0.9822,-0.9822,-0.9822,-0.9822,-0.9822,-0.9822,-0.9822,-0.9866,-0.9964,-1.0117,-1.0266,-1.0415,-1.0561,-1.0666,-1.0721,-1.0721,-1.0721,-1.0721,-1.0721,-1.0721,-1.0721,-1.0721,-1.0721,-1.0721,-1.0721,-1.0721,-1.0721,-1.0721,-1.0721,-1.0721,-1.0721,-1.0721,-1.0721,-1.0721,-0.9822,-0.9822,-0.9822,-0.9822,-0.9822,-0.9822,-0.9822,-0.9822,-0.9822,-0.9822,-0.9822,-0.9822,-0.9822,-0.9822,-0.9822,-0.9822,-0.9822,-0.9822,-0.9822,-0.9822,-0.9822,-0.9822,-0.9822,-0.9822,-0.9822,-0.9822,-0.9822,-0.9822,-0.9822,-0.9822,-0.9822,-0.9822,-0.9822,-0.9822,-0.9822,-0.9822,-0.9822,-0.9822,-0.9822,-0.9822,-0.9822,-0.9822,-0.9822,-0.9822,-0.9822,-0.9822,-0.9822,-0.9822,-0.9822,-0.9822,-0.9822,-0.9822,-0.9822,-0.9822,-0.9822,-0.9822,-0.9822,-0.9822,-0.9822,-0.9822,-0.9822,-0.9822,-0.9822,-0.9822,-0.9822,-0.9822,-0.9822,-0.9822,-0.9822,-0.9822,-0.9822,-0.9822,-0.9822,-0.9822,-0.9822,-0.9822,-0.9822,-0.9822,-0.9822,-0.9822,-0.9822,-0.9822,-0.9822,-0.9822,-0.9822,-0.9822,-0.9822,-0.9822,-0.9822,-0.9906,-1.012,-1.0276,-1.0419,-1.0565,-1.0717,-1.0721,-1.0721,-1.0721,-1.0721,-1.0721,-1.0721,-1.0721,-1.0721,-1.0721,-1.0721,-1.0721,-1.0721,-1.0721,-1.0721,-1.0721,-1.0721,-1.0721,-1.0721,-1.0721,-1.0721,-1.0721,-0.9822,-0.9822,-0.9822,-0.9822,-0.9822,-0.9822,-0.9822,-0.9822,-0.9822,-0.9822,-0.9822,-0.9822,-0.9822,-0.9822,-0.9822,-0.9822,-0.9822,-0.9822,-0.9822,-0.9822,-0.9822,-0.9822,-0.9822,-0.9822,-0.9822,-0.9822,-0.9822,-0.9822,-0.9822,-0.9822,-0.9822,-0.9822,-0.9822,-0.9822,-0.9822,-0.9822,-0.9822,-0.9822,-0.9822,-0.9822,-0.9822,-0.9822,-0.9822,-0.9822,-0.9822,-0.9822,-0.9822,-0.9822,-0.9822,-0.9822,-0.9822,-0.9822,-0.9822,-0.9822,-0.9822,-0.9822,-0.9822,-0.9822,-0.9822,-0.9822,-0.9822,-0.9822,-0.9822,-0.9822,-0.9822,-0.9822,-0.9822,-0.9822,-0.9822,-0.9822,-0.9822,-0.9822,-0.9822,-0.9822,-0.9822,-0.9822,-0.9822,-0.9822,-0.9822,-0.9822,-0.9822,-0.9822,-0.9822,-0.9822,-0.9822,-0.9822,-0.9822,-0.9822,-0.9822,-0.9906,-1.012,-1.0276,-1.0419,-1.0565,-1.0717,-1.0721,-1.0721,-1.0721,-1.0721,-1.0721,-1.0721,-1.0721,-1.0721,-1.0721,-1.0721,-1.0721,-1.0721,-1.0721,-1.0721,-1.0721,-1.0721,-1.0721,-1.0721,-1.0721,-1.0721,-1.0721,-0.9822,-0.9822,-0.9822,-0.9822,-0.9822,-0.9822,-0.9822,-0.9822,-0.9822,-0.9822,-0.9822,-0.9822,-0.9822,-0.9822,-0.9822,-0.9822,-0.9822,-0.9822,-0.9822,-0.9822,-0.9822,-0.9822,-0.9822,-0.9822,-0.9822,-0.9822,-0.9822,-0.9822,-0.9822,-0.9822,-0.9822,-0.9822,-0.9822,-0.9822,-0.9822,-0.9822,-0.9822,-0.9822,-0.9822,-0.9822,-0.9822,-0.9822,-0.9822,-0.9822,-0.9822,-0.9822,-0.9822,-0.9822,-0.9822,-0.9822,-0.9822,-0.9822,-0.9822,-0.9822,-0.9822,-0.9822,-0.9822,-0.9822,-0.9822,-0.9822,-0.9822,-0.9822,-0.9822,-0.9822,-0.9822,-0.9822,-0.9822,-0.9822,-0.9822,-0.9822,-0.9822,-0.9822,-0.9822,-0.9822,-0.9822,-0.9822,-0.9822,-0.9822,-0.9822,-0.9822,-0.9822,-0.9822,-0.9822,-0.9822,-0.9822,-0.9822,-0.9822,-0.9822,-0.9822,-1.0022,-1.0185,-1.0276,-1.0477,-1.0626,-1.0717,-1.0721,-1.0721,-1.0721,-1.0721,-1.0721,-1.0721,-1.0721,-1.0721,-1.0721,-1.0721,-1.0721,-1.0721,-1.0721,-1.0721,-1.0721,-1.0721,-1.0721,-1.0721,-1.0721,-1.0721,-1.0721,-0.9822,-0.9822,-0.9822,-0.9822,-0.9822,-0.9822,-0.9822,-0.9822,-0.9822,-0.9822,-0.9822,-0.9822,-0.9822,-0.9822,-0.9822,-0.9822,-0.9822,-0.9822,-0.9822,-0.9822,-0.9822,-0.9822,-0.9822,-0.9822,-0.9822,-0.9822,-0.9822,-0.9822,-0.9822,-0.9822,-0.9822,-0.9822,-0.9822,-0.9822,-0.9822,-0.9822,-0.9822,-0.9822,-0.9822,-0.9822,-0.9822,-0.9822,-0.9822,-0.9822,-0.9822,-0.9822,-0.9822,-0.9822,-0.9822,-0.9822,-0.9822,-0.9822,-0.9822,-0.9822,-0.9822,-0.9822,-0.9822,-0.9822,-0.9822,-0.9822,-0.9822,-0.9822,-0.9822,-0.9822,-0.9822,-0.9822,-0.9822,-0.9822,-0.9822,-0.9822,-0.9822,-0.9822,-0.9822,-0.9822,-0.9822,-0.9822,-0.9822,-0.9822,-0.9822,-0.9822,-0.9822,-0.9822,-0.9822,-0.9822,-0.9822,-0.9822,-0.9822,-0.9825,-0.9839,-1.012,-1.0287,-1.0297,-1.0571,-1.0721,-1.0721,-1.0721,-1.0721,-1.0721,-1.0721,-1.0721,-1.0721,-1.0721,-1.0721,-1.0721,-1.0721,-1.0721,-1.0721,-1.0721,-1.0721,-1.0721,-1.0721,-1.0721,-1.0721,-1.0721,-1.0721,-1.0721,-0.9822,-0.9822,-0.9822,-0.9822,-0.9822,-0.9822,-0.9822,-0.9822,-0.9822,-0.9822,-0.9822,-0.9822,-0.9822,-0.9822,-0.9822,-0.9822,-0.9822,-0.9822,-0.9822,-0.9822,-0.9822,-0.9822,-0.9822,-0.9822,-0.9822,-0.9822,-0.9822,-0.9822,-0.9822,-0.9822,-0.9822,-0.9822,-0.9822,-0.9822,-0.9822,-0.9822,-0.9822,-0.9822,-0.9822,-0.9822,-0.9822,-0.9822,-0.9822,-0.9822,-0.9822,-0.9822,-0.9822,-0.9822,-0.9822,-0.9822,-0.9822,-0.9822,-0.9822,-0.9822,-0.9822,-0.9822,-0.9822,-0.9822,-0.9822,-0.9822,-0.9822,-0.9822,-0.9822,-0.9822,-0.9822,-0.9822,-0.9822,-0.9822,-0.9822,-0.9822,-0.9822,-0.9822,-0.9822,-0.9822,-0.9822,-0.9822,-0.9822,-0.9822,-0.9822,-0.9822,-0.9822,-0.9822,-0.9822,-0.9822,-0.9822,-0.9822,-0.9822,-0.9873,-0.993,-1.0178,-1.0331,-1.0443,-1.0622,-1.0721,-1.0721,-1.0721,-1.0721,-1.0721,-1.0721,-1.0721,-1.0721,-1.0721,-1.0721,-1.0721,-1.0721,-1.0721,-1.0721,-1.0721,-1.0721,-1.0721,-1.0721,-1.0721,-1.0721,-1.0721,-1.0721,-1.0721,-0.9822,-0.9822,-0.9822,-0.9822,-0.9822,-0.9822,-0.9822,-0.9822,-0.9822,-0.9822,-0.9822,-0.9822,-0.9822,-0.9822,-0.9822,-0.9822,-0.9822,-0.9822,-0.9822,-0.9822,-0.9822,-0.9822,-0.9822,-0.9822,-0.9822,-0.9822,-0.9822,-0.9822,-0.9822,-0.9822,-0.9822,-0.9822,-0.9822,-0.9822,-0.9822,-0.9822,-0.9822,-0.9822,-0.9822,-0.9822,-0.9822,-0.9822,-0.9822,-0.9822,-0.9822,-0.9822,-0.9822,-0.9822,-0.9822,-0.9822,-0.9822,-0.9822,-0.9822,-0.9822,-0.9822,-0.9822,-0.9822,-0.9822,-0.9822,-0.9822,-0.9822,-0.9822,-0.9822,-0.9822,-0.9822,-0.9822,-0.9822,-0.9822,-0.9822,-0.9822,-0.9822,-0.9822,-0.9822,-0.9822,-0.9822,-0.9822,-0.9822,-0.9822,-0.9822,-0.9822,-0.9822,-0.9822,-0.9822,-0.9822,-0.9822,-0.9822,-0.9822,-0.9886,-0.9977,-1.0198,-1.0344,-1.0487,-1.0639,-1.0721,-1.0721,-1.0721,-1.0721,-1.0721,-1.0721,-1.0721,-1.0721,-1.0721,-1.0721,-1.0721,-1.0721,-1.0721,-1.0721,-1.0721,-1.0721,-1.0721,-1.0721,-1.0721,-1.0721,-1.0721,-1.0721,-1.0721,-0.9822,-0.9822,-0.9822,-0.9822,-0.9822,-0.9822,-0.9822,-0.9822,-0.9822,-0.9822,-0.9822,-0.9822,-0.9822,-0.9822,-0.9822,-0.9822,-0.9822,-0.9822,-0.9822,-0.9822,-0.9822,-0.9822,-0.9822,-0.9822,-0.9822,-0.9822,-0.9822,-0.9822,-0.9822,-0.9822,-0.9822,-0.9822,-0.9822,-0.9822,-0.9822,-0.9822,-0.9822,-0.9822,-0.9822,-0.9822,-0.9822,-0.9822,-0.9822,-0.9822,-0.9822,-0.9822,-0.9822,-0.9822,-0.9822,-0.9822,-0.9822,-0.9822,-0.9822,-0.9822,-0.9822,-0.9822,-0.9822,-0.9822,-0.9822,-0.9822,-0.9822,-0.9822,-0.9822,-0.9822,-0.9822,-0.9822,-0.9822,-0.9822,-0.9822,-0.9822,-0.9822,-0.9822,-0.9822,-0.9822,-0.9822,-0.9822,-0.9822,-0.9822,-0.9822,-0.9822,-0.9822,-0.9822,-0.9822,-0.9822,-0.9822,-0.9822,-0.9822,-0.99,-1.0017,-1.0212,-1.0358,-1.0524,-1.0653,-1.0721,-1.0721,-1.0721,-1.0721,-1.0721,-1.0721,-1.0721,-1.0721,-1.0721,-1.0721,-1.0721,-1.0721,-1.0721,-1.0721,-1.0721,-1.0721,-1.0721,-1.0721,-1.0721,-1.0721,-1.0721,-1.0721,-1.0721,-0.9822,-0.9822,-0.9822,-0.9822,-0.9822,-0.9822,-0.9822,-0.9822,-0.9822,-0.9822,-0.9822,-0.9822,-0.9822,-0.9822,-0.9822,-0.9822,-0.9822,-0.9822,-0.9822,-0.9822,-0.9822,-0.9822,-0.9822,-0.9822,-0.9822,-0.9822,-0.9822,-0.9822,-0.9822,-0.9822,-0.9822,-0.9822,-0.9822,-0.9822,-0.9822,-0.9822,-0.9822,-0.9822,-0.9822,-0.9822,-0.9822,-0.9822,-0.9822,-0.9822,-0.9822,-0.9822,-0.9822,-0.9822,-0.9822,-0.9822,-0.9822,-0.9822,-0.9822,-0.9822,-0.9822,-0.9822,-0.9822,-0.9822,-0.9822,-0.9822,-0.9822,-0.9822,-0.9822,-0.9822,-0.9822,-0.9822,-0.9822,-0.9822,-0.9822,-0.9822,-0.9822,-0.9822,-0.9822,-0.9822,-0.9822,-0.9822,-0.9822,-0.9822,-0.9822,-0.9822,-0.9822,-0.9822,-0.9822,-0.9822,-0.9822,-0.9822,-0.9822,-0.9947,-1.0236,-1.027,-1.0405,-1.068,-1.0711,-1.0721,-1.0721,-1.0721,-1.0721,-1.0721,-1.0721,-1.0721,-1.0721,-1.0721,-1.0721,-1.0721,-1.0721,-1.0721,-1.0721,-1.0721,-1.0721,-1.0721,-1.0721,-1.0721,-1.0721,-1.0721,-1.0721,-1.0721,-0.9822,-0.9822,-0.9822,-0.9822,-0.9822,-0.9822,-0.9822,-0.9822,-0.9822,-0.9822,-0.9822,-0.9822,-0.9822,-0.9822,-0.9822,-0.9822,-0.9822,-0.9822,-0.9822,-0.9822,-0.9822,-0.9822,-0.9822,-0.9822,-0.9822,-0.9822,-0.9822,-0.9822,-0.9822,-0.9822,-0.9822,-0.9822,-0.9822,-0.9822,-0.9822,-0.9822,-0.9822,-0.9822,-0.9822,-0.9822,-0.9822,-0.9822,-0.9822,-0.9822,-0.9822,-0.9822,-0.9822,-0.9822,-0.9822,-0.9822,-0.9822,-0.9822,-0.9822,-0.9822,-0.9822,-0.9822,-0.9822,-0.9822,-0.9822,-0.9822,-0.9822,-0.9822,-0.9822,-0.9822,-0.9822,-0.9822,-0.9822,-0.9822,-0.9822,-0.9822,-0.9822,-0.9822,-0.9822,-0.9822,-0.9822,-0.9822,-0.9822,-0.9822,-0.9822,-0.9822,-0.9822,-0.9822,-0.9822,-0.9822,-0.9822,-0.9822,-0.9822,-0.9954,-1.0263,-1.028,-1.0415,-1.0711,-1.0721,-1.0721,-1.0721,-1.0721,-1.0721,-1.0721,-1.0721,-1.0721,-1.0721,-1.0721,-1.0721,-1.0721,-1.0721,-1.0721,-1.0721,-1.0721,-1.0721,-1.0721,-1.0721,-1.0721,-1.0721,-1.0721,-1.0721,-1.0721]},{"header":{"parameterUnit":"m.s-1","parameterCategory":1,"la1":30.6,"la2":28.766,"lo1":-90.7593,"lo2":-88.6598,"dy":0.0162,"dx":0.0183,"nx":116,"ny":114,"refTime":"2023-09-16T18:00:00:Z","depth":0,"parameterNumber":3,"parameterNumberName":"V-component_of_WINDS"},"data":[0.0,0.0,0.0,0.0,0.0,0.0,0.0,0.0,0.0,0.0,0.0,0.0,0.0,0.0,0.0,0.0,0.0,0.0,0.0,0.0,0.0,0.0,0.0,0.0,0.0,0.0,0.0,0.0,0.0,0.0,0.0,0.0,0.0,0.0,0.0,0.0,0.0,0.0,0.0,0.0,0.0,0.0,0.0,0.0,0.0,0.0,0.0,0.0,0.0,0.0,0.0,0.0,0.0,0.0,0.0,0.0,0.0,0.0,0.0,0.0,0.0,0.0,0.0,0.0,0.0,0.0,0.0,0.0,0.0,0.0,0.0,0.0,0.0,0.0,0.0,0.0,0.0,0.0,0.0,0.0,0.0,0.0,0.0,0.0,0.0,0.0,0.0,0.0,0.0,0.0,0.0,0.0,0.0,0.0,0.0,0.0,0.0,0.0,0.0,0.0,0.0,0.0,0.0,0.0,0.0,0.0,0.0,0.0,0.0,0.0,0.0,0.0,0.0,0.0,0.0,0.0,0.0,0.0,0.0,0.0,0.0,0.0,0.0,0.0,0.0,0.0,0.0,0.0,0.0,0.0,0.0,0.0,0.0,0.0,0.0,0.0,0.0,0.0,0.0,0.0,0.0,0.0,0.0,0.0,0.0,0.0,0.0,0.0,0.0,0.0,0.0,0.0,0.0,0.0,0.0,0.0,0.0,0.0,0.0,0.0,0.0,0.0,0.0,0.0,0.0,0.0,0.0,0.0,0.0,0.0,0.0,0.0,0.0,0.0,0.0,0.0,0.0,0.0,0.0,0.0,0.0,0.0,0.0,0.0,0.0,0.0,0.0,0.0,0.0,0.0,0.0,0.0,0.0,0.0,0.0,0.0,0.0,0.0,0.0,0.0,0.0,0.0,0.0,0.0,0.0,0.0,0.0,0.0,0.0,0.0,0.0,0.0,0.0,0.0,0.0,0.0,0.0,0.0,0.0,0.0,0.0,0.0,0.0,0.0,0.0,0.0,0.0,0.0,0.0,0.0,0.0,0.0,0.0,0.0,0.0,0.0,0.0,0.0,0.0,0.0,0.0,0.0,0.0,0.0,0.0,0.0,0.0,0.0,0.0,0.0,0.0,0.0,0.0,0.0,0.0,0.0,0.0,0.0,0.0,0.0,0.0,0.0,0.0,0.0,0.0,0.0,0.0,0.0,0.0,0.0,0.0,0.0,0.0,0.0,0.0,0.0,0.0,0.0,0.0,0.0,0.0,0.0,0.0,0.0,0.0,0.0,0.0,0.0,0.0,0.0,0.0,0.0,0.0,0.0,0.0,0.0,0.0,0.0,0.0,0.0,0.0,0.0,0.0,0.0,0.0,0.0,0.0,0.0,0.0,0.0,0.0,0.0,0.0,0.0,0.0,0.0,0.0,0.0,0.0,0.0,0.0,0.0,0.0,0.0,0.0,0.0,0.0,0.0,0.0,0.0,0.0,0.0,0.0,0.0,0.0,0.0,0.0,0.0,0.0,0.0,0.0,0.0,0.0,0.0,0.0,0.0,0.0,0.0,0.0,0.0,0.0,0.0,0.0,0.0,0.0,0.0,0.0,0.0,0.0,0.0,0.0,0.0,0.0,0.0,0.0,0.0,0.0,0.0,0.0,0.0,0.0,0.0,0.0,0.0,0.0,0.0,0.0,0.0,0.0,0.0,0.0,0.0,0.0,0.0,0.0,0.0,0.0,0.0,0.0,0.0,0.0,0.0,0.0,0.0,0.0,0.0,0.0,0.0,0.0,0.0,0.0,0.0,0.0,0.0,0.0,0.0,0.0,0.0,0.0,0.0,0.0,0.0,0.0,0.0,0.0,0.0,0.0,0.0,0.0,0.0,0.0,0.0,0.0,0.0,0.0,0.0,0.0,0.0,0.0,0.0,0.0,0.0,0.0,0.0,0.0,0.0,0.0,0.0,0.0,0.0,0.0,0.0,0.0,0.0,0.0,0.0,0.0,0.0,0.0,0.0,0.0,0.0,0.0,0.0,0.0,0.0,0.0,0.0,0.0,0.0,0.0,0.0,0.0,0.0,0.0,0.0,0.0,0.0,0.0,0.0,0.0,0.0,0.0,0.0,0.0,0.0,0.0,0.0,0.0,0.0,0.0,0.0,0.0,0.0,0.0,0.0,0.0,0.0,0.0,0.0,0.0,0.0,0.0,0.0,0.0,0.0,0.0,0.0,0.0,0.0,0.0,0.0,0.0,0.0,0.0,0.0,0.0,0.0,0.0,0.0,0.0,0.0,0.0,0.0,0.0,0.0,0.0,0.0,0.0,0.0,0.0,0.0,0.0,0.0,0.0,0.0,0.0,0.0,0.0,0.0,0.0,0.0,0.0,0.0,0.0,0.0,0.0,0.0,0.0,0.0,0.0,0.0,0.0,0.0,0.0,0.0,0.0,0.0,0.0,0.0,0.0,0.0,0.0,0.0,0.0,0.0,0.0,0.0,0.0,0.0,0.0,0.0,0.0,0.0,0.0,0.0,0.0,0.0,0.0,0.0,0.0,0.0,0.0,0.0,0.0,0.0,0.0,0.0,0.0,0.0,0.0,0.0,0.0,0.0,0.0,0.0,0.0,0.0,0.0,0.0,0.0,0.0,0.0,0.0,0.0,0.0,0.0,0.0,0.0,0.0,0.0,0.0,0.0,0.0,0.0,0.0,0.0,0.0,0.0,0.0,0.0,0.0,0.0,0.0,0.0,0.0,0.0,0.0,0.0,0.0,0.0,0.0,0.0,0.0,0.0,0.0,0.0,0.0,0.0,0.0,0.0,0.0,0.0,0.0,0.0,0.0,0.0,0.0,0.0,0.0,0.0,0.0,0.0,0.0,0.0,0.0,0.0,0.0,0.0,0.0,0.0,0.0,0.0,0.0,0.0,0.0,0.0,0.0,0.0,0.0,0.0,0.0,0.0,0.0,0.0,0.0,0.0,0.0,0.0,0.0,0.0,0.0,0.0,0.0,0.0,0.0,0.0,0.0,0.0,0.0,0.0,0.0,0.0,0.0,0.0,0.0,0.0,0.0,0.0,0.0,0.0,0.0,0.0,0.0,0.0,0.0,0.0,0.0,0.0,0.0,0.0,0.0,0.0,0.0,0.0,0.0,0.0,0.0,0.0,0.0,0.0,0.0,0.0,0.0,0.0,0.0,0.0,0.0,0.0,0.0,0.0,0.0,0.0,0.0,0.0,0.0,0.0,0.0,0.0,0.0,0.0,0.0,0.0,0.0,0.0,0.0,0.0,0.0,0.0,0.0,0.0,0.0,0.0,0.0,0.0,0.0,0.0,0.0,0.0,0.0,0.0,0.0,0.0,0.0,0.0,0.0,0.0,0.0,0.0,0.0,0.0,0.0,0.0,0.0,0.0,0.0,0.0,0.0,0.0,0.0,0.0,0.0,0.0,0.0,0.0,0.0,0.0,0.0,0.0,0.0,0.0,0.0,0.0,0.0,0.0,0.0,0.0,0.0,0.0,0.0,0.0,0.0,0.0,0.0,0.0,0.0,0.0,0.0,0.0,0.0,0.0,0.0,0.0,0.0,0.0,0.0,0.0,0.0,0.0,0.0,0.0,0.0,0.0,0.0,0.0,0.0,0.0,0.0,0.0,0.0,0.0,0.0,0.0,0.0,0.0,0.0,0.0,0.0,0.0,0.0,0.0,0.0,0.0,0.0,0.0,0.0,0.0,0.0,0.0,0.0,0.0,0.0,0.0,0.0,0.0,0.0,0.0,0.0,0.0,0.0,0.0,0.0,0.0,0.0,0.0,0.0,0.0,0.0,0.0,0.0,0.0,0.0,0.0,0.0,0.0,0.0,0.0,0.0,0.0,0.0,0.0,0.0,0.0,0.0,0.0,0.0,0.0,0.0,0.0,0.0,0.0,0.0,0.0,0.0,0.0,0.0,0.0,0.0,0.0,0.0,0.0,0.0,0.0,0.0,0.0,0.0,0.0,0.0,0.0,0.0,0.0,0.0,0.0,0.0,0.0,0.0,0.0,0.0,0.0,0.0,0.0,0.0,0.0,0.0,0.0,0.0,0.0,0.0,0.0,0.0,0.0,0.0,0.0,0.0,0.0,0.0,0.0,0.0,0.0,0.0,0.0,0.0,0.0,0.0,0.0,0.0,0.0,0.0,0.0,0.0,0.0,0.0,0.0,0.0,0.0,0.0,0.0,0.0,0.0,0.0,0.0,0.0,0.0,0.0,0.0,0.0,0.0,0.0,0.0,0.0,0.0,0.0,0.0,0.0,0.0,0.0,0.0,0.0,0.0,0.0,0.0,0.0,0.0,0.0,0.0,0.0,0.0,0.0,0.0,0.0,0.0,0.0,0.0,0.0,0.0,0.0,0.0,0.0,0.0,0.0,0.0,0.0,0.0,0.0,0.0,0.0,0.0,0.0,0.0,0.0,0.0,0.0,0.0,0.0,0.0,0.0,0.0,0.0,0.0,0.0,0.0,0.0,0.0,0.0,0.0,0.0,0.0,0.0,0.0,0.0,0.0,0.0,0.0,0.0,0.0,0.0,0.0,0.0,0.0,0.0,0.0,0.0,0.0,0.0,0.0,0.0,0.0,0.0,0.0,0.0,0.0,0.0,0.0,0.0,0.0,0.0,0.0,0.0,0.0,0.0,0.0,0.0,0.0,0.0,0.0,0.0,0.0,0.0,0.0,0.0,0.0,0.0,0.0,0.0,0.0,0.0,0.0,0.0,0.0,0.0,0.0,0.0,0.0,0.0,0.0,0.0,0.0,0.0,0.0,0.0,0.0,0.0,0.0,0.0,0.0,0.0,0.0,0.0,0.0,0.0,0.0,0.0,0.0,0.0,0.0,0.0,0.0,0.0,0.0,0.0,0.0,0.0,0.0,0.0,0.0,0.0,0.0,0.0,0.0,0.0,0.0,0.0,0.0,0.0,0.0,0.0,0.0,0.0,0.0,0.0,0.0,0.0,0.0,0.0,0.0,0.0,0.0,0.0,0.0,0.0,0.0,0.0,0.0,0.0,0.0,0.0,0.0,0.0,0.0,0.0,0.0,0.0,0.0,0.0,0.0,0.0,0.0,0.0,0.0,0.0,0.0,0.0,0.0,0.0,0.0,0.0,0.0,0.0,0.0,0.0,0.0,0.0,0.0,0.0,0.0,0.0,0.0,0.0,0.0,0.0,0.0,0.0,0.0,0.0,0.0,0.0,0.0,0.0,0.0,0.0,0.0,0.0,0.0,0.0,0.0,0.0,0.0,0.0,0.0,0.0,0.0,0.0,0.0,0.0,0.0,0.0,0.0,0.0,0.0,0.0,0.0,0.0,0.0,0.0,0.0,0.0,0.0,0.0,0.0,0.0,0.0,0.0,0.0,0.0,0.0,0.0,0.0,0.0,0.0,0.0,0.0,0.0,0.0,0.0,0.0,0.0,0.0,0.0,0.0,0.0,0.0,0.0,0.0,0.0,0.0,0.0,0.0,0.0,0.0,0.0,0.0,0.0,0.0,0.0,0.0,0.0,0.0,0.0,0.0,0.0,0.0,0.0,0.0,0.0,0.0,0.0,0.0,0.0,0.0,0.0,0.0,0.0,0.0,0.0,0.0,0.0,0.0,0.0,0.0,0.0,0.0,0.0,0.0,0.0,0.0,0.0,0.0,0.0,0.0,0.0,0.0,0.0,0.0,0.0,0.0,0.0,0.0,0.0,0.0,0.0,0.0,0.0,0.0,0.0,0.0,0.0,0.0,0.0,0.0,0.0,0.0,0.0,0.0,0.0,0.0,0.0,0.0,0.0,0.0,0.0,0.0,0.0,0.0,0.0,0.0,0.0,0.0,0.0,0.0,0.0,0.0,0.0,0.0,0.0,0.0,0.0,0.0,0.0,0.0,0.0,0.0,0.0,0.0,0.0,0.0,0.0,0.0,0.0,0.0,0.0,0.0,0.0,0.0,0.0,0.0,0.0,0.0,0.0,0.0,0.0,0.0,0.0,0.0,0.0,0.0,0.0,0.0,0.0,0.0,0.0,0.0,0.0,0.0,0.0,0.0,0.0,0.0,0.0,0.0,0.0,0.0,0.0,0.0,0.0,0.0,0.0,0.0,0.0,0.0,0.0,2.8929,2.5648,0.0,0.0,0.0,0.0,0.0,0.0,0.0,0.0,0.0,0.0,0.0,0.0,0.0,0.0,0.0,0.0,0.0,0.0,0.0,0.0,0.0,0.0,0.0,0.0,0.0,0.0,0.0,0.0,0.0,0.0,0.0,0.0,0.0,0.0,0.0,0.0,0.0,0.0,1.8298,2.0428,2.3214,2.1696,2.0375,1.9286,0.0,0.0,0.0,0.0,0.0,0.0,0.0,0.0,0.0,0.0,0.0,0.0,0.0,0.0,0.0,0.0,0.0,0.0,0.0,0.0,0.0,0.0,0.0,0.0,0.0,0.0,0.0,0.0,0.0,0.0,0.0,0.0,0.0,0.0,0.0,0.0,0.0,0.0,0.0,0.0,0.0,0.0,0.0,0.0,0.0,0.0,0.0,0.0,0.0,0.0,0.0,0.0,0.0,0.0,0.0,0.0,0.0,0.0,0.0,0.0,0.0,0.0,0.0,0.0,0.0,0.0,0.0,0.0,0.0,0.0,3.1949,2.9822,0.0,0.0,0.0,0.0,0.0,0.0,0.0,0.0,0.0,0.0,0.0,0.0,0.0,0.0,0.0,0.0,0.0,0.0,0.0,0.0,0.0,0.0,0.0,0.0,1.2904,1.3532,1.403,1.43,0.0,0.0,0.0,0.0,0.0,0.0,0.0,1.711,1.7385,1.7954,2.0915,2.3797,2.6571,2.6571,2.519,2.2613,2.0286,0.0,0.0,0.0,0.0,0.0,0.0,0.0,0.0,0.0,0.0,0.0,0.0,0.0,0.0,0.0,0.0,0.0,0.0,0.0,0.0,0.0,0.0,0.0,0.0,0.0,0.0,0.0,0.0,0.0,0.0,0.0,0.0,0.0,0.0,0.0,0.0,0.0,0.0,0.0,0.0,0.0,0.0,0.0,0.0,0.0,0.0,0.0,0.0,0.0,0.0,0.0,0.0,0.0,0.0,0.0,0.0,0.0,0.0,0.0,0.0,0.0,0.0,0.0,3.3487,3.441,3.5745,3.5745,3.7284,3.9696,3.4864,3.4579,3.7164,3.2895,0.0,0.0,0.0,0.0,0.0,0.0,0.0,0.0,0.0,0.0,0.0,0.0,0.0,0.0,0.0,0.0,0.0,0.0,0.0,0.0,0.0,1.3109,1.3367,1.3576,1.4282,1.4762,0.0,0.0,0.0,0.0,0.0,0.0,1.7924,1.7942,1.9337,2.2199,2.6744,2.9191,2.9619,2.9619,2.9462,2.9091,2.7074,2.6313,2.6414,0.0,0.0,0.0,0.0,0.0,0.0,0.0,0.0,0.0,0.0,0.0,0.0,0.0,0.0,0.0,0.0,0.0,0.0,0.0,0.0,0.0,0.0,0.0,0.0,0.0,0.0,0.0,0.0,0.0,0.0,0.0,0.0,0.0,0.0,0.0,0.0,0.0,0.0,0.0,0.0,0.0,2.7173,2.7285,0.0,0.0,0.0,0.0,0.0,0.0,0.0,0.0,0.0,0.0,0.0,0.0,0.0,3.2583,3.3686,3.5892,3.743,3.8322,4.0546,4.172,4.1931,4.1931,4.2162,4.2566,4.179,0.0,3.904,3.8371,0.0,0.0,0.0,0.0,0.0,0.0,0.0,0.0,0.0,0.0,0.0,0.0,0.0,0.0,0.0,0.0,0.0,0.0,0.0,0.0,0.0,1.4349,1.528,1.5331,1.6907,1.7548,1.6792,1.769,0.0,0.0,0.0,1.809,1.8582,1.9934,2.2748,2.7053,2.9163,3.0889,3.2228,3.2228,3.2324,3.2523,3.2154,3.0308,2.7393,2.6429,0.0,0.0,0.0,0.0,0.0,0.0,0.0,0.0,0.0,0.0,0.0,0.0,0.0,0.0,0.0,0.0,0.0,0.0,0.0,0.0,0.0,0.0,0.0,0.0,0.0,0.0,0.0,0.0,0.0,0.0,0.0,0.0,0.0,0.0,0.0,0.0,0.0,0.0,0.0,2.45,2.6254,2.6792,2.6088,2.5217,0.0,0.0,0.0,0.0,0.0,0.0,0.0,0.0,0.0,3.5125,3.5836,3.7028,3.8844,4.0194,4.1066,4.145,4.2566,4.3335,4.3778,4.3778,4.4316,4.524,4.524,4.4889,4.4079,4.1234,3.8835,3.6839,0.0,0.0,0.0,0.0,3.6772,3.7617,0.0,0.0,0.0,0.0,0.0,0.0,0.0,0.0,0.0,0.0,0.0,0.0,1.3717,1.6022,1.7551,1.7551,1.9358,1.9903,1.8402,1.925,0.0,0.0,1.8529,1.9061,1.9452,2.2321,2.591,3.021,3.1005,3.2357,3.4119,3.4339,3.4547,3.4773,3.5422,3.3336,2.9334,2.9082,2.79,2.606,0.0,0.0,0.0,0.0,0.0,0.0,0.0,0.0,0.0,0.0,0.0,0.0,0.0,0.0,0.0,0.0,0.0,0.0,0.0,0.0,0.0,0.0,0.0,0.0,0.0,0.0,0.0,0.0,0.0,0.0,0.0,0.0,0.0,0.0,0.0,0.0,0.0,2.5764,2.7219,2.7512,2.7727,2.7218,0.0,0.0,0.0,0.0,0.0,0.0,3.325,3.4061,3.5657,3.8202,3.9099,4.0661,4.2992,4.3417,4.3816,4.4229,4.432,4.4682,4.5278,4.5278,4.599,4.7212,4.7212,4.7548,4.7807,4.4072,4.2208,4.1597,4.0281,3.9874,4.007,4.0716,4.1437,4.2446,0.0,0.0,0.0,0.0,0.0,0.0,0.0,0.0,0.0,0.0,0.0,1.575,1.5746,1.8197,1.9833,1.9833,2.0649,2.0492,1.8968,1.9796,1.9999,1.9236,1.9493,1.9979,2.0693,2.4871,2.81,3.021,3.3261,3.4821,3.4968,3.5789,3.6189,3.6203,3.624,3.596,3.5342,3.3707,3.2924,3.2388,2.7635,0.0,0.0,0.0,0.0,0.0,0.0,0.0,0.0,0.0,0.0,0.0,0.0,0.0,0.0,0.0,0.0,0.0,0.0,0.0,0.0,0.0,0.0,0.0,0.0,0.0,0.0,0.0,0.0,0.0,0.0,0.0,0.0,0.0,0.0,0.0,0.0,0.0,0.0,3.2425,3.3605,0.0,0.0,0.0,0.0,3.2289,3.3183,3.4826,3.7446,3.8353,3.9692,4.1695,4.1795,4.2655,4.439,4.4798,4.5775,4.7278,4.7673,4.7875,4.7913,4.7913,4.7971,4.8048,4.8048,4.8067,4.8086,4.7826,4.6334,4.4213,4.4109,4.2723,4.1039,4.3452,4.4399,4.4816,0.0,0.0,0.0,0.0,0.0,0.0,0.0,0.0,1.1599,1.1993,1.4035,1.563,1.6102,1.9153,2.1439,2.2136,2.3473,2.3977,2.3245,2.2663,2.2003,2.1267,2.0377,2.1295,2.4265,2.743,3.0146,3.2384,3.4349,3.532,3.5354,3.5989,3.6303,3.6321,3.685,3.703,3.6875,3.5907,3.4545,3.2896,3.1284,2.8528,0.0,0.0,0.0,0.0,0.0,0.0,0.0,0.0,0.0,0.0,0.0,0.0,0.0,0.0,0.0,0.0,0.0,0.0,0.0,0.0,0.0,0.0,0.0,0.0,0.0,0.0,0.0,0.0,0.0,0.0,0.0,0.0,0.0,0.0,0.0,0.0,0.0,3.2027,3.3702,0.0,3.3476,3.4082,3.5092,3.6431,3.7753,3.8934,3.9918,4.1224,4.2247,4.2946,4.4195,4.5118,4.5716,4.6124,4.6612,4.718,4.7545,4.7709,4.772,4.7981,4.8413,4.8933,4.8933,4.924,4.9798,5.0337,4.9057,4.678,4.678,4.665,4.6577,4.7482,4.8557,4.9708,0.0,0.0,0.0,0.0,0.0,0.0,0.0,0.0,1.19,1.2643,1.4828,1.6674,1.7613,2.1005,2.3501,2.4226,2.5714,2.6099,2.4917,2.4171,2.3207,2.1972,2.1667,2.3471,2.7693,2.9385,3.1457,3.397,3.5097,3.5643,3.5643,3.6461,3.6845,3.6863,3.7583,3.7915,3.7893,3.7521,3.6411,3.4805,3.4128,3.1722,2.8321,0.0,0.0,0.0,0.0,0.0,0.0,0.0,0.0,0.0,0.0,0.0,0.0,0.0,0.0,0.0,0.0,0.0,0.0,0.0,0.0,0.0,0.0,0.0,0.0,0.0,0.0,0.0,0.0,0.0,0.0,0.0,0.0,0.0,0.0,3.1513,3.3715,3.237,3.4835,3.6325,3.5532,3.6945,3.8597,4.0194,4.1313,4.2158,4.269,4.3736,4.4322,4.4322,4.5558,4.636,4.6638,4.7302,4.7766,4.8048,4.868,4.8972,4.8985,4.9246,4.9781,5.0472,5.0472,5.0881,5.1568,5.2125,5.1327,4.9817,4.9817,5.0228,5.08,5.08,5.1563,5.2622,0.0,0.0,0.0,0.0,0.0,0.0,0.0,1.1307,1.1911,1.361,1.653,1.8999,2.0373,2.375,2.5959,2.5995,2.707,2.6539,2.368,2.4152,2.356,2.1393,2.3475,2.6547,3.0595,3.0768,3.2091,3.4693,3.5506,3.5912,3.5948,3.7255,3.7876,3.7893,3.8449,3.8692,3.8692,3.8692,3.8707,3.8505,3.6087,3.4601,3.3338,0.0,0.0,0.0,0.0,0.0,0.0,0.0,0.0,0.0,0.0,0.0,0.0,0.0,0.0,0.0,0.0,0.0,0.0,0.0,0.0,0.0,0.0,0.0,0.0,0.0,0.0,0.0,0.0,0.0,0.0,0.0,0.0,0.0,3.0834,3.3133,3.4876,3.4119,3.7551,3.968,3.8927,4.027,4.1882,4.346,4.357,4.4267,4.581,4.5957,4.5975,4.5975,4.603,4.6434,4.7204,4.8377,4.9347,5.013,5.1314,5.1895,5.1895,5.1876,5.2172,5.2603,5.2603,5.2839,5.3203,5.3241,5.3241,5.3241,5.3222,5.3203,5.3203,5.3203,5.3222,5.3272,0.0,0.0,0.0,0.0,0.0,0.0,0.0,1.1512,1.2357,1.426,1.6517,1.8769,2.0973,2.3034,2.4732,2.5888,2.6452,2.6453,2.583,2.5473,2.478,2.3644,2.6776,2.9115,3.0246,3.2358,3.3816,3.4555,3.5706,3.6252,3.6289,3.7029,3.7396,3.7415,3.7894,3.8115,3.815,3.853,3.8707,3.8652,3.7958,3.6472,3.4527,0.0,0.0,0.0,0.0,0.0,0.0,0.0,0.0,0.0,0.0,0.0,0.0,0.0,0.0,0.0,0.0,0.0,0.0,0.0,0.0,0.0,0.0,0.0,0.0,0.0,0.0,0.0,0.0,0.0,0.0,0.0,3.377,3.5624,3.4743,3.689,3.8689,3.904,4.0598,4.1772,4.2139,4.3112,4.414,4.5149,4.5241,4.5424,4.5883,4.7003,4.7645,4.7645,4.882,4.9572,4.9793,5.0114,5.0374,5.0595,5.1191,5.1474,5.1474,5.1769,5.2172,5.2603,5.2603,5.2839,5.326,5.3876,5.4145,5.4087,5.3453,5.3203,5.3203,5.3203,5.3658,5.4379,0.0,0.0,0.0,0.0,0.0,0.0,0.0,1.1557,1.255,1.5248,1.6832,1.8789,2.169,2.3153,2.4307,2.5259,2.5664,2.5756,2.5464,2.5259,2.5507,2.6352,2.8772,3.0528,3.1461,3.3457,3.4641,3.4962,3.5698,3.6054,3.6075,3.6603,3.6845,3.6902,3.7396,3.772,3.7929,3.8232,3.8496,3.8707,3.8707,3.783,3.6435,3.5408,3.4124,3.2719,3.1316,3.081,3.0501,2.8361,0.0,0.0,0.0,0.0,0.0,0.0,0.0,0.0,0.0,0.0,0.0,0.0,0.0,0.0,0.0,0.0,0.0,0.0,0.0,0.0,0.0,0.0,0.0,0.0,3.6982,3.8927,3.9258,4.023,4.1203,4.2011,4.2818,4.3626,4.4415,4.4929,4.5681,4.6819,4.6911,4.7205,4.7921,4.8838,4.9352,4.9352,5.0288,5.0802,5.0802,5.1132,5.1298,5.1298,5.1855,5.21,5.2101,5.2344,5.2675,5.3093,5.3093,5.3432,5.4035,5.4534,5.4844,5.4953,0.0,0.0,0.0,0.0,5.4612,5.5188,0.0,0.0,0.0,0.0,0.0,0.0,0.0,1.1546,1.2673,1.6323,1.7324,1.8999,2.2433,2.3697,2.4359,2.4498,2.4938,2.486,2.4016,2.4609,2.62,2.8874,2.9956,3.1393,3.3372,3.4201,3.4945,3.56,3.56,3.56,3.5622,3.6075,3.6291,3.6333,3.6882,3.7378,3.7825,3.7876,3.82,3.8707,3.8707,3.8707,3.8469,3.6252,3.5426,3.5151,3.2981,3.2223,3.2076,3.1091,0.0,0.0,0.0,0.0,0.0,0.0,0.0,0.0,0.0,0.0,0.0,0.0,0.0,0.0,0.0,0.0,0.0,0.0,0.0,0.0,0.0,0.0,0.0,0.0,4.0377,4.2745,4.3626,4.3222,4.3075,4.3699,4.4488,4.5259,4.5975,4.6214,4.6911,4.8343,4.8526,4.9242,5.0729,5.0894,0.0,0.0,0.0,5.1077,5.1077,5.1775,5.2142,5.2142,5.2858,5.3185,5.3185,5.3185,5.3422,5.3796,5.3796,5.427,5.5034,5.5075,5.5331,5.5703,5.5703,5.5703,5.5703,5.5703,5.5703,5.5703,0.0,0.0,0.0,0.0,0.0,0.0,0.0,1.1736,1.3094,1.6995,1.7608,1.9163,2.3011,2.3627,2.4149,2.5111,2.4874,2.4936,2.5599,2.7209,2.8383,2.8976,3.141,3.2966,3.3389,3.4704,3.5447,3.56,3.56,3.56,3.56,3.5694,3.5761,3.5783,3.6312,3.6843,3.736,3.7737,3.82,3.8707,3.8707,3.8707,3.8652,3.8175,3.7976,3.7918,3.7459,3.7294,3.6964,3.4802,3.4069,3.3592,3.084,2.9659,0.0,0.0,0.0,0.0,0.0,0.0,0.0,0.0,0.0,0.0,0.0,0.0,0.0,0.0,0.0,0.0,0.0,0.0,0.0,3.9163,4.1605,4.3773,4.5223,4.5865,4.5975,4.548,4.6159,4.6691,4.6856,4.8086,4.9023,4.9335,4.9939,5.0472,5.0784,5.1426,5.1756,5.1756,5.2399,5.2726,5.2726,5.2894,5.2968,5.2968,5.3133,0.0,5.3185,5.3185,5.3422,5.3796,5.3796,5.4118,5.4625,5.4966,5.5331,5.5703,5.5703,5.5703,5.5703,5.5703,5.5703,5.5703,0.0,0.0,0.0,0.0,0.0,0.0,0.0,1.1805,1.2867,1.5859,1.6548,1.7864,2.0827,2.144,2.1888,2.2483,2.3075,2.4067,2.5656,2.7514,2.9185,3.0581,3.2408,3.3575,3.3947,3.5025,3.56,3.56,3.56,3.56,3.56,3.56,3.56,3.5622,3.5876,3.6291,3.6843,3.7341,3.7843,3.8316,3.8578,3.8707,3.8707,3.8707,3.8707,3.8707,3.8707,3.8707,3.8505,3.7261,3.6839,3.6564,3.4963,3.3605,3.2289,0.0,0.0,0.0,0.0,0.0,0.0,0.0,0.0,0.0,0.0,0.0,0.0,0.0,0.0,3.4546,3.6986,0.0,4.0084,4.2506,4.425,4.559,4.6397,4.7572,4.7884,4.6654,4.7609,4.8343,4.8343,4.9462,5.0362,5.0785,5.1169,5.1573,5.1995,5.238,5.2601,5.2601,5.3004,5.3185,5.3185,5.3185,5.3185,5.3185,5.3185,5.3185,5.3185,5.3185,5.3316,5.3485,5.3485,5.3758,5.4204,5.4833,5.5331,5.5703,5.5703,5.5703,5.5703,5.5703,5.5703,5.5703,0.0,0.0,0.0,0.0,0.0,0.0,0.0,1.1805,1.2523,1.4541,1.538,1.6533,1.8493,1.9286,1.9708,1.9708,2.1675,2.3619,2.5293,2.7362,2.9663,3.2188,3.3,3.3744,3.4472,3.5211,3.56,3.56,3.56,3.56,3.56,3.56,3.56,3.56,3.56,3.5898,3.6437,3.6962,3.747,3.7946,3.8481,3.8707,3.8707,3.8707,3.8707,3.8707,3.8707,3.8707,3.8707,3.8707,3.8707,3.8707,3.8707,3.7334,3.5334,3.339,3.2375,0.0,0.0,0.0,0.0,0.0,0.0,0.0,0.0,3.1953,3.254,3.5756,3.6545,3.7701,4.115,4.1921,4.2947,4.57,4.6672,4.7204,4.7535,4.8746,4.917,4.7957,4.9003,4.9831,4.9831,5.0563,5.1298,5.194,5.2142,5.2527,5.3167,5.3185,5.3185,5.3185,5.3185,5.3185,5.3185,5.3185,5.3185,5.3185,5.3185,5.3185,5.3185,5.3185,5.3185,5.3185,5.3185,5.3484,5.3995,5.4682,5.5269,5.5703,5.5703,5.5703,5.5703,5.5703,5.5703,5.5703,0.0,0.0,0.0,0.0,0.0,0.0,0.0,0.0,1.2523,1.4541,1.538,1.6533,1.8493,1.9286,1.9708,1.9708,2.3042,2.5219,2.5389,2.8314,3.0746,3.2239,3.3,3.3744,3.4472,3.5211,3.56,3.56,3.56,3.56,3.56,3.56,3.56,3.56,3.56,3.5898,3.6437,3.6962,3.747,3.7946,3.8481,3.8707,3.8707,3.8707,3.8707,3.8707,3.8707,3.8707,3.8707,3.8707,3.8707,3.8707,3.8707,3.8505,3.7679,3.4578,3.3605,3.2834,2.961,2.9519,3.0815,3.2779,3.2742,3.3555,0.0,3.8212,3.7603,4.0818,4.2047,4.291,4.4085,4.4892,4.5718,4.6782,4.7039,4.7608,4.9115,4.9482,4.9812,5.0325,5.0545,5.0674,5.0674,5.1389,5.1885,5.1977,5.2656,5.3115,5.3185,5.3185,5.3185,5.3185,5.3185,5.3185,5.3185,5.3185,5.3185,5.3185,5.3185,5.3185,5.3185,5.3185,5.3185,5.3185,5.3185,5.3662,5.4439,5.4535,5.5021,5.5703,5.5703,5.5703,5.5703,5.5703,5.5703,5.5703,0.0,0.0,0.0,0.0,0.0,0.0,0.0,0.0,0.0,0.0,1.3628,1.4511,1.5725,1.6802,1.7581,1.7923,2.1563,2.4121,2.4834,2.8272,3.0912,3.2239,3.3,3.3744,3.4472,3.5211,3.56,3.56,3.56,3.56,3.56,3.56,3.56,3.56,3.56,3.5717,3.6006,3.6825,3.7304,3.756,3.8366,3.8707,3.8707,3.8707,3.8707,3.8579,3.7643,3.7294,0.0,3.7294,3.7294,3.7477,3.8395,3.8065,3.6835,3.4486,3.3807,3.3825,3.3917,3.3476,3.3573,3.6046,3.6395,3.6909,3.9753,3.9974,4.0377,4.313,4.4342,4.5149,4.5938,4.636,4.6856,4.7663,4.7791,4.8233,4.9445,4.9994,5.06,5.1389,5.1922,5.2013,5.1536,5.2234,5.2711,5.2711,5.3023,5.3185,5.3185,5.3185,5.3185,5.3185,5.3185,5.3185,5.3185,5.3185,5.3185,5.3185,5.3185,5.3185,5.3185,5.3185,5.3185,5.3185,5.3185,5.3543,5.4083,5.4083,5.4591,5.5343,5.5343,5.5501,5.5703,5.5703,5.5703,5.5703,0.0,0.0,0.0,0.0,0.0,0.0,0.0,0.0,0.0,0.0,1.2385,1.3133,1.3989,1.4946,1.5887,1.6789,1.971,2.2411,2.4495,2.7512,3.0125,3.2222,3.3,3.3744,3.4472,3.5211,3.56,3.56,3.56,3.56,3.56,3.56,3.56,3.56,3.56,3.56,3.5672,3.6746,3.7209,3.7303,3.8302,3.8707,3.8707,3.8707,3.8432,3.7881,3.6725,3.6303,3.6229,3.5771,3.5605,3.5807,3.6982,3.6541,3.533,3.3899,3.3311,3.3623,3.5877,3.5936,3.594,3.8414,3.9368,3.9955,4.0983,4.168,4.2636,4.4635,4.5681,4.6416,4.6984,4.7278,4.7608,4.8214,4.8508,4.8948,4.9793,5.0618,5.1426,5.2234,5.2858,5.2968,5.238,5.2858,5.3185,5.3185,5.3185,5.3185,5.3185,5.3185,5.3185,5.3185,5.3185,5.3185,5.3185,5.3185,5.3185,5.3185,5.3185,5.3185,5.3185,5.3185,5.3185,5.3185,5.3185,5.3442,5.3796,5.3796,5.4301,5.5088,5.5088,5.5363,5.5703,5.5703,5.5703,5.5703,0.0,0.0,0.0,0.0,0.0,0.0,0.0,0.0,0.0,0.0,0.0,0.0,0.0,1.4811,1.5489,1.7142,1.8229,2.0581,2.4709,2.594,2.8263,3.2134,3.3,3.3744,3.4472,3.5211,3.56,3.56,3.56,3.56,3.56,3.56,3.56,3.56,3.56,3.56,3.5672,3.6746,3.7209,3.7303,3.8302,3.8707,3.8707,3.8707,3.7734,3.6358,3.6321,0.0,3.6046,3.4412,3.388,3.388,3.3935,3.3917,3.3715,3.2876,3.2082,3.1837,3.3458,3.5055,3.6835,3.9258,4.1038,4.2616,4.4195,4.4563,4.4837,4.5681,4.6507,4.7076,4.7094,4.7736,4.8269,4.8306,4.9003,4.9849,5.0655,5.1463,5.2252,5.3057,5.3206,5.3185,5.3167,5.3206,5.3185,5.3185,5.3185,5.3185,5.3185,5.3185,5.3185,5.3185,5.3185,5.3185,5.3185,5.3185,5.3185,5.3185,5.3185,5.3185,5.3185,5.3185,5.3185,5.3185,5.3185,5.3442,5.3796,5.3796,5.4301,5.5088,5.5088,5.5363,5.5703,5.5703,5.5703,5.5703,0.0,0.0,0.0,0.0,0.0,0.0,0.0,0.0,0.0,0.0,0.0,0.0,0.0,0.0,0.0,0.0,1.7676,1.9763,2.163,2.524,2.7923,2.9261,3.1952,3.3525,3.3761,3.4957,3.56,3.56,3.56,3.56,3.56,3.56,3.56,3.56,3.56,3.56,3.5672,3.6746,3.7209,3.7303,3.8302,3.8707,3.8524,3.6876,3.5903,3.5151,0.0,3.2596,3.2957,3.2406,3.2559,3.3201,3.4252,3.4215,3.3532,3.2192,3.2375,3.3458,3.5656,3.7456,3.9258,4.1697,4.3094,4.403,4.458,4.5517,4.636,4.6636,4.6049,4.5663,4.6214,4.6104,4.6104,4.6617,4.7847,4.9224,5.0618,5.1041,5.1701,5.3038,5.3185,5.3185,5.3185,5.3185,5.3185,5.3185,5.3185,5.3185,5.3185,5.3185,5.3185,5.3185,5.3185,5.3185,5.3185,5.3185,5.3185,5.3185,5.3185,5.3185,5.3185,5.3185,5.3185,5.3185,5.3185,5.3293,5.3402,5.3402,5.3739,5.4253,5.4253,5.4663,5.5306,5.5306,5.5477,5.5703,0.0,0.0,0.0,0.0,0.0,0.0,0.0,0.0,0.0,0.0,0.0,0.0,0.0,0.0,0.0,0.0,0.0,1.8368,1.9852,2.3265,2.5647,2.6573,2.9176,3.0615,3.0615,3.1816,3.254,3.281,3.3622,3.4167,3.4455,3.5228,3.56,3.56,3.56,3.56,3.5672,3.6746,3.6695,3.5971,3.696,3.6872,3.5917,3.4321,3.3353,0.0,3.0852,3.0155,3.0166,3.0448,3.1091,3.1922,3.2949,3.3316,3.3275,3.2816,3.3642,3.5293,3.8028,3.9753,4.1258,4.3387,4.4525,4.5204,4.548,4.636,4.7186,4.7461,4.625,4.5296,4.5792,4.548,4.5112,4.5039,4.6636,4.8342,4.9719,5.0178,5.1077,5.2986,5.3185,5.3185,5.3185,5.3185,5.3185,5.3185,5.3185,5.3185,5.3185,5.3185,5.3185,5.3185,5.3185,5.3185,5.3185,5.3185,5.3185,5.3185,5.3185,5.3185,5.3185,5.3185,5.3185,5.3185,5.3185,5.3185,5.3185,5.3185,5.3442,5.3796,5.3796,5.4253,5.489,5.5048,5.546,5.5934,0.0,0.0,0.0,0.0,0.0,0.0,0.0,0.0,0.0,0.0,0.0,0.0,0.0,0.0,0.0,0.0,0.0,0.0,1.9336,2.0221,2.1745,2.4222,2.5152,2.5592,2.5592,2.6319,2.7046,2.7739,2.9905,3.1345,3.2056,3.4201,3.5194,3.5194,3.5245,3.5261,3.5333,3.6376,3.5472,3.3422,3.4388,3.3431,3.1397,3.1268,3.0283,2.9097,2.9769,2.9053,2.7915,2.873,2.961,3.0411,3.054,3.1647,3.3206,3.4747,3.583,3.7221,4.0306,4.1791,4.28,4.4378,4.5369,4.6159,4.6929,4.7131,4.7351,4.8049,4.6856,4.57,4.5663,4.5681,4.5241,4.3808,4.5626,4.7516,4.8379,4.9187,5.0602,5.2931,5.3185,5.3185,5.3185,5.3185,5.3185,5.3185,5.3185,5.3185,5.3185,5.3185,5.3185,5.3185,5.3185,5.3185,5.3185,5.3185,5.3185,5.3185,5.3185,5.3185,5.3185,5.3185,5.3185,5.3185,5.3185,5.3185,5.3185,5.3185,5.3404,5.3758,5.3758,5.4086,5.4576,5.4981,5.5698,5.6395,0.0,0.0,0.0,0.0,0.0,0.0,0.0,0.0,0.0,0.0,0.0,0.0,0.0,0.0,0.0,0.0,0.0,0.0,1.7011,1.9579,2.1346,2.202,2.4323,2.5592,2.5592,2.6319,2.6793,2.6979,2.7554,2.7943,2.8163,2.9279,2.9802,2.9818,3.0412,3.0685,3.0724,3.1358,3.1403,3.1099,3.1704,3.1735,3.1213,2.9414,2.8833,2.8877,2.7868,2.764,2.7915,2.873,3.073,3.3201,3.5069,3.6321,3.7239,3.7643,3.8747,4.0194,4.1607,4.302,4.4342,4.5351,4.6214,4.6837,4.7058,4.7553,4.7719,4.6728,4.4764,4.3039,4.2416,4.2818,4.3479,4.4268,4.6966,4.9444,5.0857,5.1242,5.183,5.3078,5.3185,5.3185,5.3185,5.3185,5.3185,5.3185,5.3185,5.3185,5.3185,5.3185,5.3185,5.3185,5.3185,5.3185,5.3185,5.3185,5.3185,5.3185,5.3185,5.3185,5.3185,5.3185,5.3185,5.3185,5.3185,5.3185,5.3185,5.3185,5.3251,5.3359,5.3359,5.3975,5.4929,5.5387,5.6276,5.7322,0.0,0.0,0.0,0.0,0.0,0.0,0.0,0.0,0.0,0.0,0.0,0.0,0.0,0.0,0.0,0.0,0.0,0.0,0.0,1.7943,1.9362,1.9688,2.1295,2.2178,2.2178,2.2581,2.2953,2.3274,2.4272,2.4932,2.527,2.6674,2.7334,2.7351,2.8129,2.8467,2.8521,2.9136,2.889,0.0,0.0,2.8182,2.7567,2.6209,2.641,2.7346,2.6796,2.7805,2.9561,3.0723,3.2797,3.5202,3.696,3.8046,3.8836,3.9536,4.038,4.1425,4.2947,4.4268,4.5351,4.5792,4.6783,4.7351,4.6287,4.6673,4.6783,4.5168,4.3204,4.1644,4.1168,4.2324,4.3424,4.3608,4.6673,4.9462,5.0729,5.0894,5.1463,5.3023,5.3185,5.3185,5.3185,5.3185,5.3185,5.3185,5.3185,5.3185,5.3185,5.3185,5.3185,5.3185,5.3185,5.3185,5.3185,5.3185,5.3185,5.3185,5.3185,5.3185,5.3185,5.3185,5.3185,5.3185,5.3185,5.3185,5.3185,5.3185,5.3427,5.3739,5.3739,5.437,5.5348,5.5983,5.6929,5.795,0.0,0.0,0.0,0.0,0.0,0.0,0.0,0.0,0.0,0.0,0.0,0.0,0.0,0.0,0.0,0.0,0.0,0.0,0.0,0.0,0.0,1.7642,1.7749,1.78,1.78,1.78,1.8104,1.8741,2.0724,2.204,2.2699,2.4712,2.5659,2.5693,2.6438,2.6759,2.6809,2.7539,2.669,2.4799,2.4835,2.4106,2.3006,0.0,0.0,2.5521,2.6429,2.876,3.1654,3.3256,3.5055,3.678,3.7694,3.8597,3.9606,4.102,4.1407,4.1921,4.4214,4.5296,4.581,4.614,4.7186,4.7553,4.5351,4.5406,4.5369,4.3552,4.2066,4.1022,4.082,4.2655,4.3902,4.2947,4.5883,4.871,4.9829,4.9994,5.0784,5.2949,5.3185,5.3185,5.3185,5.3185,5.3185,5.3185,5.3185,5.3185,5.3185,5.3185,5.3185,5.3185,5.3185,5.3185,5.3185,5.3185,5.3185,5.3185,5.3185,5.3185,5.3185,5.3185,5.3185,5.3185,5.3185,5.3185,5.3203,5.3314,5.3775,5.4418,5.4528,5.5042,5.5874,5.6759,5.7616,5.8483,0.0,0.0,0.0,0.0,0.0,0.0,0.0,0.0,0.0,0.0,0.0,0.0,0.0,0.0,0.0,0.0,0.0,0.0,0.0,0.0,0.0,0.0,1.7473,1.78,1.78,1.78,1.785,1.7986,1.8391,1.8645,1.878,1.979,2.0247,2.0281,2.1028,2.1353,2.138,2.1751,2.1808,2.1695,2.1926,2.2399,2.3006,0.0,0.0,0.0,2.7064,2.923,3.1654,3.3256,3.5807,3.8542,3.9994,4.1479,4.2708,4.3002,4.3075,4.3461,4.5223,4.5314,4.5388,4.7388,4.759,4.7021,4.5938,4.5792,4.5076,4.2121,4.1279,4.0691,3.9368,4.0545,4.2489,4.4892,4.6985,4.9297,5.216,5.2564,5.2729,5.3148,5.3185,5.3185,5.3185,5.3185,5.3185,5.3185,5.3185,5.3185,5.3185,5.3185,5.3185,5.3185,5.3185,5.3185,5.3185,5.3185,5.3185,5.3185,5.3185,5.3185,5.3185,5.3185,5.3185,5.3185,5.3185,5.3185,5.324,5.3922,5.4271,5.4473,5.5115,5.5886,5.6698,5.764,5.8501,5.9318,0.0,0.0,0.0,0.0,0.0,0.0,0.0,0.0,0.0,0.0,0.0,0.0,0.0,0.0,0.0,0.0,0.0,0.0,0.0,0.0,0.0,0.0,0.0,0.0,1.7783,1.78,1.78,1.78,0.0,1.78,1.78,1.8155,1.8335,1.8369,1.9113,1.952,1.9658,1.9916,2.046,2.1097,2.0952,2.1726,0.0,0.0,0.0,0.0,0.0,2.9359,3.1525,3.2296,3.5293,3.8982,4.0581,4.2194,4.3515,4.3515,4.3515,4.3772,4.4947,4.5002,4.5094,4.6654,4.7076,4.6562,4.4507,4.4342,4.3736,4.0508,3.9848,3.9625,3.8836,4.0359,4.2231,4.3773,4.6801,4.9499,5.1059,5.2399,5.3185,5.3185,5.3185,5.3185,5.3185,5.3185,5.3185,5.3185,5.3185,5.3185,5.3185,5.3185,5.3185,5.3185,5.3185,5.3185,5.3185,5.3185,5.3185,5.3185,5.3185,5.3185,5.3185,5.3185,5.3185,5.3185,5.3185,5.3445,5.3849,5.4234,5.4895,5.5702,5.6069,5.6875,5.7867,5.8576,5.9221,5.987,0.0,0.0,0.0,0.0,0.0,0.0,0.0,0.0,1.3714,1.3885,1.3906,1.3791,1.3535,1.3511,0.0,0.0,0.0,0.0,0.0,0.0,0.0,0.0,0.0,0.0,0.0,0.0,0.0,1.7645,1.7881,0.0,0.0,0.0,0.0,0.0,1.8569,1.896,1.9177,1.9447,2.0146,0.0,0.0,2.1502,0.0,0.0,0.0,0.0,0.0,2.887,3.0717,3.1231,3.4174,3.7936,3.957,4.1405,4.2983,4.2983,4.2983,4.324,4.4397,4.4691,4.4947,4.592,4.6617,4.6305,4.3259,4.3039,4.258,3.9368,3.8707,3.8707,3.8707,4.0249,4.1699,4.2213,4.5663,4.8582,4.9407,5.1353,5.28,5.317,5.3185,5.3185,5.3185,5.3185,5.3185,5.3185,5.3185,5.3185,5.3185,5.3185,5.3185,5.3185,5.3185,5.3185,5.3185,5.3185,5.3185,5.3185,5.3185,5.3185,5.3185,5.3185,5.3185,5.3203,5.339,5.383,5.4436,5.4766,5.5666,5.6822,5.6987,5.7728,5.8755,5.9231,5.9693,6.0161,0.0,0.0,0.0,0.0,0.0,0.0,0.0,0.0,1.3885,1.3906,1.3906,1.3892,1.3856,1.3856,0.0,0.0,0.0,0.0,0.0,0.0,0.0,0.0,0.0,0.0,0.0,0.0,0.0,1.7168,1.8079,0.0,0.0,0.0,0.0,0.0,0.0,1.8643,1.8682,1.8941,0.0,0.0,0.0,0.0,0.0,0.0,0.0,0.0,0.0,2.7328,2.8477,3.0662,3.2682,3.4541,3.6211,3.8854,4.1315,4.1315,4.1315,4.1811,4.4067,4.4691,4.5058,4.6599,4.7058,4.6452,4.3956,4.346,4.258,3.9368,3.8707,3.8707,3.8707,3.8891,3.9753,4.1937,4.3277,4.5369,4.9078,5.0417,5.1573,5.3041,5.3185,5.3185,5.3185,5.3185,5.3185,5.3185,5.3185,5.3185,5.3185,5.3185,5.3185,5.3185,5.3185,5.3185,5.3185,5.3185,5.3185,5.3185,5.3185,5.3185,5.3185,5.3185,5.3185,5.3243,5.3977,5.4326,5.4509,5.5978,5.6675,5.6877,5.7593,5.823,5.8755,5.9231,5.9693,6.0161,0.0,0.0,0.0,0.0,0.0,0.0,0.0,1.4072,1.4129,1.4251,1.4264,1.4225,1.4085,1.4188,0.0,0.0,0.0,0.0,0.0,0.0,0.0,0.0,0.0,0.0,0.0,0.0,1.6562,1.6562,1.7443,0.0,0.0,0.0,0.0,0.0,0.0,1.8697,1.8861,1.8949,0.0,0.0,0.0,0.0,0.0,0.0,0.0,0.0,0.0,0.0,2.8081,3.0026,3.2063,3.3825,3.4027,3.5991,3.8597,4.0526,4.1095,4.1517,4.3461,4.4342,4.4966,4.6104,4.5993,4.5278,4.3828,4.2745,4.1423,3.9166,3.8707,3.8707,3.8707,3.8707,3.9166,4.0616,4.2341,4.4232,4.6342,4.9058,5.1041,5.1683,5.2619,5.3185,5.3185,5.3185,5.3185,5.3185,5.3185,5.3185,5.3185,5.3185,5.3185,5.3185,5.3185,5.3185,5.3185,5.3185,5.3185,5.3185,5.3185,5.3185,5.3185,5.3185,5.3185,5.3243,5.4051,5.4675,5.5207,5.6345,5.7097,5.7556,5.7868,5.8442,5.9139,5.9319,5.9885,6.0553,0.0,0.0,0.0,0.0,0.0,0.0,1.427,1.4289,1.435,1.4476,1.4493,1.4453,1.4301,1.4429,1.4387,1.411,0.0,0.0,0.0,0.0,0.0,0.0,0.0,0.0,0.0,0.0,1.6433,1.668,1.7538,1.7948,0.0,0.0,1.8816,1.8816,0.0,0.0,0.0,0.0,0.0,0.0,0.0,0.0,0.0,0.0,0.0,0.0,0.0,0.0,0.0,0.0,0.0,3.3134,3.2732,3.3972,3.6101,3.8872,4.0029,4.0728,4.2341,4.3901,4.5186,4.5755,4.548,4.4782,4.3753,4.2268,4.0636,3.9038,3.8707,3.8707,3.8707,3.8707,3.8964,3.9772,4.1534,4.324,4.4525,4.7388,4.9536,4.9994,5.1077,5.1958,5.2433,5.291,5.3185,5.3185,5.3185,5.3185,5.3185,5.3185,5.3185,5.3185,5.3185,5.3185,5.3185,5.3185,5.3185,5.3185,5.3185,5.3185,5.3185,5.3185,5.3335,5.361,5.4418,5.5207,5.6014,5.6822,5.7483,5.7997,5.7997,5.857,5.9389,5.9389,5.9977,6.08,0.0,0.0,0.0,0.0,0.0,0.0,0.0,1.4506,1.4506,1.4493,1.4493,1.4493,1.4506,1.4493,1.4493,1.4488,0.0,0.0,0.0,0.0,0.0,0.0,0.0,0.0,0.0,0.0,1.6992,1.7775,1.8791,1.9271,1.9271,1.9289,1.9289,1.9289,0.0,0.0,0.0,0.0,0.0,0.0,0.0,0.0,0.0,0.0,0.0,0.0,0.0,0.0,0.0,0.0,0.0,0.0,0.0,3.3151,3.4156,3.5844,3.7477,3.9093,4.0691,4.3461,4.5883,4.5902,4.5883,4.5461,4.3846,4.2268,4.0636,3.9038,3.8707,3.8707,3.8707,3.8707,3.8964,3.9772,4.0598,4.1957,4.4361,4.5424,4.6544,4.8141,4.8343,4.9003,5.0655,5.227,5.3185,5.3185,5.3185,5.3185,5.3185,5.3185,5.3185,5.3185,5.3185,5.3185,5.3185,5.3185,5.3185,5.3185,5.3185,5.3185,5.3185,5.3185,5.3628,5.4436,5.5225,5.6033,5.6859,5.7666,5.7997,5.7997,5.7997,5.857,5.9389,5.9389,5.9977,6.08,0.0,0.0,0.0,0.0,0.0,0.0,0.0,0.0,1.4493,1.4493,1.4493,1.4493,1.4493,1.4493,1.4493,1.4493,0.0,0.0,0.0,0.0,0.0,0.0,0.0,0.0,0.0,0.0,1.6924,1.7187,1.8049,1.8482,1.8482,1.904,1.9297,1.9297,1.9297,1.9297,0.0,0.0,0.0,0.0,0.0,0.0,2.1552,0.0,0.0,0.0,0.0,0.0,0.0,0.0,0.0,0.0,0.0,0.0,0.0,3.4431,3.6138,3.8245,3.9845,4.1827,4.3442,4.3442,4.3039,4.2506,4.1992,4.0616,3.9331,3.8817,3.8707,3.8707,3.8707,3.8707,3.9148,4.0506,4.093,4.1754,4.3626,4.5993,4.7737,4.8251,5.0288,5.1846,5.2399,5.2892,5.3185,5.3185,5.3185,5.3185,5.3185,5.3185,5.3185,5.3185,5.3185,5.3185,5.3185,5.3185,5.3185,5.3185,5.3185,5.3185,5.3185,5.3185,5.3647,5.4436,5.5244,5.6051,5.6877,5.7666,5.819,5.8463,5.8463,5.9047,5.9885,5.9885,6.0264,6.08,0.0,0.0,0.0,0.0,0.0,0.0,0.0,0.0,1.4493,1.4493,1.4493,1.4493,1.4493,1.455,1.4584,1.4584,0.0,0.0,0.0,0.0,0.0,0.0,0.0,0.0,0.0,1.7529,1.7696,1.7993,1.8494,1.8736,1.8754,1.9256,1.9497,1.9497,1.9497,1.9497,0.0,0.0,0.0,0.0,0.0,0.0,2.1414,0.0,0.0,0.0,0.0,0.0,0.0,0.0,0.0,0.0,0.0,0.0,0.0,0.0,3.5827,3.759,3.8688,4.0598,4.2304,4.2304,4.1699,4.1095,4.1095,3.9863,3.8707,3.8707,3.8707,3.8707,3.8707,3.8707,3.9239,4.0838,4.1095,4.1866,4.4085,4.6122,4.7627,4.8233,5.0674,5.2307,5.2307,5.2837,5.3185,5.3185,5.3185,5.3185,5.3185,5.3185,5.3185,5.3185,5.3185,5.3185,5.3185,5.3185,5.3185,5.3185,5.3185,5.3185,5.3203,5.3518,5.4087,5.4895,5.5702,5.651,0.0,5.7795,5.8282,5.8694,5.8694,5.9266,6.0103,6.0103,6.0397,6.08,0.0,0.0,0.0,0.0,0.0,0.0,0.0,0.0,0.0,0.0,0.0,1.4511,1.4511,1.463,0.0,0.0,0.0,0.0,0.0,0.0,0.0,0.0,0.0,0.0,0.0,1.8699,1.9047,1.979,1.979,1.979,1.979,1.979,1.979,1.979,1.979,1.979,0.0,0.0,0.0,0.0,0.0,0.0,0.0,0.0,0.0,0.0,0.0,0.0,0.0,0.0,0.0,0.0,0.0,0.0,0.0,0.0,0.0,0.0,0.0,3.9745,4.2062,4.2047,4.1479,4.093,4.093,3.9756,0.0,3.8707,3.8707,3.8707,3.8707,3.8762,3.9294,4.0838,4.115,4.2288,4.5461,4.6104,4.6819,4.8379,4.9994,5.0949,5.0894,5.2307,5.3185,5.3185,5.3185,5.3185,5.3185,5.3185,5.3185,5.3185,5.3185,5.3185,5.3185,5.3185,5.3185,5.3185,5.3185,5.3185,5.3222,5.4032,5.484,5.5629,5.6455,5.7262,5.7997,5.7997,5.8304,5.8755,5.8755,5.9319,6.0146,6.0146,6.0424,6.08,0.0,0.0,0.0,0.0,0.0,0.0,0.0,0.0,0.0,0.0,0.0,1.4656,1.4656,1.4771,0.0,0.0,0.0,0.0,0.0,0.0,0.0,0.0,0.0,0.0,0.0,1.9513,1.9607,1.979,1.979,1.979,1.979,1.979,1.979,1.979,1.979,1.979,1.9821,0.0,0.0,0.0,0.0,0.0,0.0,0.0,0.0,0.0,2.6427,2.7473,0.0,0.0,0.0,0.0,0.0,0.0,0.0,0.0,3.6888,3.8041,3.7864,0.0,3.98,3.9593,3.9405,3.9258,0.0,3.8982,3.8707,3.8707,3.8707,3.8707,3.8707,3.9203,3.9937,4.093,4.1625,4.2928,4.5535,4.8067,5.0013,5.1004,5.2032,5.2399,5.1775,5.2619,5.3185,5.3185,5.3185,5.3185,5.3185,5.3185,5.3185,5.3185,5.3185,5.3185,5.3185,5.3185,5.3185,5.3185,5.3185,5.3185,5.3222,5.4032,5.484,5.5629,5.6455,5.7262,5.7997,5.7997,5.8484,5.9249,5.9249,5.9823,6.0634,6.0634,6.0702,6.08,0.0,0.0,0.0,0.0,0.0,0.0,0.0,0.0,0.0,0.0,0.0,0.0,0.0,0.0,0.0,0.0,0.0,0.0,0.0,0.0,0.0,0.0,0.0,0.0,2.0026,2.0026,2.0026,2.0026,2.0026,2.0026,2.0026,2.0026,2.0026,2.0026,2.0026,2.0026,2.0069,2.0503,2.0688,0.0,2.1646,0.0,0.0,0.0,0.0,0.0,2.6925,2.8173,0.0,3.0938,3.2283,3.3355,0.0,0.0,0.0,0.0,3.7395,3.8279,3.8597,3.8894,3.9036,3.8777,3.8707,3.8707,3.8707,3.8707,3.8707,3.8707,3.9001,3.9239,3.9239,4.0506,4.157,4.1644,4.3242,4.5094,4.6764,4.8526,5.0105,5.1316,5.183,5.2215,5.2527,5.2949,5.3185,5.3185,5.3185,5.3185,5.3185,5.3185,5.3185,5.3185,5.3185,5.3185,5.3185,5.3185,5.3185,5.3185,5.3185,5.3185,5.3243,5.4418,5.5188,5.5666,5.684,5.7593,5.802,5.8216,5.8755,5.9407,5.9644,6.0161,6.08,6.08,6.08,6.08,0.0,0.0,0.0,0.0,0.0,0.0,0.0,0.0,0.0,0.0,0.0,0.0,0.0,0.0,0.0,0.0,0.0,0.0,0.0,0.0,0.0,0.0,0.0,2.0308,2.0308,2.0308,2.0308,2.0308,2.0308,2.0308,2.0308,2.0308,2.0365,2.0481,2.0615,2.0673,2.0731,2.1408,2.1696,2.1773,2.2643,0.0,0.0,0.0,0.0,0.0,0.0,0.0,0.0,3.1545,3.291,3.4225,3.4359,0.0,0.0,0.0,0.0,0.0,3.9412,3.9614,3.9415,3.8903,3.8735,3.8707,3.8707,3.8707,3.8726,3.8854,3.9423,4.001,4.0393,4.2011,4.3167,4.2745,4.526,4.7608,4.8563,4.8893,4.9536,5.0839,5.1096,5.1665,5.2913,5.3133,5.3185,5.3185,5.3185,5.3185,5.3185,5.3185,5.3185,5.3185,5.3185,5.3185,5.3185,5.3185,5.3185,5.3185,5.3185,5.3259,5.3424,5.4913,5.5666,5.5868,5.7354,5.7997,5.8024,5.8505,5.8971,5.946,5.9916,6.0397,6.08,6.08,6.08,6.08,0.0,0.0,0.0,0.0,0.0,0.0,0.0,0.0,0.0,0.0,0.0,0.0,0.0,0.0,0.0,0.0,0.0,0.0,0.0,0.0,0.0,0.0,2.0308,2.0308,2.0308,2.0308,2.0308,2.0308,2.0308,2.0308,2.0308,2.0308,2.0654,2.135,2.2081,2.2412,2.2412,2.2547,2.2605,2.2682,2.3548,0.0,0.0,0.0,0.0,0.0,0.0,0.0,0.0,3.2199,3.3372,3.434,3.5064,0.0,0.0,0.0,0.0,0.0,3.9853,4.0776,4.1154,3.9452,3.8869,3.8707,3.8707,3.8707,3.8891,3.957,3.9808,4.0506,4.2578,4.269,4.2892,4.4122,4.6452,4.8655,5.0196,5.1591,5.2289,5.1867,5.2417,5.2674,5.2234,5.2803,5.3185,5.3185,5.3185,5.3185,5.3185,5.3185,5.3185,5.3185,5.3185,5.3185,5.3185,5.3185,5.3185,5.3185,5.3185,5.3573,5.4252,5.517,5.5959,5.6675,5.7593,5.7997,5.8024,5.8505,5.8971,5.946,5.9916,6.0397,6.08,6.08,6.08,6.08,0.0,0.0,0.0,0.0,0.0,0.0,0.0,0.0,0.0,0.0,0.0,0.0,0.0,0.0,0.0,0.0,0.0,0.0,0.0,0.0,0.0,2.0308,2.0308,2.0308,2.0308,2.0308,2.0308,2.0308,2.0308,2.0519,2.0962,2.1427,2.185,2.2216,2.2624,2.2797,2.2836,2.3297,2.349,2.3586,0.0,0.0,0.0,0.0,0.0,0.0,0.0,0.0,0.0,0.0,3.3468,3.4359,3.5231,0.0,0.0,0.0,0.0,0.0,3.9465,4.031,4.0908,4.071,4.097,4.1295,4.1295,4.1295,4.1277,4.1203,4.1534,4.2304,4.3864,4.4911,4.6379,4.8893,4.8746,4.8893,5.0563,5.0674,5.0747,5.1279,5.1683,5.2105,5.2601,5.2986,5.3185,5.3185,5.3185,5.3185,5.3185,5.3185,5.3185,5.3185,5.3185,5.3185,5.3185,5.3185,5.3185,5.3185,5.3185,5.3628,5.4436,5.5225,5.6033,5.684,5.7648,5.7997,5.8047,5.8776,5.9213,5.9458,6.0208,6.061,6.08,6.08,6.08,6.08,0.0,0.0,0.0,0.0,0.0,0.0,0.0,0.0,0.0,0.0,0.0,0.0,0.0,0.0,0.0,0.0,0.0,0.0,0.0,0.0,2.03,2.0304,2.03,2.0308,2.0308,2.0308,2.0385,2.0577,2.0577,2.1,2.1812,2.2701,2.3105,2.3105,2.3293,2.3389,2.3428,2.4105,2.4375,2.4432,0.0,0.0,0.0,0.0,0.0,0.0,0.0,0.0,0.0,0.0,0.0,0.0,0.0,0.0,0.0,3.6462,3.7315,3.818,3.9073,3.997,4.0886,4.1774,4.2242,4.2658,4.3348,4.3349,4.3204,4.3149,4.3773,4.4599,4.5388,4.7058,4.9132,5.1626,5.027,4.9481,5.1132,5.027,4.9921,5.1224,5.1371,5.1848,5.3075,5.3185,5.3185,5.3185,5.3185,5.3185,5.3185,5.3185,5.3185,5.3185,5.3185,5.3185,5.3185,5.3185,5.3185,5.3185,5.339,5.3904,5.4711,5.55,5.6308,5.7134,5.7721,5.7997,5.807,5.9009,5.9389,5.9492,6.0424,6.08,6.08,6.08,6.08,6.08,0.0,0.0,0.0,0.0,0.0,0.0,0.0,0.0,0.0,0.0,0.0,0.0,0.0,0.0,0.0,0.0,0.0,0.0,0.0,0.0,2.0292,2.0298,2.0299,2.0308,2.0308,2.0308,2.0673,2.1408,2.1408,2.185,2.274,2.3605,2.4014,2.4033,2.4793,2.5115,2.5115,2.5192,2.5212,2.5212,2.5288,0.0,0.0,0.0,0.0,0.0,0.0,0.0,0.0,0.0,0.0,0.0,0.0,0.0,3.5654,3.6462,3.7315,3.818,3.9073,4.0785,4.227,4.2045,4.0707,4.0131,4.2883,4.291,4.3002,4.5186,4.6287,4.7076,4.7902,4.8196,4.8379,4.8618,4.9774,5.1187,5.2803,5.291,5.2873,5.3002,5.302,5.3057,5.3185,5.3185,5.3185,5.3185,5.3185,5.3185,5.3185,5.3185,5.3185,5.3185,5.3185,5.3185,5.3185,5.3185,5.3185,5.3203,5.3959,5.473,5.5559,5.6345,5.7152,5.7923,5.796,5.7997,5.807,5.9009,5.9389,5.9492,6.0424,6.08,6.08,6.08,6.08,6.08,0.0,0.0,0.0,0.0,0.0,0.0,0.0,0.0,0.0,0.0,0.0,0.0,0.0,0.0,0.0,0.0,0.0,0.0,0.0,0.0,2.0296,2.0307,2.0347,2.0612,2.1164,2.1136,2.1272,2.1626,2.2718,2.3389,2.3697,2.4525,2.5179,2.5659,2.5967,2.6409,2.6928,2.6928,2.6928,2.6928,2.6928,2.7101,0.0,0.0,0.0,0.0,0.0,0.0,0.0,0.0,3.3699,3.4795,3.5327,3.55,3.5558,3.5865,3.693,3.8065,3.8392,4.0647,4.2728,4.2143,4.1845,4.229,4.4497,4.5149,4.5406,4.581,4.737,4.8581,4.8343,4.9976,5.1022,5.0031,5.1242,5.2509,5.3093,5.3185,5.3185,5.3185,5.3185,5.3185,5.3185,5.3185,5.3185,5.3185,5.3185,5.3185,5.3185,5.3185,5.3185,5.3185,5.3185,5.3185,5.3185,5.3185,5.3463,5.3959,5.4252,5.4821,5.5633,5.6436,5.7244,5.7997,5.7997,5.7997,5.807,5.9009,5.9389,5.9492,6.0424,6.08,6.08,6.08,6.08,6.08,0.0,0.0,0.0,0.0,0.0,0.0,0.0,0.0,0.0,0.0,0.0,0.0,0.0,0.0,0.0,0.0,0.0,0.0,0.0,2.0335,2.0335,2.0357,2.0653,2.111,2.1742,2.2249,2.2505,2.252,2.398,2.4793,2.5036,2.5559,2.6257,2.7031,2.7026,2.7332,2.7895,2.7895,2.7895,2.7895,2.7895,2.8049,0.0,0.0,0.0,0.0,0.0,0.0,0.0,0.0,3.3891,3.4718,3.5308,3.55,3.5558,3.5808,3.7257,3.8854,3.9123,4.122,4.3245,4.2886,4.2987,4.3694,4.5787,4.6691,4.7168,4.7407,4.8802,4.9793,4.9205,5.093,5.2087,5.0986,5.216,5.3185,5.3185,5.3185,5.3185,5.3185,5.3185,5.3185,5.3185,5.3185,5.3185,5.3185,5.3185,5.3185,5.3185,5.3185,5.3185,5.3185,5.3185,5.3185,5.3185,5.3463,5.3867,5.4418,5.4913,5.5445,5.5996,5.6804,5.7483,5.7997,5.7997,5.7997,5.807,5.9009,5.9559,5.9901,6.0553,6.08,6.08,6.08,6.08,6.08,0.0,0.0,0.0,0.0,0.0,0.0,0.0,0.0,0.0,0.0,0.0,0.0,0.0,0.0,0.0,0.0,0.0,0.0,0.0,2.041,2.0432,2.0507,2.1278,2.1763,2.1914,2.3567,2.4382,2.4313,2.5126,2.5963,2.6805,2.675,2.7183,2.8008,2.7938,2.7915,2.7915,2.7915,2.7915,2.7915,2.7915,2.8396,2.9107,0.0,0.0,0.0,0.0,0.0,0.0,0.0,3.4776,3.55,3.55,3.55,3.5654,3.6462,3.8488,4.0669,4.1546,4.2766,4.3923,4.4443,4.3713,4.3587,4.6452,4.7113,4.781,5.0325,5.082,5.0802,5.0802,5.082,5.082,5.0802,5.216,5.3185,5.3185,5.3185,5.3185,5.3185,5.3185,5.3185,5.3185,5.3185,5.3185,5.3185,5.3185,5.3185,5.3185,5.3185,5.3185,5.3185,5.3185,5.3185,5.3185,5.4014,5.4399,5.4436,5.6033,5.6804,5.684,5.7629,5.7997,5.7997,5.7997,5.7997,5.807,5.9009,5.9946,6.08,6.08,6.08,6.08,6.08,6.08,6.08,0.0,0.0,0.0,0.0,0.0,0.0,0.0,0.0,0.0,0.0,0.0,0.0,0.0,0.0,0.0,0.0,0.0,0.0,0.0,2.044,2.0753,2.1387,2.1689,2.2419,2.3633,2.4746,2.5309,2.5286,2.6145,2.6663,2.6876,2.7434,2.8106,2.8837,2.8767,2.9083,2.9654,2.9654,2.9654,2.9654,2.9654,2.9788,3.0,0.0,0.0,0.0,0.0,0.0,0.0,0.0,0.0,0.0,3.55,3.55,3.5654,3.6462,3.768,3.8931,3.9796,4.2288,4.4338,4.3083,4.4509,4.6401,4.6967,4.7535,4.88,5.1867,5.1591,5.0802,5.0802,5.1738,5.2123,5.0986,5.216,5.3185,5.3185,5.3185,5.3185,5.3185,5.3185,5.3185,5.3185,5.3185,5.3185,5.3185,5.3185,5.3185,5.3185,5.3185,5.3185,5.3185,5.3185,5.3185,5.3185,5.4014,5.4675,5.5244,5.6308,5.6804,5.684,5.7629,5.7997,5.7997,5.7997,5.7997,5.807,5.9009,5.9946,6.08,6.08,6.08,6.08,6.08,6.08,6.08,0.0,0.0,0.0,0.0,0.0,0.0,0.0,0.0,0.0,0.0,0.0,0.0,0.0,0.0,0.0,0.0,0.0,0.0,0.0,0.0,2.1458,2.2318,2.2694,2.3535,2.4883,2.5762,2.6211,2.6211,2.6738,2.7323,2.798,2.8432,2.9052,2.9749,2.9694,2.9927,3.0404,3.0404,3.0404,3.0423,3.0788,3.0923,3.0942,0.0,0.0,0.0,0.0,0.0,0.0,0.0,0.0,0.0,3.55,3.5712,3.6269,3.7777,3.8834,3.9988,4.22,4.4037,4.5255,4.5046,4.6224,4.7661,4.84,4.9187,5.0417,5.2747,5.2435,5.1756,5.1756,5.2564,5.2873,5.1922,5.2582,5.3185,5.3185,5.3185,5.3185,5.3185,5.3185,5.3185,5.3185,5.3185,5.3185,5.3185,5.3185,5.3185,5.3185,5.3185,5.3185,5.3185,5.3185,5.3353,5.3683,5.4473,5.528,5.6088,5.6895,5.7281,5.7299,5.7776,5.7997,5.7997,5.7997,5.8213,5.8591,5.9176,5.9946,6.08,6.08,6.08,6.08,6.08,6.08,6.08,0.0,0.0,0.0,0.0,0.0,0.0,0.0,0.0,0.0,0.0,0.0,0.0,0.0,0.0,0.0,0.0,0.0,0.0,0.0,0.0,2.2324,2.3262,2.416,2.5019,2.5801,2.668,2.7168,2.7246,2.7246,2.8047,2.9609,2.9593,2.9998,3.0716,3.0633,3.0631,3.0635,3.0635,3.0635,3.0692,3.1487,3.1814,3.1891,3.2622,0.0,0.0,0.0,0.0,0.0,0.0,0.0,0.0,3.5615,3.6173,3.7296,3.9688,4.1066,4.2654,4.653,4.6771,4.6444,4.8673,4.8325,4.8048,5.038,5.1536,5.2307,5.3059,5.3185,5.3185,5.3185,5.3185,5.3185,5.3185,5.3185,5.3185,5.3185,5.3185,5.3185,5.3185,5.3185,5.3185,5.3185,5.3185,5.3185,5.3185,5.3185,5.3185,5.3185,5.3185,5.3185,5.3185,5.3185,5.3592,5.4399,5.5188,5.5996,5.6822,5.7611,5.7997,5.7997,5.7997,5.7997,5.7997,5.7997,5.8547,5.9389,5.9389,5.9946,6.08,6.08,6.08,6.08,6.08,6.08,6.08,0.0,0.0,0.0,0.0,0.0,0.0,0.0,0.0,0.0,0.0,0.0,0.0,0.0,0.0,0.0,0.0,0.0,0.0,0.0,0.0,2.2578,2.4082,2.5625,2.6523,2.6719,2.7578,2.8359,2.9043,2.9043,2.9238,2.9609,3.0111,3.0812,3.1621,3.1492,3.1786,3.2352,3.2352,3.2352,3.2372,3.2564,3.2641,3.266,3.2833,3.3314,0.0,0.0,0.0,0.0,0.0,0.0,0.0,3.6442,3.7026,3.7969,3.9207,4.0623,4.2074,4.3368,4.519,4.6793,4.7009,4.8548,5.0306,5.1481,5.2362,5.3004,5.3148,5.3185,5.3185,5.3185,5.3185,5.3185,5.3185,5.3185,5.3185,5.3185,5.3185,5.3185,5.3185,5.3185,5.3185,5.3185,5.3185,5.3185,5.3185,5.3185,5.3185,5.3185,5.3185,5.3185,5.3185,5.3185,5.3592,5.4399,5.5188,5.5996,5.6822,5.7611,5.7997,5.7997,5.7997,5.7997,5.7997,5.7997,5.8547,5.9389,5.9389,5.9946,6.08,6.08,6.08,6.08,6.08,6.08,6.08,0.0,0.0,0.0,0.0,0.0,0.0,0.0,0.0,0.0,0.0,0.0,0.0,0.0,0.0,0.0,0.0,0.0,0.0,0.0,0.0,0.0,2.5566,2.6523,2.7207,2.7617,2.8476,2.9141,2.9609,2.9958,3.013,3.0149,3.0911,3.149,3.1872,3.2174,3.2534,3.2891,3.2891,3.2891,3.2949,3.3353,3.3526,3.3564,3.3987,3.443,3.4872,3.5257,0.0,0.0,0.0,0.0,0.0,0.0,0.0,3.8873,4.0123,4.0816,4.1764,4.4442,4.5459,4.611,4.7562,4.9378,5.1004,5.1811,5.2619,5.3185,5.3185,5.3185,5.3185,5.3185,5.3185,5.3185,5.3185,5.3185,5.3185,5.3185,5.3185,5.3185,5.3185,5.3185,5.3185,5.3185,5.3185,5.3185,5.3185,5.3185,5.3185,5.3185,5.3185,5.3185,5.3185,5.3573,5.4161,5.4968,5.5776,5.6583,5.7373,5.7795,5.7997,5.7997,5.7997,5.7997,5.7997,5.7997,5.8397,5.9084,5.9302,5.9823,6.0495,6.0702,6.08,6.08,6.08,6.08,6.08,0.0,0.0,0.0,0.0,0.0,0.0,0.0,0.0,0.0,0.0,0.0,0.0,0.0,0.0,0.0,0.0,0.0,0.0,0.0,0.0,0.0,0.0,2.7285,2.7793,2.8516,2.9375,2.9805,2.9784,3.0551,3.09,3.0905,3.1638,3.2062,3.2256,3.2919,3.3249,3.3353,3.3353,3.3353,3.341,3.4122,3.4507,3.4699,3.5423,3.5808,3.6019,3.6692,3.6923,3.7019,3.7757,0.0,0.0,0.0,0.0,3.9785,4.1162,4.1277,4.1846,4.6012,4.6057,4.5728,4.8992,5.0398,5.1224,5.2013,5.2729,5.3185,5.3185,5.3185,5.3185,5.3185,5.3185,5.3185,5.3185,5.3185,5.3185,5.3185,5.3185,5.3185,5.3185,5.3185,5.3185,5.3185,5.3185,5.3185,5.3185,5.3185,5.3185,5.3185,5.3185,5.3185,5.3185,5.3977,5.4785,5.5574,5.64,5.7207,5.7997,5.7997,5.7997,5.7997,5.7997,5.7997,5.7997,5.7997,5.826,5.8735,5.9213,5.9677,6.0146,6.0622,6.08,6.08,6.08,6.08,6.08,0.0,0.0,0.0,0.0,0.0,0.0,0.0,0.0,0.0,0.0,0.0,0.0,0.0,0.0,0.0,0.0,0.0,0.0,2.4141,0.0,0.0,2.6992,2.8457,2.9316,2.9414,3.0273,3.0662,3.0545,3.1414,3.177,3.1665,3.1762,3.2589,3.3978,3.4017,3.4449,3.5154,3.5154,3.5154,3.5154,3.5269,3.5731,3.6385,3.65,0.0,3.768,3.7796,3.7834,3.7834,3.7969,3.8507,0.0,0.0,0.0,4.0381,4.0612,4.1662,4.2823,4.3166,4.5162,4.7722,5.0057,5.1242,5.205,5.2858,5.3112,5.3185,5.3185,5.3185,5.3185,5.3185,5.3185,5.3185,5.3185,5.3185,5.3185,5.3185,5.3185,5.3185,5.3185,5.3185,5.3185,5.3185,5.3185,5.3185,5.3185,5.3185,5.3185,5.3185,5.3185,5.3185,5.3185,5.3977,5.4785,5.5574,5.64,5.7207,5.7997,5.7997,5.7997,5.7997,5.7997,5.7997,5.7997,5.7997,5.826,5.8735,5.9213,5.9677,6.0146,6.0622,6.08,6.08,6.08,6.08,6.08,0.0,0.0,0.0,0.0,0.0,0.0,0.0,0.0,0.0,0.0,0.0,0.0,0.0,0.0,0.0,2.2598,2.3047,2.4023,2.5742,2.6562,2.7441,2.8418,2.9199,2.9824,3.0312,3.1172,3.1559,3.143,3.2259,3.2891,3.3301,3.3204,3.3533,3.4254,3.4725,0.0,0.0,3.55,3.575,3.6173,3.6173,3.6969,0.0,0.0,0.0,0.0,0.0,0.0,3.8796,3.9238,3.9669,3.9977,3.9977,0.0,0.0,0.0,4.1035,4.197,4.3497,4.6045,4.8731,5.0618,5.1712,5.2487,5.3067,5.3185,5.3185,5.3185,5.3185,5.3185,5.3185,5.3185,5.3185,5.3185,5.3185,5.3185,5.3185,5.3185,5.3185,5.3185,5.3185,5.3185,5.3185,5.3185,5.3185,5.3185,5.3185,5.3185,5.3185,5.3185,5.3185,5.3185,5.4418,5.5225,5.5614,5.684,5.7648,5.7997,5.7997,5.7997,5.7997,5.7997,5.7997,5.7997,5.7997,5.8119,5.8351,5.8815,5.9284,5.9757,6.0222,6.0565,6.08,6.08,6.08,6.08,0.0,0.0,0.0,0.0,0.0,0.0,0.0,0.0,0.0,0.0,0.0,0.0,0.0,0.0,0.0,0.0,2.4043,2.5137,2.6894,2.7402,2.8242,2.9531,3.0019,3.0566,3.1211,3.207,3.2435,3.2305,3.3139,3.3852,3.4434,3.4743,3.486,3.4853,3.55,3.5808,0.0,3.6038,3.6481,3.7038,0.0,0.0,0.0,0.0,0.0,0.0,0.0,3.9931,3.9988,4.0381,4.0496,4.0496,4.0496,4.0496,0.0,0.0,0.0,4.1113,4.3908,4.6214,4.8365,5.0593,5.1705,5.2456,5.3182,5.3272,5.3185,5.3185,5.3185,5.3185,5.3185,5.3185,5.3185,5.3185,5.3185,5.3185,5.3185,5.3185,5.3185,5.3185,5.3185,5.3185,5.3185,5.3185,5.3185,5.3185,5.3185,5.3185,5.3185,5.3185,5.3185,5.3185,5.4748,5.5614,5.5614,5.7189,5.7997,5.7997,5.7997,5.7997,5.7997,5.7997,5.7997,5.7997,5.7997,5.7997,5.8024,5.8505,5.8971,5.946,5.9916,6.0397,6.08,6.08,6.08,6.08,0.0,0.0,0.0,0.0,0.0,0.0,0.0,0.0,0.0,0.0,0.0,0.0,0.0,2.3164,2.3516,2.4277,2.4375,2.5137,2.6894,2.8555,2.9512,2.9609,3.1172,0.0,3.2129,3.293,3.3268,3.3141,3.4079,3.4413,3.4251,3.5966,3.6702,3.6558,3.6615,3.6635,3.6692,0.0,0.0,0.0,0.0,0.0,0.0,0.0,0.0,0.0,0.0,4.1673,4.1546,4.0766,4.0496,4.0496,4.0496,4.0496,4.0496,0.0,0.0,0.0,4.3172,4.4467,4.6098,4.9801,5.1052,5.1787,5.3405,5.3484,5.3185,5.3185,5.3185,5.3185,5.3185,5.3185,5.3185,5.3185,5.3185,5.3185,5.3185,5.3185,5.3185,5.3185,5.3185,5.3185,5.3185,5.3185,5.3185,5.3185,5.3185,5.3185,5.3185,5.3185,5.3185,5.3185,5.4748,5.5614,5.5614,5.7189,5.7997,5.7997,5.7997,5.7997,5.7997,5.7997,5.7997,5.7997,5.7997,5.7997,5.8024,5.8505,5.8971,5.946,5.9916,6.0397,6.08,6.08,6.08,6.08,0.0,0.0,0.0,0.0,0.0,0.0,0.0,0.0,0.0,0.0,0.0,0.0,0.0,2.4961,2.5742,2.6035,2.6582,2.7402,2.8594,2.9258,3.0098,3.1211,3.1875,3.2441,3.2969,3.3809,3.4193,3.4099,3.5562,3.6181,3.6018,3.7186,3.7694,3.761,3.7557,3.7526,3.7546,3.7873,3.8315,3.8911,3.9746,0.0,0.0,0.0,4.3008,4.4509,4.3124,4.2624,4.2585,4.2277,4.1439,4.0496,4.0496,4.0496,4.0496,4.0496,4.0496,4.1011,4.3434,4.472,4.6049,4.8802,5.0594,5.1759,5.2119,5.2725,5.3185,5.3185,5.3185,5.3185,5.3185,5.3185,5.3185,5.3185,5.3185,5.3185,5.3185,5.3185,5.3185,5.3185,5.3185,5.3185,5.3185,5.3185,5.3185,5.3185,5.3185,5.3185,5.3185,5.3185,5.3185,5.3185,5.4748,5.6088,5.7116,5.7703,5.7997,5.7997,5.7997,5.7997,5.7997,5.7997,5.7997,5.7997,5.7997,5.7997,5.8024,5.8505,5.8971,5.946,5.9916,6.0397,6.08,6.08,6.08,6.08,0.0,0.0,0.0,0.0,0.0,0.0,0.0,0.0,0.0,0.0,0.0,0.0,0.0,0.0,2.7441,2.7441,2.8223,2.9101,2.998,3.0312,3.1113,3.2539,3.2871,3.3437,3.4258,3.5137,3.5679,3.5882,3.7033,3.7539,3.742,3.8228,3.8564,3.8537,3.904,3.8969,3.845,3.8719,3.9335,4.02,4.1027,4.222,4.347,4.3181,4.4124,4.546,4.4335,4.3932,4.3932,4.3932,4.317,4.2112,4.1554,4.0977,4.0496,4.0496,4.0496,4.0997,4.3278,4.4316,4.5368,4.7933,4.9727,5.0967,5.1407,5.2252,5.3027,5.3172,5.3185,5.3185,5.3185,5.3185,5.3185,5.3185,5.3185,5.3185,5.3185,5.3185,5.3185,5.3185,5.3185,5.3185,5.3185,5.3185,5.3185,5.3185,5.3185,5.3185,5.3185,5.3185,5.3463,5.3995,5.5042,5.6363,5.7978,5.7997,5.7997,5.7997,5.7997,5.7997,5.7997,5.7997,5.7997,5.7997,5.7997,5.7997,5.8024,5.8329,5.8835,5.9424,5.9741,6.025,6.08,6.08,6.08,6.08,0.0,0.0,0.0,0.0,0.0,0.0,0.0,0.0,0.0,0.0,0.0,0.0,0.0,0.0,0.0,2.8379,2.918,3.0039,3.0879,3.1777,3.2637,3.3437,3.4316,3.5176,3.6055,3.6914,3.7691,3.8404,3.8438,3.8371,3.826,3.9085,3.9438,3.9457,4.1104,4.0931,3.9457,4.0246,4.1066,4.1923,4.2816,4.3643,4.4432,4.5306,4.5671,4.571,4.5691,4.5671,4.5633,4.5671,4.5614,4.5248,4.3605,0.0,0.0,0.0,0.0,4.0958,0.0,0.0,0.0,4.7221,4.8414,4.9334,5.1341,5.2171,5.2623,5.3093,5.3188,5.3185,5.3185,5.3185,5.3185,5.3185,5.3185,5.3185,5.3185,5.3185,5.3185,5.3185,5.3185,5.3185,5.3185,5.3185,5.3185,5.3185,5.3185,5.3185,5.3185,5.3185,5.394,5.55,5.5574,5.6345,5.7941,5.7997,5.7997,5.7997,5.7997,5.7997,5.7997,5.7997,5.802,5.802,5.802,5.8042,5.8024,5.8024,5.8591,5.9407,5.9443,5.9996,6.08,6.08,6.08,6.08,0.0,0.0,0.0,0.0,0.0,0.0,0.0,0.0,0.0,0.0,0.0,0.0,0.0,0.0,2.9492,3.0137,3.0976,3.1582,3.1816,3.3203,3.4394,3.5234,3.6113,3.6992,3.7851,3.8125,3.8296,3.8397,0.0,0.0,0.0,0.0,0.0,0.0,4.2258,4.2489,4.2066,4.2297,4.2527,4.2874,4.4316,4.5037,4.5344,4.6201,4.7298,4.8259,4.7625,4.7028,4.6624,4.7201,4.5797,4.3701,4.3258,0.0,0.0,0.0,0.0,0.0,4.297,0.0,0.0,0.0,0.0,0.0,4.9537,5.113,5.2549,5.266,5.2957,5.3185,5.3185,5.3185,5.3185,5.3185,5.3185,5.3185,5.3185,5.3185,5.3185,5.3185,5.3185,5.3185,5.3185,5.3185,5.3185,5.3185,5.3185,5.3185,5.3185,5.3185,5.3683,5.4693,5.5299,5.6088,5.7134,5.7703,5.7997,5.7997,5.7997,5.7997,5.7997,5.7997,5.819,5.8505,5.8505,5.8694,5.9009,5.9009,5.9373,5.9931,6.0278,6.0565,6.08,6.08,6.08,6.08,0.0,0.0,0.0,0.0,0.0,0.0,0.0,0.0,0.0,0.0,0.0,0.0,0.0,0.0,0.0,3.1894,3.2734,3.3398,3.3769,3.5039,3.6172,3.7051,3.7578,3.8242,3.9121,0.0,0.0,0.0,0.0,0.0,0.0,0.0,0.0,0.0,0.0,0.0,4.3624,4.3989,4.3932,4.372,4.5056,4.5825,4.622,4.7086,4.8009,4.8836,4.8682,4.8336,4.8067,4.8894,4.7182,4.4701,4.4701,4.397,0.0,0.0,0.0,0.0,0.0,0.0,0.0,4.5383,0.0,0.0,4.9172,5.0965,5.2691,5.3219,5.3386,5.3524,5.3719,5.3461,5.3251,5.3422,5.3316,5.3185,5.3185,5.3185,5.3185,5.3185,5.3185,5.3185,5.3185,5.3185,5.3185,5.3185,5.3185,5.3185,5.3185,5.3185,5.3573,5.4363,5.517,5.5978,5.6804,5.7593,5.7997,5.7997,5.7997,5.7997,5.7997,5.7997,5.826,5.8694,5.8694,5.9084,5.9693,5.9693,5.9855,6.0132,6.0411,6.0622,6.08,6.08,6.08,6.08,0.0,0.0,0.0,0.0,0.0,0.0,0.0,0.0,0.0,0.0,0.0,0.0,0.0,0.0,0.0,0.0,3.4434,3.5312,3.6094,3.7051,0.0,0.0,0.0,0.0,0.0,0.0,0.0,0.0,0.0,0.0,0.0,0.0,0.0,0.0,0.0,0.0,4.4489,4.5383,4.5297,4.4662,4.5537,4.6336,4.7135,4.8048,4.8394,4.849,4.926,4.9471,4.949,5.0183,4.8971,4.7163,4.6962,4.547,4.3739,4.3451,4.3585,0.0,0.0,0.0,0.0,4.5441,4.6855,0.0,4.9526,5.1167,5.2778,5.3925,5.3849,5.3697,5.4091,5.3516,5.3083,5.3423,5.3239,5.3093,5.3206,5.3185,5.3185,5.3185,5.3185,5.3185,5.3185,5.3185,5.3185,5.3185,5.3185,5.3185,5.3185,5.3185,5.3537,5.4234,5.5042,5.5849,5.6657,5.7464,5.7905,5.7997,5.7997,5.8042,5.8092,5.8092,5.8354,5.8855,5.8855,5.9354,6.0175,6.0175,6.0175,6.0175,6.0175,6.0424,6.08,6.08,6.08,6.08,0.0,0.0,0.0,0.0,0.0,0.0,0.0,0.0,0.0,0.0,0.0,0.0,0.0,0.0,0.0,0.0,3.5879,3.6855,3.7031,3.8516,0.0,0.0,0.0,0.0,0.0,0.0,0.0,0.0,0.0,0.0,0.0,0.0,0.0,0.0,0.0,0.0,4.5402,4.6278,4.6547,4.6471,4.7278,4.7721,4.8048,4.9606,5.0183,5.0212,5.0385,4.999,4.9317,4.8798,4.874,4.8682,4.7336,4.749,4.7759,4.571,4.6547,4.7759,4.5864,4.5855,4.6278,4.5729,4.6855,0.0,4.8414,5.0073,5.1624,5.1864,5.2113,5.221,5.196,5.1804,5.1602,5.1424,5.1875,5.2454,5.3115,5.3185,5.3185,5.3185,5.3185,5.3185,5.3185,5.3185,5.3185,5.3185,5.3185,5.3185,5.3185,5.3185,5.328,5.3424,5.4216,5.5023,5.5812,5.6638,5.7373,5.7997,5.7997,5.819,5.8549,5.8549,5.9028,5.9839,5.9839,6.0146,6.0647,6.0647,6.0647,6.0647,6.0647,6.0714,6.08,6.08,6.08,6.08,0.0,0.0,0.0,0.0,0.0,0.0,0.0,0.0,0.0,0.0,0.0,0.0,0.0,0.0,0.0,0.0,0.0,0.0,0.0,0.0,4.035,0.0,0.0,0.0,0.0,0.0,0.0,0.0,0.0,0.0,0.0,0.0,0.0,0.0,0.0,0.0,4.6874,4.7317,4.7509,4.7567,4.8413,4.8759,4.8894,5.0212,5.0712,5.0712,5.0712,5.0423,4.9971,4.9529,4.9394,4.9336,4.8913,4.9067,4.9144,4.7875,4.8394,4.9029,4.7317,4.7163,4.7298,4.6451,4.7509,0.0,0.0,5.0216,5.1729,5.2169,5.2247,5.2257,5.2252,5.1559,5.0962,5.0831,5.1269,5.1428,5.0841,5.2179,5.3185,5.3185,5.3185,5.3185,5.3185,5.3185,5.3185,5.3185,5.3185,5.3185,5.3185,5.3185,5.3185,5.3185,5.3977,5.4785,5.5574,5.64,5.7207,5.7997,5.8238,5.8463,5.8715,5.8933,5.9424,6.0103,6.0103,6.0384,6.08,6.08,6.08,6.08,6.08,6.08,6.08,6.08,6.08,6.08,2.8804,0.0,0.0,0.0,0.0,0.0,0.0,0.0,0.0,0.0,0.0,0.0,0.0,0.0,0.0,0.0,0.0,0.0,0.0,4.0949,4.1303,4.1303,0.0,4.1621,0.0,0.0,0.0,0.0,0.0,0.0,0.0,0.0,0.0,4.6904,0.0,0.0,4.8105,4.8279,4.8355,4.8432,4.9298,4.9548,4.949,5.0366,5.0712,5.0731,5.0875,5.0933,5.0933,5.0933,5.0452,4.9952,5.0317,5.0298,5.0048,4.9548,4.974,4.9875,4.8663,4.8355,4.8144,4.7336,4.8279,4.9394,0.0,0.0,0.0,5.2318,5.2077,5.1809,5.2069,5.099,5.008,5.0065,5.0378,5.01,4.8624,5.0789,5.2509,5.2491,5.2913,5.3151,5.2986,5.2968,5.3041,5.3185,5.3078,5.3041,5.3185,5.3185,5.3185,5.3185,5.383,5.4564,5.5354,5.6161,5.6969,5.7776,5.8389,5.8755,5.8855,5.9319,5.9789,6.0236,6.0236,6.0437,6.08,6.08,6.08,6.08,6.08,6.08,6.08,6.08,6.08,6.08,3.0647,3.1092,0.0,0.0,0.0,0.0,0.0,0.0,0.0,0.0,0.0,3.9093,3.9093,4.0653,4.17,0.0,4.247,4.2976,4.2963,4.3041,0.0,0.0,4.31,4.3107,4.3084,0.0,0.0,0.0,0.0,0.0,0.0,0.0,0.0,4.6904,4.6904,4.7355,4.8144,4.8913,4.924,4.9336,5.0212,5.0087,4.949,5.0366,5.0712,5.0789,5.151,5.175,5.175,5.175,5.1692,5.1365,4.9971,5.1029,5.2318,5.0067,5.101,5.226,4.9894,4.924,4.9048,4.8182,4.8682,4.9394,4.9394,0.0,4.9702,4.9817,0.0,4.8528,4.8197,0.0,0.0,4.748,4.7816,4.8289,4.8759,4.951,4.9996,4.9921,5.1867,5.2931,5.2197,5.2142,5.2435,5.3148,5.2546,5.2454,5.317,5.3185,5.3185,5.3185,5.3277,5.372,5.4528,5.5317,5.6143,5.695,5.8129,5.8932,5.9356,5.9823,6.0278,6.0714,6.0714,6.0757,6.08,6.08,6.08,6.08,6.08,6.08,6.08,6.08,6.08,6.08,3.2353,3.2508,0.0,0.0,0.0,0.0,0.0,0.0,0.0,3.8214,3.9435,4.0252,4.0252,4.1807,4.2815,4.2759,4.3064,4.3263,4.3234,4.3227,0.0,0.0,4.3227,4.3426,4.3829,0.0,0.0,0.0,4.5421,0.0,0.0,0.0,0.0,4.8355,4.8355,4.8817,4.9625,4.999,5.0414,5.0837,5.0741,5.1048,5.1548,5.0933,5.0991,5.151,5.2356,5.2654,5.2654,5.2654,5.2308,5.1942,5.226,5.2395,5.2327,5.1779,5.201,5.2106,5.0567,5.0491,5.0529,4.9183,4.9856,5.0606,4.9625,4.9779,5.001,4.949,0.0,0.0,0.0,0.0,0.0,0.0,4.7483,4.7467,4.7162,4.8482,4.9671,5.0182,5.1169,5.1867,5.1977,5.2417,5.2839,5.3167,5.2894,5.2839,5.3167,5.3185,5.3185,5.3185,5.3185,5.3592,5.4399,5.5188,5.6135,5.7233,5.8501,5.9337,5.9804,6.0278,6.0622,6.08,6.08,6.08,6.08,6.08,6.08,6.08,6.08,6.08,6.08,6.08,6.08,6.08,3.4351,0.0,0.0,0.0,0.0,0.0,0.0,0.0,3.9121,3.9553,4.0872,4.1765,4.1765,4.3109,4.3961,4.3865,4.3851,4.3832,4.3786,4.3797,4.3893,4.4124,4.4143,4.4528,4.5316,4.5336,0.0,0.0,0.0,0.0,0.0,0.0,0.0,0.0,4.9394,4.9875,5.0712,5.0712,5.1164,5.1846,5.126,5.1895,5.3068,5.1856,5.176,5.2365,5.3241,5.3568,5.3568,5.3568,5.3145,5.2799,5.3818,5.3433,5.2692,5.3087,5.2933,5.2375,5.1318,5.1471,5.1538,5.0125,5.0664,5.126,5.0029,5.0048,5.0164,4.9529,4.9202,0.0,0.0,0.0,4.728,4.7388,0.0,4.6887,4.6064,4.7367,4.8706,4.9491,5.011,5.0784,5.1591,5.2197,5.2637,5.2858,5.2876,5.3031,5.3341,5.3251,5.3251,5.3359,5.3251,5.3482,5.4069,5.4858,5.5913,5.7187,5.8461,5.9433,6.0118,6.0578,6.08,6.08,6.08,6.08,6.08,6.08,6.08,6.08,6.08,6.08,6.08,6.08,6.08,6.08,3.6865,3.6153,0.0,0.0,3.7489,3.8601,4.0312,4.0602,4.1184,4.2741,4.366,4.4179,4.4179,4.4996,4.5535,4.5526,4.5526,4.5526,4.5518,4.5518,4.5893,4.6731,4.6769,4.7163,4.7971,4.799,4.799,0.0,0.0,0.0,0.0,0.0,0.0,0.0,4.9394,4.9875,5.0712,5.0712,5.1164,5.1904,5.1865,5.2404,5.3203,5.3145,5.3145,5.328,5.4145,5.4453,5.4453,5.4453,5.4434,5.428,5.3491,5.378,5.426,5.3433,5.378,5.4049,5.2327,5.1885,5.1692,5.0875,5.0712,5.0731,5.0673,5.0029,4.9433,4.9413,4.874,4.8125,4.8105,4.8086,0.0,0.0,0.0,0.0,0.0,4.6064,4.6078,4.6496,4.8366,4.9939,5.0765,5.0857,5.1206,5.1977,5.2032,5.2552,5.3721,5.3422,5.338,5.3758,5.3402,5.3203,5.3243,5.4051,5.5064,5.6349,5.7633,5.8884,6.0118,6.0578,6.08,6.08,6.08,6.08,6.08,6.08,6.08,6.08,6.08,6.08,6.08,6.08,6.08,6.08,0.0,0.0,0.0,3.7732,3.8363,3.9467,4.1169,4.192,4.2476,4.3036,4.3797,4.4509,4.5094,4.5932,4.6663,4.7201,4.7259,4.7259,4.7259,4.7259,4.7394,4.7682,4.7702,4.7817,4.8086,4.8105,4.8105,4.8105,4.8105,0.0,0.0,0.0,0.0,0.0,5.0269,5.0423,5.0731,5.1279,5.1991,5.2856,5.3972,5.428,5.4068,5.4068,5.4068,5.4164,5.4991,5.528,5.528,5.528,5.4934,5.453,5.478,5.4299,5.3703,5.3972,5.3857,5.351,5.2933,5.3183,5.328,5.1856,5.1933,5.2068,5.0962,5.0481,5.0087,4.951,4.9163,4.8779,4.8221,4.8105,0.0,0.0,0.0,0.0,0.0,4.7159,4.6973,4.7104,4.8314,4.9559,5.0615,5.1507,5.2215,5.2744,5.3051,5.3498,5.4219,5.3851,5.3796,5.4238,5.4119,5.4068,5.4068,5.4854,5.5907,5.7179,5.8137,5.9297,6.0565,6.0734,6.08,6.08,6.08,6.08,6.08,6.08,6.08,6.08,6.08,6.08,6.08,6.08,6.08,6.08,3.8834,3.9585,3.993,3.9097,3.9897,4.1104,4.2489,4.3162,4.3643,4.3951,4.4701,4.5432,4.599,4.6817,4.7548,4.8048,4.8105,4.8105,4.8105,4.8105,4.824,4.8548,4.8567,4.8702,4.9029,4.9029,4.9029,4.9029,4.9029,4.9317,0.0,0.0,0.0,0.0,5.0712,5.0856,5.1164,5.1673,5.2577,5.378,5.5145,5.5395,5.4934,5.4934,5.4934,5.4991,5.5511,5.5703,5.5703,5.5703,5.5357,5.5011,5.553,5.4953,5.4203,5.4761,5.453,5.403,5.3741,5.4068,5.4164,5.2712,5.2779,5.2837,5.1433,5.1125,5.0971,5.0394,5.0067,4.9875,4.9913,4.9433,0.0,0.0,0.0,0.0,0.0,4.7873,4.7824,4.8141,4.873,4.9543,5.0625,5.1314,5.2125,5.3117,5.3317,5.3765,5.4671,5.4305,5.4236,5.4686,5.4563,5.4503,5.4503,5.5012,5.5913,5.718,5.7987,5.9056,6.0339,6.0666,6.08,6.08,6.08,6.08,6.08,6.08,6.08,6.08,6.08,6.08,6.08,6.08,6.08,6.08,4.0419,4.1296,4.1662,4.0823,4.2066,4.3412,4.4182,4.4374,4.472,4.5556,4.6413,4.6981,4.7019,4.7721,4.8182,4.8221,4.824,4.824,4.824,4.824,4.8606,4.9433,4.9452,4.9856,5.0673,5.0712,5.0712,5.0712,5.0712,5.0712,0.0,0.0,0.0,0.0,5.075,5.1183,5.1904,5.1981,5.301,5.4626,5.5395,5.5703,5.5703,5.5703,5.5703,5.5703,5.5703,5.5703,5.5703,5.5703,5.5703,5.5703,5.5703,5.5703,5.5703,5.5703,5.5703,5.553,5.4761,5.4549,5.4357,5.3491,5.326,5.3049,5.2154,5.1962,5.1962,5.1962,5.1356,5.1298,5.2856,5.1837,5.075,0.0,0.0,0.0,4.8221,4.8144,4.8471,4.9298,4.9523,4.992,5.0723,5.0459,5.1052,5.3059,5.2842,5.337,5.5037,5.4678,5.4648,5.5101,5.4745,5.4566,5.4566,5.4566,5.5196,5.6439,5.7246,5.8279,5.9531,6.0396,6.08,6.08,6.08,6.08,6.08,6.08,6.08,6.08,6.08,6.08,6.08,6.08,6.08,6.08,4.1431,4.2643,4.3585,4.3355,4.3682,4.4066,4.4259,4.5393,4.6317,4.6547,4.7278,4.8048,4.8682,4.8933,4.9336,4.9971,5.0029,5.0029,5.0029,5.0029,5.0125,5.0366,5.0366,5.0481,5.0712,5.0712,5.0712,5.0712,5.0712,5.0712,5.0712,0.0,0.0,0.0,5.1337,5.1712,5.1981,5.328,5.4434,5.5415,5.5607,5.5703,5.5703,5.5703,5.5703,5.5703,5.5703,5.5703,5.5703,5.5703,5.5703,5.5703,5.5703,5.5703,5.5703,5.5703,5.5703,5.5645,5.5453,5.5395,5.5184,5.4376,5.4164,5.3933,5.3068,5.2876,5.2876,5.2876,5.2702,5.2491,5.2269,5.1885,5.1395,0.0,0.0,0.0,4.8221,4.8663,4.9144,4.9375,5.0513,5.1135,5.0763,5.1472,5.2296,5.3142,5.3101,5.3773,5.5462,5.4268,5.4154,5.5504,5.5454,5.5399,5.5399,5.5399,5.5887,5.6871,5.7704,5.8604,5.9531,6.0396,6.08,6.08,6.08,6.08,6.08,6.08,6.08,6.08,6.08,6.08,6.08,6.08,6.08,6.08,4.2816,4.3951,4.4874,4.4874,4.5182,4.5432,4.5432,4.6278,4.7019,4.7394,4.849,4.9413,4.9913,5.0625,5.126,5.1741,5.1779,5.1779,5.1779,5.1433,5.1221,5.1221,5.0894,5.0712,5.0712,5.0712,5.0712,5.0712,5.0712,5.0712,5.0712,0.0,0.0,0.0,5.1692,5.2308,5.3126,5.4453,5.528,5.5703,5.5703,5.5703,0.0,5.5703,5.5703,5.5703,5.5703,5.5703,5.5703,5.5703,5.5703,5.5703,5.5703,5.5703,5.5703,5.5703,5.5703,5.5703,5.5703,5.5703,5.5588,5.5145,5.5011,5.4799,5.3953,5.378,5.378,5.378,5.3472,5.328,5.353,5.2654,5.1645,5.0827,5.0289,4.9798,4.9317,4.9663,4.9971,4.9971,5.0798,5.1202,5.075,5.184,5.2769,5.3163,5.2873,5.3413,5.5085,5.4123,5.4185,5.5654,5.5703,5.5703,5.5703,5.5703,5.5953,5.6445,5.7703,5.855,5.9031,6.0242,6.08,6.08,6.08,6.08,6.08,6.08,6.08,6.08,6.08,6.08,6.08,6.08,6.08,6.08,4.4316,4.5075,4.5633,4.5748,4.6394,4.7,4.7355,4.7413,4.7644,4.8355,4.9952,5.1039,5.1039,5.2337,5.3203,5.3203,5.3203,5.3203,5.3203,5.2481,5.2077,5.2077,5.1298,5.0866,5.0866,5.075,5.0712,5.0712,5.0712,5.0712,0.0,0.0,0.0,0.0,5.2135,5.3145,5.4703,5.5395,5.5703,5.5703,5.5703,5.5703,5.5703,5.5703,5.5703,5.5703,5.5703,5.5703,5.5703,5.5703,5.5703,5.5703,5.5703,5.5703,5.5703,5.5703,5.5703,5.5703,5.5703,5.5703,5.5703,5.5703,5.5703,5.5511,5.4818,5.4664,5.4664,5.4664,5.4049,5.3933,5.528,5.3645,5.1788,5.0991,5.0962,5.1039,5.1039,5.1039,5.1,5.0866,5.0962,0.0,5.0731,5.1798,5.2621,5.2918,5.2303,5.2637,5.4339,5.3967,5.4331,5.5665,5.5703,5.5703,5.5703,5.5703,5.5703,5.5722,5.7473,5.83,5.8357,6.0031,6.08,6.08,6.08,6.08,6.08,6.08,6.08,6.08,6.08,6.08,6.08,6.08,6.08,6.08,4.521,4.5498,4.5825,4.6547,4.6797,4.7605,4.9702,5.0029,5.0067,5.0231,5.1702,5.276,5.276,5.3029,5.3203,5.3203,5.3203,5.3203,5.3203,5.3068,5.2972,5.2972,5.2154,5.1692,5.1692,5.1029,5.0712,5.0712,5.0712,5.0712,0.0,0.0,0.0,5.1962,5.3395,5.4587,5.5491,5.5645,5.5703,5.5703,5.5703,5.5703,5.5703,5.5703,5.5703,5.5703,5.5703,5.5703,5.5703,5.5703,5.5703,5.5703,5.5703,5.5703,5.5703,5.5703,5.5703,5.5703,5.5703,5.5703,5.5703,5.5703,5.5703,5.5665,5.5511,5.5491,5.5491,5.5491,5.5376,5.5145,5.478,5.376,5.2702,5.1827,5.2299,5.276,5.276,5.276,5.251,5.1769,5.2318,5.2222,5.0827,5.1508,5.1902,5.1651,5.1503,5.2177,5.3913,5.3264,5.3712,5.5645,5.5703,5.5703,5.5703,5.5703,5.5703,5.5722,5.7473,5.83,5.8357,6.0031,6.08,6.08,6.08,6.08,6.08,6.08,6.08,6.08,6.08,6.08,6.08,6.08,6.08,6.08,4.6182,4.6605,4.7163,4.8048,4.8567,4.9433,5.1068,5.2087,5.251,5.2049,5.3087,5.3876,5.3876,5.4241,5.4491,5.4491,5.4491,5.4491,5.4491,5.4107,5.3876,5.3876,5.3049,5.2365,5.1904,5.1529,5.1318,5.1318,5.1318,5.1548,0.0,5.2395,5.2818,5.3299,5.4568,5.5338,5.5703,5.5703,5.5703,5.5703,5.5703,5.5703,5.5703,5.5703,5.5703,5.5703,5.5703,5.5703,5.5703,5.5703,5.5703,5.5703,5.5703,5.5703,5.5703,5.5703,5.5703,5.5703,5.5703,5.5703,5.5703,5.5703,5.5703,5.5703,5.5703,5.5703,5.5703,5.5703,5.5703,5.5453,5.4645,5.4164,5.3587,5.2712,5.2933,5.3203,5.3203,5.3203,5.3049,5.2615,5.2538,5.2222,5.1395,5.1673,5.1814,5.1628,5.1842,5.2633,5.4127,5.3632,5.4025,5.5645,5.5703,5.5703,5.5703,5.5703,5.5703,5.5722,5.7473,5.83,5.8357,6.0031,6.08,6.08,6.08,6.08,6.08,6.08,6.08,6.08,6.08,6.08,6.08,6.08,6.08,6.08,4.7394,4.7952,4.8721,4.976,5.0491,5.1279,5.2288,5.3626,5.4241,5.3568,5.4222,5.4761,5.4761,5.5318,5.5703,5.5703,5.5703,5.5703,5.5703,5.5107,5.4761,5.4761,5.3933,5.3145,5.2462,5.2269,5.2173,5.2173,5.2173,5.2519,5.3203,5.3395,5.3933,5.478,5.5415,5.5703,5.5703,5.5703,5.5703,5.5703,5.5703,5.5703,5.5703,5.5703,5.5703,5.5703,5.5703,5.5703,5.5703,5.5703,5.5703,5.5703,5.5703,5.5703,5.5703,5.5703,5.5703,5.5703,5.5703,5.5703,5.5703,5.5703,5.5703,5.5703,5.5703,5.5703,5.5703,5.5703,5.5703,5.5453,5.4645,5.4645,5.4472,5.3626,5.3626,5.3741,5.3741,5.3741,5.3664,5.351,5.2876,5.2385,5.2192,5.2173,5.225,5.2442,5.2614,5.3218,5.4298,5.4149,5.4537,5.5665,5.5703,5.5703,5.5703,5.5703,5.5703,5.5722,5.7473,5.83,5.8357,6.0031,6.08,6.08,6.08,6.08,6.08,6.08,6.08,6.08,6.08,6.08,6.08,6.08,6.08,6.08,4.9009,4.9221,4.9779,5.1385,5.1731,5.2356,5.3991,5.4395,5.4472,5.4395,5.5068,5.5588,5.5588,5.5645,5.5703,5.5703,5.5703,5.5703,5.5703,5.5626,5.5588,5.5588,5.4799,5.4337,5.426,5.3491,5.3087,5.3087,5.3087,5.3126,5.3222,5.401,5.4799,5.5588,5.5665,5.5703,5.5703,5.5703,5.5703,5.5703,5.5703,5.5703,5.5703,5.5703,5.5703,5.5703,5.5703,5.5703,5.5703,5.5703,5.5703,5.5703,5.5703,5.5703,5.5703,5.5703,5.5703,5.5703,5.5703,5.5703,5.5703,5.5703,5.5703,5.5703,5.5703,5.5703,5.5703,5.5703,5.5703,5.5453,5.4645,5.5088,5.5318,5.4511,5.4991,5.5472,5.5472,5.5472,5.5203,5.4453,5.4318,5.3953,5.3145,5.3087,5.3414,5.4203,5.3567,5.3371,5.3938,5.4269,5.4836,5.5665,5.5703,5.5703,5.5703,5.5703,5.5703,5.5722,5.7473,5.83,5.8357,6.0031,6.08,6.08,6.08,6.08,6.08,6.08,6.08,6.08,6.08,6.08,6.08,6.08,6.08,6.08,5.0837,5.1135,5.1672,5.285,5.3042,5.3444,5.468,5.5074,5.5222,5.5222,5.5491,5.5703,5.5703,5.5703,5.5703,5.5703,5.5703,5.5703,5.5703,5.5703,5.5703,5.5703,5.5395,5.4991,5.4511,5.4164,5.3972,5.3972,5.3972,5.4222,5.4703,5.5049,5.5395,5.5703,5.5703,5.5703,5.5703,5.5703,5.5703,5.5703,5.5703,5.5703,5.5703,5.5703,5.5703,5.5703,5.5703,5.5703,5.5703,5.5703,5.5703,5.5703,5.5703,5.5703,5.5703,5.5703,5.5703,5.5703,5.5703,5.5703,5.5703,5.5703,5.5703,5.5703,5.5703,5.5703,5.5703,5.5703,5.5703,5.5588,5.528,5.5472,5.5588,5.5261,5.5491,5.5703,5.5703,5.5703,5.5568,5.5261,5.478,5.4357,5.401,5.3972,5.4126,5.4472,5.4184,5.4276,5.4933,5.513,5.5376,5.5684,5.5703,5.5703,5.5703,5.5703,5.5703,5.5722,5.7473,5.83,5.8357,6.0031,6.08,6.08,6.08,6.08,6.08,6.08,6.08,6.08,6.08,6.08,6.08,6.08,6.08,6.08,5.2226,5.2634,5.3213,5.4045,5.4179,5.4428,5.5154,5.5319,5.5399,5.5512,5.5512,5.5577,5.5692,5.5703,5.5703,5.5703,5.5703,5.5703,5.5703,5.5703,5.5703,5.5703,5.5703,5.5434,5.4876,5.4857,5.4857,5.4857,5.4857,5.5145,5.5703,5.5703,5.5703,5.5703,5.5703,5.5703,5.5703,5.5703,5.5703,5.5703,5.5703,5.5703,5.5703,5.5703,5.5703,5.5703,5.5703,5.5703,5.5703,5.5703,5.5703,5.5703,5.5703,5.5703,5.5703,5.5703,5.5703,5.5703,5.5703,5.5703,5.5703,5.5703,5.5703,5.5703,5.5703,5.5703,5.5703,5.5703,5.5703,5.5703,5.5703,5.5703,5.5703,5.5703,5.5703,5.5703,5.5703,5.5703,5.5703,5.5703,5.5203,5.4857,5.4857,5.4857,5.4857,5.4857,5.4857,5.5107,5.5665,5.5703,5.5703,5.5703,5.5703,5.5703,5.5703,5.5703,5.5703,5.5722,5.7473,5.83,5.8357,6.0031,6.08,6.08,6.08,6.08,6.08,6.08,6.08,6.08,6.08,6.08,6.08,6.08,6.08,6.08,5.3019,5.35,5.4064,5.4936,5.5069,5.5224,5.564,5.5021,5.4674,5.5048,5.5121,5.5269,5.5651,5.5703,5.5703,5.5703,5.5703,5.5703,5.5703,5.5703,5.5703,5.5703,5.5703,5.5703,5.5684,5.5684,5.5684,5.5684,5.5684,5.5684,5.5703,5.5703,5.5703,5.5703,5.5703,5.5703,5.5703,5.5703,5.5703,5.5703,5.5703,5.5703,5.5703,5.5703,5.5703,5.5703,5.5703,5.5703,5.5703,5.5703,5.5703,5.5703,5.5703,5.5703,5.5703,5.5703,5.5703,5.5703,5.5703,5.5703,5.5703,5.5703,5.5703,5.5703,5.5703,5.5703,5.5703,5.5703,5.5703,5.5703,5.5703,5.5703,5.5703,5.5703,5.5703,5.5703,5.5703,5.5703,5.5703,5.5703,5.5684,5.5684,5.5684,5.5684,5.5684,5.5684,5.5684,5.5684,5.5703,5.5703,5.5703,5.5703,5.5703,5.5703,5.5703,5.5703,5.5703,5.5722,5.7473,5.83,5.8357,6.0031,6.08,6.08,6.08,6.08,6.08,6.08,6.08,6.08,6.08,6.08,6.08,6.08,6.08,6.08,5.4016,5.3924,5.39,5.4163,5.42,5.4251,5.4398,5.4449,5.455,5.4671,5.4686,5.4731,5.4881,5.5356,5.5703,5.5703,5.5703,5.5703,5.5703,5.5703,5.5703,5.5703,5.5703,5.5703,5.5703,5.5703,5.5703,5.5703,5.5703,5.5703,5.5703,5.5703,5.5703,5.5703,5.5703,5.5703,5.5703,5.5703,5.5703,5.5703,5.5703,5.5703,5.5703,5.5703,5.5703,5.5703,5.5703,5.5703,5.5703,5.5703,5.5703,5.5703,5.5703,5.5703,5.5703,5.5703,5.5703,5.5703,5.5703,5.5703,5.5703,5.5703,5.5703,5.5703,5.5703,5.5703,5.5703,5.5703,5.5703,5.5703,5.5703,5.5703,5.5703,5.5703,5.5703,5.5703,5.5703,5.5703,5.5703,5.5703,5.5703,5.5703,5.5703,5.5703,5.5703,5.5703,5.5703,5.5703,5.5703,5.5703,5.5703,5.5703,5.5703,5.5703,5.5703,5.5703,5.5703,5.5722,5.7473,5.8896,6.0012,6.055,6.08,6.08,6.08,6.08,6.08,6.08,6.08,6.08,6.08,6.08,6.08,6.08,6.08,6.08,5.4015,5.3906,5.3796,5.3796,5.3796,5.3869,5.4031,5.4032,5.4068,5.4204,5.4238,5.4305,5.4487,5.5075,5.5458,5.5458,5.5331,5.5387,5.5673,5.5566,5.5535,5.5684,5.5703,5.5703,5.5703,5.5703,5.5703,5.5703,5.5703,5.5703,5.5703,5.5703,5.5703,5.5703,5.5703,5.5703,5.5703,5.5703,5.5703,5.5703,5.5703,5.5703,5.5703,5.5703,5.5703,5.5703,5.5703,5.5703,5.5703,5.5703,5.5703,5.5703,5.5703,5.5703,5.5703,5.5703,5.5703,5.5703,5.5703,5.5703,5.5703,5.5703,5.5703,5.5703,5.5703,5.5703,5.5703,5.5703,5.5703,5.5703,5.5703,5.5703,5.5703,5.5703,5.5703,5.5703,5.5703,5.5703,5.5703,5.5703,5.5703,5.5703,5.5703,5.5703,5.5703,5.5703,5.5703,5.5703,5.5703,5.5703,5.5703,5.5703,5.5703,5.5703,5.5703,5.5703,5.5857,5.6214,5.7934,5.9473,6.08,6.08,6.08,6.08,6.08,6.08,6.08,6.08,6.08,6.08,6.08,6.08,6.08,6.08,6.08,6.08,5.3185,5.3505,5.3758,5.3758,5.3758,5.3906,5.4338,5.3739,5.338,5.374,5.3833,5.4013,5.4436,5.4819,5.5061,5.5107,5.4775,5.4895,5.5599,5.5331,5.5306,5.5673,5.5703,5.5703,5.5703,5.5703,5.5703,5.5703,5.5703,5.5703,5.5703,5.5703,5.5703,5.5703,5.5703,5.5703,5.5703,5.5703,5.5703,5.5703,5.5703,5.5703,5.5703,5.5703,5.5703,5.5703,5.5703,5.5703,5.5703,5.5703,5.5703,5.5703,5.5703,5.5703,5.5703,5.5703,5.5703,5.5703,5.5703,5.5703,5.5703,5.5703,5.5703,5.5703,5.5703,5.5703,5.5703,5.5703,5.5703,5.5703,5.5703,5.5703,5.5703,5.5703,5.5703,5.5703,5.5703,5.5703,5.5703,5.5703,5.5703,5.5703,5.5703,5.5703,5.5703,5.5703,5.5703,5.5703,5.5703,5.5703,5.5703,5.5703,5.5703,5.5703,5.5703,5.5703,5.6165,5.7118,5.8723,5.9954,6.08,6.08,6.08,6.08,6.08,6.08,6.08,6.08,6.08,6.08,6.08,6.08,6.08,6.08,6.08,6.08,5.3185,5.3293,5.3339,5.3339,5.3339,5.338,5.3502,5.3585,5.3683,5.3796,5.4118,5.439,5.4487,5.4579,5.4779,5.5061,5.5294,5.5375,5.5237,5.5435,5.5599,5.5703,5.5703,5.5703,5.5703,5.5703,5.5703,5.5703,5.5703,5.5703,5.5703,5.5703,5.5703,5.5703,5.5703,5.5703,5.5703,5.5703,5.5703,5.5703,5.5703,5.5703,5.5703,5.5703,5.5703,5.5703,5.5703,5.5703,5.5703,5.5703,5.5703,5.5703,5.5703,5.5703,5.5703,5.5703,5.5703,5.5703,5.5703,5.5703,5.5703,5.5703,5.5703,5.5703,5.5703,5.5703,5.5703,5.5703,5.5703,5.5703,5.5703,5.5703,5.5703,5.5703,5.5703,5.5703,5.5703,5.5703,5.5703,5.5703,5.5703,5.5703,5.5703,5.5703,5.5703,5.5703,5.5703,5.5703,5.5703,5.5703,5.5703,5.5703,5.5703,5.5703,5.5703,5.5703,5.6472,5.7992,5.9011,5.9954,6.08,6.08,6.08,6.08,6.08,6.08,6.08,6.08,6.08,6.08,6.08,6.08,6.08,6.08,6.08,6.08,5.3185,5.3185,5.3185,5.3185,5.3185,5.3185,5.3185,5.3545,5.3796,5.3796,5.4204,5.4582,5.4745,5.476,5.4848,5.5075,5.5134,5.5212,5.5356,5.5411,5.5512,5.5684,5.5703,5.5703,5.5703,5.5703,5.5703,5.5703,5.5703,5.5703,5.5703,5.5703,5.5703,5.5703,5.5703,5.5703,5.5703,5.5703,5.5703,5.5703,5.5703,5.5703,5.5703,5.5703,5.5703,5.5703,5.5703,5.5703,5.5703,5.5703,5.5703,5.5703,5.5703,5.5703,5.5703,5.5703,5.5703,5.5703,5.5703,5.5703,5.5703,5.5703,5.5703,5.5703,5.5703,5.5703,5.5703,5.5703,5.5703,5.5703,5.5703,5.5703,5.5703,5.5703,5.603,5.6156,5.5761,5.603,5.6156,5.5742,5.5703,5.5703,5.5703,5.5703,5.5703,5.5703,5.5703,5.5703,5.5703,5.5703,5.5703,5.5703,5.5703,5.5703,5.5703,5.6492,5.7357,5.8319,5.9511,6.0339,6.08,6.08,6.08,6.08,6.08,6.08,6.08,6.08,6.08,6.08,6.08,6.08,6.08,6.08,6.08,6.08,5.3185,5.3185,5.3185,5.3185,5.3185,5.3227,5.3274,5.3643,5.3923,5.3995,5.4385,5.4804,5.516,5.5186,5.5186,5.5186,5.4881,5.4952,5.5577,5.5343,5.5331,5.5692,5.5703,5.5703,5.5703,5.5703,5.5703,5.5703,5.5703,5.5703,5.5703,5.5703,5.5703,5.5703,5.5703,5.5703,5.5703,5.5703,5.5703,5.5703,5.5703,5.5703,5.5703,5.5703,5.5703,5.5703,5.5703,5.5703,5.5703,5.5703,5.5703,5.5703,5.5703,5.5703,5.5703,5.5703,5.5703,5.5703,5.5703,5.5703,5.5703,5.5703,5.5703,5.5703,5.5703,5.5703,5.5703,5.5703,5.5703,5.5703,5.5703,5.5703,5.5742,5.5857,5.6406,5.6599,5.5972,5.6426,5.6541,5.578,5.5703,5.5703,5.5703,5.5703,5.5703,5.5703,5.5703,5.5703,5.5703,5.5703,5.5703,5.5703,5.5703,5.5761,5.5876,5.7492,5.8357,5.8511,6.005,6.08,6.08,6.08,6.08,6.08,6.08,6.08,6.08,6.08,6.08,6.08,6.08,6.08,6.08,6.08,6.08,6.08,5.3185,5.3185,5.3185,5.3185,5.3185,5.3316,5.3663,5.4102,5.4516,5.4862,5.525,5.5554,5.5599,5.5599,5.5599,5.5599,5.5554,5.5423,5.5199,5.5446,5.5621,5.5703,5.5703,5.5703,5.5703,5.5703,5.5703,5.5703,5.5703,5.5703,5.5703,5.5703,5.5703,5.5703,5.5703,5.5703,5.5703,5.5703,5.5703,5.5703,5.5703,5.5703,5.5703,5.5703,5.5703,5.5703,5.5703,5.5703,5.5703,5.5703,5.5703,5.5703,5.5703,5.5703,5.5703,5.5703,5.5703,5.5703,5.5703,5.5703,5.5703,5.5703,5.5703,5.5703,5.5703,5.5703,5.5703,5.5703,5.5703,5.5703,5.5703,5.5703,5.5934,5.6676,5.6291,5.6107,5.6714,5.6291,5.5838,5.5722,5.5703,5.5703,5.5703,5.5703,5.5703,5.5703,5.5703,5.5703,5.5703,5.5703,5.5703,5.5703,5.5703,5.6049,5.6791,5.78,5.8646,5.9338,6.0319,6.08,6.08,6.08,6.08,6.08,6.08,6.08,6.08,6.08,6.08,6.08,6.08,6.08,6.08,6.08,6.08,6.08,5.3851,5.3701,5.3604,5.3851,5.3907,5.3961,5.4135,5.4528,5.4895,5.5094,5.5446,5.5703,5.5703,5.5703,5.5703,5.5703,5.5703,5.561,5.5435,5.5599,5.5703,5.5703,5.5703,5.5703,5.5703,5.5703,5.5703,5.5703,5.5703,5.5703,5.5703,5.5703,5.5703,5.5703,5.5703,5.5703,5.5703,5.5703,5.5703,5.5703,5.5703,5.5703,5.5703,5.5703,5.5703,5.5703,5.5703,5.5703,5.5703,5.5703,5.5703,5.5703,5.5703,5.5703,5.5703,5.5703,5.5703,5.5703,5.5703,5.5703,5.5703,5.5703,5.5703,5.5703,5.5703,5.5703,5.5703,5.5703,5.5703,5.5703,5.5703,5.5703,5.5818,5.6233,5.6368,5.6387,5.631,5.6368,5.6233,5.5761,5.5703,5.5703,5.5703,5.5703,5.5703,5.5703,5.5703,5.5703,5.5703,5.5703,5.5703,5.5703,5.6156,5.6599,5.7003,5.828,5.9127,5.9511,6.0377,6.08,6.08,6.08,6.08,6.08,6.08,6.08,6.08,6.08,6.08,6.08,6.08,6.08,6.08,6.08,6.08,6.08,5.4439,5.4204,5.4083,5.4439,5.4503,5.4535,5.4628,5.489,5.5134,5.5224,5.5512,5.5703,5.5703,5.5703,5.5703,5.5703,5.5703,5.5703,5.5703,5.5703,5.5703,5.5703,5.5703,5.5703,5.5703,5.5703,5.5703,5.5703,5.5703,5.5703,5.5703,5.5703,5.5703,5.5703,5.5703,5.5703,5.5703,5.5703,5.5703,5.5703,5.5703,5.5703,5.5703,5.5703,5.5703,5.5703,5.5703,5.5703,5.5703,5.5703,5.5703,5.5703,5.5703,5.5703,5.5703,5.5703,5.5703,5.5703,5.5703,5.5703,5.5703,5.5703,5.5703,5.5703,5.5703,5.5703,5.5703,5.5703,5.5703,5.5703,5.5703,5.5703,5.5761,5.5972,5.6387,5.6541,5.6069,5.6406,5.6445,5.578,5.5703,5.5703,5.5703,5.5703,5.5703,5.5703,5.5703,5.5703,5.5703,5.5703,5.578,5.5992,5.6656,5.7099,5.7311,5.8761,5.9608,5.9819,6.0473,6.08,6.08,6.08,6.08,6.08,6.08,6.08,6.08,6.08,6.08,6.08,6.08,6.08,6.08,6.08,6.08,6.08,5.4503,5.4471,5.4471,5.4503,5.4503,5.4628,5.5007,5.5075,5.5224,5.5599,5.5673,5.5703,5.5703,5.5703,5.5703,5.5703,5.5703,5.5703,5.5703,5.5703,5.5703,5.5703,5.5703,5.5703,5.5703,5.5703,5.5703,5.5703,5.5703,5.5703,5.5703,5.5703,5.5703,5.5703,5.5703,5.5703,5.5703,5.5703,5.5703,5.5703,5.5703,5.5703,5.5703,5.5703,5.5703,5.5703,5.5703,5.5703,5.5703,5.5703,5.5703,5.5703,5.5703,5.5703,5.5703,5.5703,5.5703,5.5703,5.5703,5.5703,5.5703,5.5703,5.5703,5.5703,5.5703,5.5703,5.5703,5.5703,5.5703,5.5703,5.5703,5.5703,5.5953,5.6772,5.6291,5.6049,5.681,5.6272,5.5761,5.5703,5.5703,5.5703,5.5703,5.5703,5.5703,5.5703,5.5703,5.5703,5.5703,5.5703,5.6069,5.6887,5.6964,5.7376,5.8204,5.9069,5.9915,6.0704,6.0762,6.08,6.08,6.08,6.08,6.08,6.08,6.08,6.08,6.08,6.08,6.08,6.08,6.08,6.08,6.08,6.08,6.08,5.5199,5.5034,5.4952,5.5199,5.5237,5.5294,5.5446,5.5477,5.5524,5.5673,5.5703,5.5703,5.5703,5.5703,5.5703,5.5703,5.5703,5.5703,5.5703,5.5703,5.5703,5.5703,5.5703,5.5703,5.5703,5.5703,5.5703,5.5703,5.5703,5.5703,5.5703,5.5703,5.5703,5.5703,5.5703,5.5703,5.5703,5.5703,5.5703,5.5703,5.5703,5.5703,5.5703,5.5703,5.5703,5.5703,5.5703,5.5703,5.5703,5.5703,5.5703,5.5703,5.5703,5.5703,5.5703,5.5703,5.5703,5.5703,5.5703,5.5703,5.5703,5.5703,5.5703,5.5703,5.5703,5.5703,5.5703,5.5703,5.5703,5.5703,5.5703,5.5703,5.5799,5.6126,5.5915,5.5818,5.6156,5.5915,5.5703,5.5703,5.5703,5.5703,5.5703,5.5703,5.5703,5.5703,5.5703,5.5703,5.5703,5.5703,5.6088,5.6964,5.7511,5.8204,5.905,5.9877,6.0473,6.08,6.08,6.08,6.08,6.08,6.08,6.08,6.08,6.08,6.08,6.08,6.08,6.08,6.08,6.08,6.08,6.08,6.08,6.08,5.5651,5.5489,5.5387,5.5651,5.5703,5.5703,5.5703,5.5703,5.5703,5.5703,5.5703,5.5703,5.5703,5.5703,5.5703,5.5703,5.5703,5.5703,5.5703,5.5703,5.5703,5.5703,5.5703,5.5703,5.5703,5.5703,5.5703,5.5703,5.5703,5.5703,5.5703,5.5703,5.5703,5.5703,5.5703,5.5703,5.5703,5.5703,5.5703,5.5703,5.5703,5.5703,5.5703,5.5703,5.5703,5.5703,5.5703,5.5703,5.5703,5.5703,5.5703,5.5703,5.5703,5.5703,5.5703,5.5703,5.5703,5.5703,5.5703,5.5703,5.5703,5.5703,5.5703,5.5703,5.5703,5.5703,5.5703,5.5703,5.5703,5.5703,5.5703,5.5703,5.5703,5.5703,5.5703,5.5703,5.5703,5.5703,5.5703,5.5703,5.5703,5.5703,5.5703,5.5703,5.5703,5.5703,5.5703,5.5703,5.5703,5.5953,5.6511,5.7376,5.8223,5.9069,5.9896,6.0492,6.08,6.08,6.08,6.08,6.08,6.08,6.08,6.08,6.08,6.08,6.08,6.08,6.08,6.08,6.08,6.08,6.08,6.08,6.08,6.08,5.5703,5.5703,5.5703,5.5703,5.5703,5.5703,5.5703,5.5703,5.5703,5.5703,5.5703,5.5703,5.5703,5.5703,5.5703,5.5703,5.5703,5.5703,5.5703,5.5703,5.5703,5.5703,5.5703,5.5703,5.5703,5.5703,5.5703,5.5703,5.5703,5.5703,5.5703,5.5703,5.5703,5.5703,5.5703,5.5703,5.5703,5.5703,5.5703,5.5703,5.5703,5.5703,5.5703,5.5703,5.5703,5.5703,5.5703,5.5703,5.5703,5.5703,5.5703,5.5703,5.5703,5.5703,5.5703,5.5703,5.5703,5.5703,5.5703,5.5703,5.5703,5.5703,5.5703,5.5703,5.5703,5.5703,5.5703,5.5703,5.5703,5.5703,5.5703,5.5703,5.5703,5.5703,5.5703,5.5703,5.5703,5.5703,5.5703,5.5703,5.5703,5.5703,5.5703,5.5703,5.5703,5.5703,5.5703,5.5703,5.5703,5.6541,5.7396,5.828,5.9088,5.9915,6.0781,6.08,6.08,6.08,6.08,6.08,6.08,6.08,6.08,6.08,6.08,6.08,6.08,6.08,6.08,6.08,6.08,6.08,6.08,6.08,6.08,6.08,5.5703,5.5703,5.5703,5.5703,5.5703,5.5703,5.5703,5.5703,5.5703,5.5703,5.5703,5.5703,5.5703,5.5703,5.5703,5.5703,5.5703,5.5703,5.5703,5.5703,5.5703,5.5703,5.5703,5.5703,5.5703,5.5703,5.5703,5.5703,5.5703,5.5703,5.5703,5.5703,5.5703,5.5703,5.5703,5.5703,5.5703,5.5703,5.5703,5.5703,5.5703,5.5703,5.5703,5.5703,5.5703,5.5703,5.5703,5.5703,5.5703,5.5703,5.5703,5.5703,5.5703,5.5703,5.5703,5.5703,5.5703,5.5703,5.5703,5.5703,5.5703,5.5703,5.5703,5.5703,5.5703,5.5703,5.5703,5.5703,5.5703,5.5703,5.5703,5.5703,5.5703,5.5703,5.5703,5.5703,5.5703,5.5703,5.5703,5.5703,5.5703,5.5703,5.5703,5.5703,5.5703,5.5703,5.5703,5.5703,5.5703,5.6541,5.7396,5.828,5.9088,5.9915,6.0781,6.08,6.08,6.08,6.08,6.08,6.08,6.08,6.08,6.08,6.08,6.08,6.08,6.08,6.08,6.08,6.08,6.08,6.08,6.08,6.08,6.08,5.5703,5.5703,5.5703,5.5703,5.5703,5.5703,5.5703,5.5703,5.5703,5.5703,5.5703,5.5703,5.5703,5.5703,5.5703,5.5703,5.5703,5.5703,5.5703,5.5703,5.5703,5.5703,5.5703,5.5703,5.5703,5.5703,5.5703,5.5703,5.5703,5.5703,5.5703,5.5703,5.5703,5.5703,5.5703,5.5703,5.5703,5.5703,5.5703,5.5703,5.5703,5.5703,5.5703,5.5703,5.5703,5.5703,5.5703,5.5703,5.5703,5.5703,5.5703,5.5703,5.5703,5.5703,5.5703,5.5703,5.5703,5.5703,5.5703,5.5703,5.5703,5.5703,5.5703,5.5703,5.5703,5.5703,5.5703,5.5703,5.5703,5.5703,5.5703,5.5703,5.5703,5.5703,5.5703,5.5703,5.5703,5.5703,5.5703,5.5703,5.5703,5.5703,5.5703,5.5703,5.5703,5.5703,5.5703,5.5703,5.5703,5.6838,5.7761,5.828,5.9415,6.0262,6.0781,6.08,6.08,6.08,6.08,6.08,6.08,6.08,6.08,6.08,6.08,6.08,6.08,6.08,6.08,6.08,6.08,6.08,6.08,6.08,6.08,6.08,5.5703,5.5703,5.5703,5.5703,5.5703,5.5703,5.5703,5.5703,5.5703,5.5703,5.5703,5.5703,5.5703,5.5703,5.5703,5.5703,5.5703,5.5703,5.5703,5.5703,5.5703,5.5703,5.5703,5.5703,5.5703,5.5703,5.5703,5.5703,5.5703,5.5703,5.5703,5.5703,5.5703,5.5703,5.5703,5.5703,5.5703,5.5703,5.5703,5.5703,5.5703,5.5703,5.5703,5.5703,5.5703,5.5703,5.5703,5.5703,5.5703,5.5703,5.5703,5.5703,5.5703,5.5703,5.5703,5.5703,5.5703,5.5703,5.5703,5.5703,5.5703,5.5703,5.5703,5.5703,5.5703,5.5703,5.5703,5.5703,5.5703,5.5703,5.5703,5.5703,5.5703,5.5703,5.5703,5.5703,5.5703,5.5703,5.5703,5.5703,5.5703,5.5703,5.5703,5.5703,5.5703,5.5703,5.5703,5.5722,5.5799,5.7396,5.8338,5.8396,5.9954,6.08,6.08,6.08,6.08,6.08,6.08,6.08,6.08,6.08,6.08,6.08,6.08,6.08,6.08,6.08,6.08,6.08,6.08,6.08,6.08,6.08,6.08,6.08,5.5703,5.5703,5.5703,5.5703,5.5703,5.5703,5.5703,5.5703,5.5703,5.5703,5.5703,5.5703,5.5703,5.5703,5.5703,5.5703,5.5703,5.5703,5.5703,5.5703,5.5703,5.5703,5.5703,5.5703,5.5703,5.5703,5.5703,5.5703,5.5703,5.5703,5.5703,5.5703,5.5703,5.5703,5.5703,5.5703,5.5703,5.5703,5.5703,5.5703,5.5703,5.5703,5.5703,5.5703,5.5703,5.5703,5.5703,5.5703,5.5703,5.5703,5.5703,5.5703,5.5703,5.5703,5.5703,5.5703,5.5703,5.5703,5.5703,5.5703,5.5703,5.5703,5.5703,5.5703,5.5703,5.5703,5.5703,5.5703,5.5703,5.5703,5.5703,5.5703,5.5703,5.5703,5.5703,5.5703,5.5703,5.5703,5.5703,5.5703,5.5703,5.5703,5.5703,5.5703,5.5703,5.5703,5.5703,5.5992,5.6676,5.7723,5.8588,5.9223,6.0242,6.08,6.08,6.08,6.08,6.08,6.08,6.08,6.08,6.08,6.08,6.08,6.08,6.08,6.08,6.08,6.08,6.08,6.08,6.08,6.08,6.08,6.08,6.08,5.5703,5.5703,5.5703,5.5703,5.5703,5.5703,5.5703,5.5703,5.5703,5.5703,5.5703,5.5703,5.5703,5.5703,5.5703,5.5703,5.5703,5.5703,5.5703,5.5703,5.5703,5.5703,5.5703,5.5703,5.5703,5.5703,5.5703,5.5703,5.5703,5.5703,5.5703,5.5703,5.5703,5.5703,5.5703,5.5703,5.5703,5.5703,5.5703,5.5703,5.5703,5.5703,5.5703,5.5703,5.5703,5.5703,5.5703,5.5703,5.5703,5.5703,5.5703,5.5703,5.5703,5.5703,5.5703,5.5703,5.5703,5.5703,5.5703,5.5703,5.5703,5.5703,5.5703,5.5703,5.5703,5.5703,5.5703,5.5703,5.5703,5.5703,5.5703,5.5703,5.5703,5.5703,5.5703,5.5703,5.5703,5.5703,5.5703,5.5703,5.5703,5.5703,5.5703,5.5703,5.5703,5.5703,5.5703,5.6069,5.6945,5.7838,5.8665,5.9473,6.0339,6.08,6.08,6.08,6.08,6.08,6.08,6.08,6.08,6.08,6.08,6.08,6.08,6.08,6.08,6.08,6.08,6.08,6.08,6.08,6.08,6.08,6.08,6.08,5.5703,5.5703,5.5703,5.5703,5.5703,5.5703,5.5703,5.5703,5.5703,5.5703,5.5703,5.5703,5.5703,5.5703,5.5703,5.5703,5.5703,5.5703,5.5703,5.5703,5.5703,5.5703,5.5703,5.5703,5.5703,5.5703,5.5703,5.5703,5.5703,5.5703,5.5703,5.5703,5.5703,5.5703,5.5703,5.5703,5.5703,5.5703,5.5703,5.5703,5.5703,5.5703,5.5703,5.5703,5.5703,5.5703,5.5703,5.5703,5.5703,5.5703,5.5703,5.5703,5.5703,5.5703,5.5703,5.5703,5.5703,5.5703,5.5703,5.5703,5.5703,5.5703,5.5703,5.5703,5.5703,5.5703,5.5703,5.5703,5.5703,5.5703,5.5703,5.5703,5.5703,5.5703,5.5703,5.5703,5.5703,5.5703,5.5703,5.5703,5.5703,5.5703,5.5703,5.5703,5.5703,5.5703,5.5703,5.6145,5.7176,5.7915,5.8742,5.9685,6.0416,6.08,6.08,6.08,6.08,6.08,6.08,6.08,6.08,6.08,6.08,6.08,6.08,6.08,6.08,6.08,6.08,6.08,6.08,6.08,6.08,6.08,6.08,6.08,5.5703,5.5703,5.5703,5.5703,5.5703,5.5703,5.5703,5.5703,5.5703,5.5703,5.5703,5.5703,5.5703,5.5703,5.5703,5.5703,5.5703,5.5703,5.5703,5.5703,5.5703,5.5703,5.5703,5.5703,5.5703,5.5703,5.5703,5.5703,5.5703,5.5703,5.5703,5.5703,5.5703,5.5703,5.5703,5.5703,5.5703,5.5703,5.5703,5.5703,5.5703,5.5703,5.5703,5.5703,5.5703,5.5703,5.5703,5.5703,5.5703,5.5703,5.5703,5.5703,5.5703,5.5703,5.5703,5.5703,5.5703,5.5703,5.5703,5.5703,5.5703,5.5703,5.5703,5.5703,5.5703,5.5703,5.5703,5.5703,5.5703,5.5703,5.5703,5.5703,5.5703,5.5703,5.5703,5.5703,5.5703,5.5703,5.5703,5.5703,5.5703,5.5703,5.5703,5.5703,5.5703,5.5703,5.5703,5.6415,5.805,5.8242,5.9011,6.0569,6.0742,6.08,6.08,6.08,6.08,6.08,6.08,6.08,6.08,6.08,6.08,6.08,6.08,6.08,6.08,6.08,6.08,6.08,6.08,6.08,6.08,6.08,6.08,6.08,5.5703,5.5703,5.5703,5.5703,5.5703,5.5703,5.5703,5.5703,5.5703,5.5703,5.5703,5.5703,5.5703,5.5703,5.5703,5.5703,5.5703,5.5703,5.5703,5.5703,5.5703,5.5703,5.5703,5.5703,5.5703,5.5703,5.5703,5.5703,5.5703,5.5703,5.5703,5.5703,5.5703,5.5703,5.5703,5.5703,5.5703,5.5703,5.5703,5.5703,5.5703,5.5703,5.5703,5.5703,5.5703,5.5703,5.5703,5.5703,5.5703,5.5703,5.5703,5.5703,5.5703,5.5703,5.5703,5.5703,5.5703,5.5703,5.5703,5.5703,5.5703,5.5703,5.5703,5.5703,5.5703,5.5703,5.5703,5.5703,5.5703,5.5703,5.5703,5.5703,5.5703,5.5703,5.5703,5.5703,5.5703,5.5703,5.5703,5.5703,5.5703,5.5703,5.5703,5.5703,5.5703,5.5703,5.5703,5.6453,5.8204,5.83,5.9069,6.0742,6.08,6.08,6.08,6.08,6.08,6.08,6.08,6.08,6.08,6.08,6.08,6.08,6.08,6.08,6.08,6.08,6.08,6.08,6.08,6.08,6.08,6.08,6.08,6.08]}]]